<?xml version="1.0" encoding="UTF-8" standalone="no" ?>
<gpx xmlns="http://www.topografix.com/GPX/1/1" xmlns:xsi="http://www.w3.org/2001/XMLSchema-instance" xsi:schemaLocation="http://www.topografix.com/GPX/1/1 http://www.topografix.com/GPX/1/1/gpx.xsd" version="1.1" creator="VisuGPX - https://www.visugpx.com">
  <metadata>
    <name>Rachais March 21, 2021</name>
  </metadata>
  <trk>
    <name><![CDATA[ACTIVE LOG054302]]></name>
    <trkseg>
      <trkpt lat="45.19691" lon="5.73882">
        <ele>187.288</ele>
        <time>2021-03-21T04:43:02Z</time>
      </trkpt>
      <trkpt lat="45.19646" lon="5.73971">
        <ele>187.922</ele>
        <time>2021-03-21T04:44:07Z</time>
      </trkpt>
      <trkpt lat="45.19645" lon="5.7398">
        <ele>191.201</ele>
        <time>2021-03-21T04:44:54Z</time>
      </trkpt>
      <trkpt lat="45.1964" lon="5.73981">
        <ele>189.849</ele>
        <time>2021-03-21T04:45:01Z</time>
      </trkpt>
      <trkpt lat="45.19634" lon="5.73979">
        <ele>190.339</ele>
        <time>2021-03-21T04:45:10Z</time>
      </trkpt>
      <trkpt lat="45.19635" lon="5.73974">
        <ele>190.946</ele>
        <time>2021-03-21T04:45:16Z</time>
      </trkpt>
      <trkpt lat="45.19635" lon="5.73973">
        <ele>189.708</ele>
        <time>2021-03-21T04:45:24Z</time>
      </trkpt>
      <trkpt lat="45.19631" lon="5.73975">
        <ele>186.113</ele>
        <time>2021-03-21T04:45:35Z</time>
      </trkpt>
      <trkpt lat="45.19631" lon="5.73972">
        <ele>184.652</ele>
        <time>2021-03-21T04:45:41Z</time>
      </trkpt>
      <trkpt lat="45.19631" lon="5.73976">
        <ele>181.627</ele>
        <time>2021-03-21T04:45:50Z</time>
      </trkpt>
      <trkpt lat="45.19633" lon="5.73976">
        <ele>181.579</ele>
        <time>2021-03-21T04:45:57Z</time>
      </trkpt>
      <trkpt lat="45.19631" lon="5.73977">
        <ele>182.233</ele>
        <time>2021-03-21T04:46:05Z</time>
      </trkpt>
      <trkpt lat="45.19635" lon="5.73973">
        <ele>182.904</ele>
        <time>2021-03-21T04:46:09Z</time>
      </trkpt>
      <trkpt lat="45.19648" lon="5.73963">
        <ele>182.547</ele>
        <time>2021-03-21T04:46:15Z</time>
      </trkpt>
      <trkpt lat="45.19659" lon="5.73953">
        <ele>183.291</ele>
        <time>2021-03-21T04:46:20Z</time>
      </trkpt>
      <trkpt lat="45.19661" lon="5.73951">
        <ele>182.361</ele>
        <time>2021-03-21T04:46:22Z</time>
      </trkpt>
      <trkpt lat="45.19665" lon="5.73955">
        <ele>182.824</ele>
        <time>2021-03-21T04:46:27Z</time>
      </trkpt>
      <trkpt lat="45.19671" lon="5.73958">
        <ele>184.006</ele>
        <time>2021-03-21T04:46:31Z</time>
      </trkpt>
      <trkpt lat="45.19677" lon="5.73968">
        <ele>181.922</ele>
        <time>2021-03-21T04:46:37Z</time>
      </trkpt>
      <trkpt lat="45.1968" lon="5.73979">
        <ele>183.079</ele>
        <time>2021-03-21T04:46:43Z</time>
      </trkpt>
      <trkpt lat="45.19681" lon="5.73983">
        <ele>183.157</ele>
        <time>2021-03-21T04:46:46Z</time>
      </trkpt>
      <trkpt lat="45.19687" lon="5.74">
        <ele>183.825</ele>
        <time>2021-03-21T04:46:53Z</time>
      </trkpt>
      <trkpt lat="45.19689" lon="5.74003">
        <ele>184.029</ele>
        <time>2021-03-21T04:46:54Z</time>
      </trkpt>
      <trkpt lat="45.19696" lon="5.74013">
        <ele>183.87</ele>
        <time>2021-03-21T04:47:00Z</time>
      </trkpt>
      <trkpt lat="45.197" lon="5.74016">
        <ele>184.661</ele>
        <time>2021-03-21T04:47:02Z</time>
      </trkpt>
      <trkpt lat="45.19703" lon="5.74042">
        <ele>183.978</ele>
        <time>2021-03-21T04:47:11Z</time>
      </trkpt>
      <trkpt lat="45.19703" lon="5.74049">
        <ele>183.241</ele>
        <time>2021-03-21T04:47:13Z</time>
      </trkpt>
      <trkpt lat="45.19703" lon="5.74056">
        <ele>183.412</ele>
        <time>2021-03-21T04:47:15Z</time>
      </trkpt>
      <trkpt lat="45.19704" lon="5.7407">
        <ele>183.908</ele>
        <time>2021-03-21T04:47:20Z</time>
      </trkpt>
      <trkpt lat="45.19709" lon="5.74096">
        <ele>183.587</ele>
        <time>2021-03-21T04:47:29Z</time>
      </trkpt>
      <trkpt lat="45.19714" lon="5.74126">
        <ele>184.541</ele>
        <time>2021-03-21T04:47:38Z</time>
      </trkpt>
      <trkpt lat="45.19719" lon="5.74149">
        <ele>184.204</ele>
        <time>2021-03-21T04:47:45Z</time>
      </trkpt>
      <trkpt lat="45.19724" lon="5.7417">
        <ele>184.778</ele>
        <time>2021-03-21T04:47:52Z</time>
      </trkpt>
      <trkpt lat="45.1973" lon="5.74192">
        <ele>184.138</ele>
        <time>2021-03-21T04:47:59Z</time>
      </trkpt>
      <trkpt lat="45.19732" lon="5.74219">
        <ele>184.334</ele>
        <time>2021-03-21T04:48:07Z</time>
      </trkpt>
      <trkpt lat="45.19733" lon="5.74222">
        <ele>183.785</ele>
        <time>2021-03-21T04:48:08Z</time>
      </trkpt>
      <trkpt lat="45.19736" lon="5.74233">
        <ele>184.155</ele>
        <time>2021-03-21T04:48:12Z</time>
      </trkpt>
      <trkpt lat="45.19734" lon="5.74242">
        <ele>185.294</ele>
        <time>2021-03-21T04:48:16Z</time>
      </trkpt>
      <trkpt lat="45.19739" lon="5.74245">
        <ele>186.567</ele>
        <time>2021-03-21T04:48:20Z</time>
      </trkpt>
      <trkpt lat="45.19756" lon="5.74242">
        <ele>186.205</ele>
        <time>2021-03-21T04:48:28Z</time>
      </trkpt>
      <trkpt lat="45.1977" lon="5.74242">
        <ele>186.658</ele>
        <time>2021-03-21T04:48:34Z</time>
      </trkpt>
      <trkpt lat="45.19782" lon="5.74241">
        <ele>187.44</ele>
        <time>2021-03-21T04:48:40Z</time>
      </trkpt>
      <trkpt lat="45.19794" lon="5.74241">
        <ele>187.825</ele>
        <time>2021-03-21T04:48:47Z</time>
      </trkpt>
      <trkpt lat="45.19812" lon="5.74233">
        <ele>187.734</ele>
        <time>2021-03-21T04:48:53Z</time>
      </trkpt>
      <trkpt lat="45.19827" lon="5.74226">
        <ele>186.963</ele>
        <time>2021-03-21T04:49:00Z</time>
      </trkpt>
      <trkpt lat="45.19842" lon="5.74223">
        <ele>187.569</ele>
        <time>2021-03-21T04:49:06Z</time>
      </trkpt>
      <trkpt lat="45.1986" lon="5.74218">
        <ele>187.52</ele>
        <time>2021-03-21T04:49:13Z</time>
      </trkpt>
      <trkpt lat="45.19877" lon="5.74213">
        <ele>186.686</ele>
        <time>2021-03-21T04:49:20Z</time>
      </trkpt>
      <trkpt lat="45.19892" lon="5.74209">
        <ele>187.695</ele>
        <time>2021-03-21T04:49:26Z</time>
      </trkpt>
      <trkpt lat="45.19911" lon="5.742">
        <ele>188.131</ele>
        <time>2021-03-21T04:49:34Z</time>
      </trkpt>
      <trkpt lat="45.19929" lon="5.74187">
        <ele>188.292</ele>
        <time>2021-03-21T04:49:42Z</time>
      </trkpt>
      <trkpt lat="45.19946" lon="5.74174">
        <ele>188.024</ele>
        <time>2021-03-21T04:49:50Z</time>
      </trkpt>
      <trkpt lat="45.19963" lon="5.74159">
        <ele>188.024</ele>
        <time>2021-03-21T04:49:58Z</time>
      </trkpt>
      <trkpt lat="45.19975" lon="5.74147">
        <ele>188.047</ele>
        <time>2021-03-21T04:50:04Z</time>
      </trkpt>
      <trkpt lat="45.19977" lon="5.74144">
        <ele>187.477</ele>
        <time>2021-03-21T04:50:05Z</time>
      </trkpt>
      <trkpt lat="45.19987" lon="5.74134">
        <ele>188.049</ele>
        <time>2021-03-21T04:50:11Z</time>
      </trkpt>
      <trkpt lat="45.20001" lon="5.74114">
        <ele>185.473</ele>
        <time>2021-03-21T04:50:19Z</time>
      </trkpt>
      <trkpt lat="45.20012" lon="5.74098">
        <ele>185.744</ele>
        <time>2021-03-21T04:50:25Z</time>
      </trkpt>
      <trkpt lat="45.20018" lon="5.74093">
        <ele>185.909</ele>
        <time>2021-03-21T04:50:29Z</time>
      </trkpt>
      <trkpt lat="45.20019" lon="5.74091">
        <ele>186.078</ele>
        <time>2021-03-21T04:50:35Z</time>
      </trkpt>
      <trkpt lat="45.20024" lon="5.74077">
        <ele>185.579</ele>
        <time>2021-03-21T04:50:39Z</time>
      </trkpt>
      <trkpt lat="45.20033" lon="5.74065">
        <ele>186.77</ele>
        <time>2021-03-21T04:50:43Z</time>
      </trkpt>
      <trkpt lat="45.20039" lon="5.7405">
        <ele>188.239</ele>
        <time>2021-03-21T04:50:48Z</time>
      </trkpt>
      <trkpt lat="45.20052" lon="5.74028">
        <ele>188.934</ele>
        <time>2021-03-21T04:50:55Z</time>
      </trkpt>
      <trkpt lat="45.20062" lon="5.74014">
        <ele>188.288</ele>
        <time>2021-03-21T04:51:00Z</time>
      </trkpt>
      <trkpt lat="45.20076" lon="5.73997">
        <ele>187.097</ele>
        <time>2021-03-21T04:51:07Z</time>
      </trkpt>
      <trkpt lat="45.20085" lon="5.73981">
        <ele>187.436</ele>
        <time>2021-03-21T04:51:12Z</time>
      </trkpt>
      <trkpt lat="45.20098" lon="5.73968">
        <ele>187.394</ele>
        <time>2021-03-21T04:51:18Z</time>
      </trkpt>
      <trkpt lat="45.20114" lon="5.73949">
        <ele>187.584</ele>
        <time>2021-03-21T04:51:26Z</time>
      </trkpt>
      <trkpt lat="45.20127" lon="5.73931">
        <ele>188.127</ele>
        <time>2021-03-21T04:51:33Z</time>
      </trkpt>
      <trkpt lat="45.2014" lon="5.73916">
        <ele>188.067</ele>
        <time>2021-03-21T04:51:39Z</time>
      </trkpt>
      <trkpt lat="45.20153" lon="5.73895">
        <ele>188.062</ele>
        <time>2021-03-21T04:51:46Z</time>
      </trkpt>
      <trkpt lat="45.20162" lon="5.73881">
        <ele>187.798</ele>
        <time>2021-03-21T04:51:51Z</time>
      </trkpt>
      <trkpt lat="45.2017" lon="5.73862">
        <ele>187.559</ele>
        <time>2021-03-21T04:51:57Z</time>
      </trkpt>
      <trkpt lat="45.20178" lon="5.73839">
        <ele>188.37</ele>
        <time>2021-03-21T04:52:04Z</time>
      </trkpt>
      <trkpt lat="45.20181" lon="5.73821">
        <ele>188.059</ele>
        <time>2021-03-21T04:52:09Z</time>
      </trkpt>
      <trkpt lat="45.20182" lon="5.73793">
        <ele>188.495</ele>
        <time>2021-03-21T04:52:16Z</time>
      </trkpt>
      <trkpt lat="45.20181" lon="5.73763">
        <ele>188.54</ele>
        <time>2021-03-21T04:52:24Z</time>
      </trkpt>
      <trkpt lat="45.2018" lon="5.73737">
        <ele>188.968</ele>
        <time>2021-03-21T04:52:32Z</time>
      </trkpt>
      <trkpt lat="45.20175" lon="5.73714">
        <ele>189.508</ele>
        <time>2021-03-21T04:52:39Z</time>
      </trkpt>
      <trkpt lat="45.20171" lon="5.73696">
        <ele>189.199</ele>
        <time>2021-03-21T04:52:44Z</time>
      </trkpt>
      <trkpt lat="45.20167" lon="5.73679">
        <ele>189.263</ele>
        <time>2021-03-21T04:52:49Z</time>
      </trkpt>
      <trkpt lat="45.20162" lon="5.73654">
        <ele>188.354</ele>
        <time>2021-03-21T04:52:56Z</time>
      </trkpt>
      <trkpt lat="45.20155" lon="5.7363">
        <ele>188.853</ele>
        <time>2021-03-21T04:53:03Z</time>
      </trkpt>
      <trkpt lat="45.20149" lon="5.73609">
        <ele>189.674</ele>
        <time>2021-03-21T04:53:10Z</time>
      </trkpt>
      <trkpt lat="45.20142" lon="5.73594">
        <ele>189.047</ele>
        <time>2021-03-21T04:53:15Z</time>
      </trkpt>
      <trkpt lat="45.20126" lon="5.73572">
        <ele>189.588</ele>
        <time>2021-03-21T04:53:23Z</time>
      </trkpt>
      <trkpt lat="45.20113" lon="5.73555">
        <ele>189.859</ele>
        <time>2021-03-21T04:53:30Z</time>
      </trkpt>
      <trkpt lat="45.20098" lon="5.73534">
        <ele>189.977</ele>
        <time>2021-03-21T04:53:38Z</time>
      </trkpt>
      <trkpt lat="45.20082" lon="5.73511">
        <ele>189.295</ele>
        <time>2021-03-21T04:53:47Z</time>
      </trkpt>
      <trkpt lat="45.20071" lon="5.73503">
        <ele>191.089</ele>
        <time>2021-03-21T04:53:52Z</time>
      </trkpt>
      <trkpt lat="45.20052" lon="5.73491">
        <ele>189.788</ele>
        <time>2021-03-21T04:54:00Z</time>
      </trkpt>
      <trkpt lat="45.20037" lon="5.73481">
        <ele>189.623</ele>
        <time>2021-03-21T04:54:06Z</time>
      </trkpt>
      <trkpt lat="45.20025" lon="5.73471">
        <ele>188.564</ele>
        <time>2021-03-21T04:54:11Z</time>
      </trkpt>
      <trkpt lat="45.2001" lon="5.73462">
        <ele>188.654</ele>
        <time>2021-03-21T04:54:17Z</time>
      </trkpt>
      <trkpt lat="45.19993" lon="5.73448">
        <ele>189.448</ele>
        <time>2021-03-21T04:54:25Z</time>
      </trkpt>
      <trkpt lat="45.19977" lon="5.73437">
        <ele>190.142</ele>
        <time>2021-03-21T04:54:33Z</time>
      </trkpt>
      <trkpt lat="45.19957" lon="5.73427">
        <ele>190.812</ele>
        <time>2021-03-21T04:54:42Z</time>
      </trkpt>
      <trkpt lat="45.1994" lon="5.73422">
        <ele>190.313</ele>
        <time>2021-03-21T04:54:49Z</time>
      </trkpt>
      <trkpt lat="45.19925" lon="5.73416">
        <ele>190.356</ele>
        <time>2021-03-21T04:54:55Z</time>
      </trkpt>
      <trkpt lat="45.19905" lon="5.73415">
        <ele>190.473</ele>
        <time>2021-03-21T04:55:02Z</time>
      </trkpt>
      <trkpt lat="45.19887" lon="5.7341">
        <ele>191.243</ele>
        <time>2021-03-21T04:55:10Z</time>
      </trkpt>
      <trkpt lat="45.1987" lon="5.73405">
        <ele>191.448</ele>
        <time>2021-03-21T04:55:17Z</time>
      </trkpt>
      <trkpt lat="45.1985" lon="5.73399">
        <ele>191.921</ele>
        <time>2021-03-21T04:55:25Z</time>
      </trkpt>
      <trkpt lat="45.19835" lon="5.73393">
        <ele>192.167</ele>
        <time>2021-03-21T04:55:32Z</time>
      </trkpt>
      <trkpt lat="45.19817" lon="5.73387">
        <ele>192.176</ele>
        <time>2021-03-21T04:55:39Z</time>
      </trkpt>
      <trkpt lat="45.19799" lon="5.73382">
        <ele>191.799</ele>
        <time>2021-03-21T04:55:46Z</time>
      </trkpt>
      <trkpt lat="45.1978" lon="5.73377">
        <ele>191.979</ele>
        <time>2021-03-21T04:55:53Z</time>
      </trkpt>
      <trkpt lat="45.19761" lon="5.73373">
        <ele>192.275</ele>
        <time>2021-03-21T04:56:00Z</time>
      </trkpt>
      <trkpt lat="45.19738" lon="5.73366">
        <ele>193.573</ele>
        <time>2021-03-21T04:56:09Z</time>
      </trkpt>
      <trkpt lat="45.19734" lon="5.73364">
        <ele>194.154</ele>
        <time>2021-03-21T04:56:11Z</time>
      </trkpt>
      <trkpt lat="45.19734" lon="5.7335">
        <ele>194.603</ele>
        <time>2021-03-21T04:56:16Z</time>
      </trkpt>
      <trkpt lat="45.19742" lon="5.73324">
        <ele>195.683</ele>
        <time>2021-03-21T04:56:24Z</time>
      </trkpt>
      <trkpt lat="45.19749" lon="5.73313">
        <ele>196.124</ele>
        <time>2021-03-21T04:56:28Z</time>
      </trkpt>
      <trkpt lat="45.19757" lon="5.73283">
        <ele>195.189</ele>
        <time>2021-03-21T04:56:37Z</time>
      </trkpt>
      <trkpt lat="45.19765" lon="5.73254">
        <ele>194.743</ele>
        <time>2021-03-21T04:56:45Z</time>
      </trkpt>
      <trkpt lat="45.19769" lon="5.7323">
        <ele>194.065</ele>
        <time>2021-03-21T04:56:51Z</time>
      </trkpt>
      <trkpt lat="45.1977" lon="5.73223">
        <ele>194.276</ele>
        <time>2021-03-21T04:56:53Z</time>
      </trkpt>
      <trkpt lat="45.19776" lon="5.73205">
        <ele>193.494</ele>
        <time>2021-03-21T04:56:59Z</time>
      </trkpt>
      <trkpt lat="45.19778" lon="5.73184">
        <ele>193.49</ele>
        <time>2021-03-21T04:57:06Z</time>
      </trkpt>
      <trkpt lat="45.19777" lon="5.73173">
        <ele>194.287</ele>
        <time>2021-03-21T04:57:10Z</time>
      </trkpt>
      <trkpt lat="45.19778" lon="5.73161">
        <ele>194.655</ele>
        <time>2021-03-21T04:57:15Z</time>
      </trkpt>
      <trkpt lat="45.19779" lon="5.73146">
        <ele>197.347</ele>
        <time>2021-03-21T04:57:21Z</time>
      </trkpt>
      <trkpt lat="45.19787" lon="5.73136">
        <ele>199.608</ele>
        <time>2021-03-21T04:57:27Z</time>
      </trkpt>
      <trkpt lat="45.19806" lon="5.73131">
        <ele>201.298</ele>
        <time>2021-03-21T04:57:35Z</time>
      </trkpt>
      <trkpt lat="45.19805" lon="5.73127">
        <ele>201.906</ele>
        <time>2021-03-21T04:57:38Z</time>
      </trkpt>
      <trkpt lat="45.19795" lon="5.73125">
        <ele>202.837</ele>
        <time>2021-03-21T04:57:43Z</time>
      </trkpt>
      <trkpt lat="45.19793" lon="5.73125">
        <ele>205.117</ele>
        <time>2021-03-21T04:57:50Z</time>
      </trkpt>
      <trkpt lat="45.19785" lon="5.73111">
        <ele>205.778</ele>
        <time>2021-03-21T04:57:55Z</time>
      </trkpt>
      <trkpt lat="45.19769" lon="5.73101">
        <ele>207.94</ele>
        <time>2021-03-21T04:58:02Z</time>
      </trkpt>
      <trkpt lat="45.19765" lon="5.73089">
        <ele>209.368</ele>
        <time>2021-03-21T04:58:07Z</time>
      </trkpt>
      <trkpt lat="45.19766" lon="5.73089">
        <ele>209.873</ele>
        <time>2021-03-21T04:58:09Z</time>
      </trkpt>
      <trkpt lat="45.19777" lon="5.7309">
        <ele>211.285</ele>
        <time>2021-03-21T04:58:16Z</time>
      </trkpt>
      <trkpt lat="45.19789" lon="5.73092">
        <ele>212.942</ele>
        <time>2021-03-21T04:58:23Z</time>
      </trkpt>
      <trkpt lat="45.19797" lon="5.73096">
        <ele>214.132</ele>
        <time>2021-03-21T04:58:30Z</time>
      </trkpt>
      <trkpt lat="45.19801" lon="5.73094">
        <ele>214.993</ele>
        <time>2021-03-21T04:58:35Z</time>
      </trkpt>
      <trkpt lat="45.1979" lon="5.73091">
        <ele>217.724</ele>
        <time>2021-03-21T04:58:44Z</time>
      </trkpt>
      <trkpt lat="45.19782" lon="5.73087">
        <ele>219.489</ele>
        <time>2021-03-21T04:58:50Z</time>
      </trkpt>
      <trkpt lat="45.19772" lon="5.7308">
        <ele>220.18</ele>
        <time>2021-03-21T04:58:57Z</time>
      </trkpt>
      <trkpt lat="45.19767" lon="5.73078">
        <ele>220.973</ele>
        <time>2021-03-21T04:59:00Z</time>
      </trkpt>
      <trkpt lat="45.19755" lon="5.73069">
        <ele>222.413</ele>
        <time>2021-03-21T04:59:07Z</time>
      </trkpt>
      <trkpt lat="45.19754" lon="5.73061">
        <ele>223.161</ele>
        <time>2021-03-21T04:59:10Z</time>
      </trkpt>
      <trkpt lat="45.19765" lon="5.73058">
        <ele>225.204</ele>
        <time>2021-03-21T04:59:18Z</time>
      </trkpt>
      <trkpt lat="45.19777" lon="5.73058">
        <ele>226.502</ele>
        <time>2021-03-21T04:59:26Z</time>
      </trkpt>
      <trkpt lat="45.19781" lon="5.73059">
        <ele>226.963</ele>
        <time>2021-03-21T04:59:29Z</time>
      </trkpt>
      <trkpt lat="45.19795" lon="5.73061">
        <ele>228.273</ele>
        <time>2021-03-21T04:59:37Z</time>
      </trkpt>
      <trkpt lat="45.19795" lon="5.73058">
        <ele>230.395</ele>
        <time>2021-03-21T04:59:42Z</time>
      </trkpt>
      <trkpt lat="45.19784" lon="5.73056">
        <ele>231.807</ele>
        <time>2021-03-21T04:59:50Z</time>
      </trkpt>
      <trkpt lat="45.19781" lon="5.73056">
        <ele>232.401</ele>
        <time>2021-03-21T04:59:52Z</time>
      </trkpt>
      <trkpt lat="45.19773" lon="5.73051">
        <ele>233.943</ele>
        <time>2021-03-21T04:59:57Z</time>
      </trkpt>
      <trkpt lat="45.19763" lon="5.73046">
        <ele>234.933</ele>
        <time>2021-03-21T05:00:04Z</time>
      </trkpt>
      <trkpt lat="45.1976" lon="5.73044">
        <ele>234.841</ele>
        <time>2021-03-21T05:00:06Z</time>
      </trkpt>
      <trkpt lat="45.1976" lon="5.73038">
        <ele>235.863</ele>
        <time>2021-03-21T05:00:09Z</time>
      </trkpt>
      <trkpt lat="45.19774" lon="5.73036">
        <ele>236.894</ele>
        <time>2021-03-21T05:00:18Z</time>
      </trkpt>
      <trkpt lat="45.19783" lon="5.73037">
        <ele>238.664</ele>
        <time>2021-03-21T05:00:25Z</time>
      </trkpt>
      <trkpt lat="45.19792" lon="5.73039">
        <ele>240.226</ele>
        <time>2021-03-21T05:00:31Z</time>
      </trkpt>
      <trkpt lat="45.198" lon="5.7304">
        <ele>241.7</ele>
        <time>2021-03-21T05:00:36Z</time>
      </trkpt>
      <trkpt lat="45.19805" lon="5.73039">
        <ele>243.448</ele>
        <time>2021-03-21T05:00:41Z</time>
      </trkpt>
      <trkpt lat="45.19793" lon="5.73037">
        <ele>245.013</ele>
        <time>2021-03-21T05:00:50Z</time>
      </trkpt>
      <trkpt lat="45.1978" lon="5.73032">
        <ele>247.184</ele>
        <time>2021-03-21T05:00:58Z</time>
      </trkpt>
      <trkpt lat="45.19767" lon="5.7302">
        <ele>248.37</ele>
        <time>2021-03-21T05:01:06Z</time>
      </trkpt>
      <trkpt lat="45.19768" lon="5.73015">
        <ele>248.96</ele>
        <time>2021-03-21T05:01:09Z</time>
      </trkpt>
      <trkpt lat="45.19782" lon="5.73014">
        <ele>250.995</ele>
        <time>2021-03-21T05:01:17Z</time>
      </trkpt>
      <trkpt lat="45.1979" lon="5.73015">
        <ele>252.046</ele>
        <time>2021-03-21T05:01:22Z</time>
      </trkpt>
      <trkpt lat="45.19801" lon="5.73022">
        <ele>252.557</ele>
        <time>2021-03-21T05:01:28Z</time>
      </trkpt>
      <trkpt lat="45.19808" lon="5.73026">
        <ele>253.611</ele>
        <time>2021-03-21T05:01:34Z</time>
      </trkpt>
      <trkpt lat="45.19809" lon="5.73023">
        <ele>254.487</ele>
        <time>2021-03-21T05:01:37Z</time>
      </trkpt>
      <trkpt lat="45.19803" lon="5.7302">
        <ele>256.361</ele>
        <time>2021-03-21T05:01:42Z</time>
      </trkpt>
      <trkpt lat="45.19797" lon="5.73017">
        <ele>256.867</ele>
        <time>2021-03-21T05:01:46Z</time>
      </trkpt>
      <trkpt lat="45.19786" lon="5.73007">
        <ele>258.786</ele>
        <time>2021-03-21T05:01:54Z</time>
      </trkpt>
      <trkpt lat="45.19777" lon="5.72998">
        <ele>260.128</ele>
        <time>2021-03-21T05:02:01Z</time>
      </trkpt>
      <trkpt lat="45.19769" lon="5.72989">
        <ele>261.542</ele>
        <time>2021-03-21T05:02:07Z</time>
      </trkpt>
      <trkpt lat="45.1976" lon="5.72977">
        <ele>262.375</ele>
        <time>2021-03-21T05:02:14Z</time>
      </trkpt>
      <trkpt lat="45.19753" lon="5.72967">
        <ele>263.402</ele>
        <time>2021-03-21T05:02:20Z</time>
      </trkpt>
      <trkpt lat="45.19744" lon="5.72948">
        <ele>265.677</ele>
        <time>2021-03-21T05:02:28Z</time>
      </trkpt>
      <trkpt lat="45.19732" lon="5.7293">
        <ele>268.69</ele>
        <time>2021-03-21T05:02:37Z</time>
      </trkpt>
      <trkpt lat="45.19725" lon="5.72917">
        <ele>269.958</ele>
        <time>2021-03-21T05:02:44Z</time>
      </trkpt>
      <trkpt lat="45.19714" lon="5.72899">
        <ele>271.221</ele>
        <time>2021-03-21T05:02:53Z</time>
      </trkpt>
      <trkpt lat="45.19703" lon="5.72881">
        <ele>273.145</ele>
        <time>2021-03-21T05:03:02Z</time>
      </trkpt>
      <trkpt lat="45.19693" lon="5.72864">
        <ele>274.688</ele>
        <time>2021-03-21T05:03:10Z</time>
      </trkpt>
      <trkpt lat="45.1969" lon="5.72856">
        <ele>275.7</ele>
        <time>2021-03-21T05:03:14Z</time>
      </trkpt>
      <trkpt lat="45.1969" lon="5.72852">
        <ele>276.797</ele>
        <time>2021-03-21T05:03:16Z</time>
      </trkpt>
      <trkpt lat="45.19694" lon="5.72854">
        <ele>277.209</ele>
        <time>2021-03-21T05:03:18Z</time>
      </trkpt>
      <trkpt lat="45.19704" lon="5.72863">
        <ele>278.218</ele>
        <time>2021-03-21T05:03:26Z</time>
      </trkpt>
      <trkpt lat="45.19716" lon="5.72868">
        <ele>279.54</ele>
        <time>2021-03-21T05:03:33Z</time>
      </trkpt>
      <trkpt lat="45.1972" lon="5.72869">
        <ele>280.174</ele>
        <time>2021-03-21T05:03:36Z</time>
      </trkpt>
      <trkpt lat="45.19728" lon="5.72874">
        <ele>281.184</ele>
        <time>2021-03-21T05:03:41Z</time>
      </trkpt>
      <trkpt lat="45.19741" lon="5.72882">
        <ele>283.225</ele>
        <time>2021-03-21T05:03:49Z</time>
      </trkpt>
      <trkpt lat="45.19749" lon="5.72886">
        <ele>284.123</ele>
        <time>2021-03-21T05:03:54Z</time>
      </trkpt>
      <trkpt lat="45.19762" lon="5.72895">
        <ele>286.621</ele>
        <time>2021-03-21T05:04:03Z</time>
      </trkpt>
      <trkpt lat="45.19764" lon="5.72896">
        <ele>286.887</ele>
        <time>2021-03-21T05:04:04Z</time>
      </trkpt>
      <trkpt lat="45.19768" lon="5.72899">
        <ele>287.254</ele>
        <time>2021-03-21T05:04:07Z</time>
      </trkpt>
      <trkpt lat="45.19781" lon="5.72907">
        <ele>289.433</ele>
        <time>2021-03-21T05:04:15Z</time>
      </trkpt>
      <trkpt lat="45.19792" lon="5.72915">
        <ele>290.479</ele>
        <time>2021-03-21T05:04:22Z</time>
      </trkpt>
      <trkpt lat="45.19795" lon="5.72916">
        <ele>291.207</ele>
        <time>2021-03-21T05:04:24Z</time>
      </trkpt>
      <trkpt lat="45.19793" lon="5.72916">
        <ele>293.193</ele>
        <time>2021-03-21T05:04:30Z</time>
      </trkpt>
      <trkpt lat="45.19792" lon="5.72916">
        <ele>293.169</ele>
        <time>2021-03-21T05:04:31Z</time>
      </trkpt>
      <trkpt lat="45.19785" lon="5.72912">
        <ele>295.41</ele>
        <time>2021-03-21T05:04:36Z</time>
      </trkpt>
      <trkpt lat="45.19777" lon="5.72902">
        <ele>296.912</ele>
        <time>2021-03-21T05:04:43Z</time>
      </trkpt>
      <trkpt lat="45.19769" lon="5.72889">
        <ele>297.942</ele>
        <time>2021-03-21T05:04:50Z</time>
      </trkpt>
      <trkpt lat="45.19761" lon="5.72877">
        <ele>299.649</ele>
        <time>2021-03-21T05:04:56Z</time>
      </trkpt>
      <trkpt lat="45.19752" lon="5.72861">
        <ele>301.814</ele>
        <time>2021-03-21T05:05:05Z</time>
      </trkpt>
      <trkpt lat="45.19749" lon="5.72857">
        <ele>302.057</ele>
        <time>2021-03-21T05:05:07Z</time>
      </trkpt>
      <trkpt lat="45.19749" lon="5.72849">
        <ele>303.478</ele>
        <time>2021-03-21T05:05:13Z</time>
      </trkpt>
      <trkpt lat="45.19758" lon="5.72854">
        <ele>304.763</ele>
        <time>2021-03-21T05:05:19Z</time>
      </trkpt>
      <trkpt lat="45.19764" lon="5.72856">
        <ele>305.083</ele>
        <time>2021-03-21T05:05:23Z</time>
      </trkpt>
      <trkpt lat="45.19771" lon="5.7286">
        <ele>305.804</ele>
        <time>2021-03-21T05:05:27Z</time>
      </trkpt>
      <trkpt lat="45.19782" lon="5.72864">
        <ele>307.761</ele>
        <time>2021-03-21T05:05:34Z</time>
      </trkpt>
      <trkpt lat="45.1979" lon="5.72867">
        <ele>309.555</ele>
        <time>2021-03-21T05:05:38Z</time>
      </trkpt>
      <trkpt lat="45.198" lon="5.72876">
        <ele>311.071</ele>
        <time>2021-03-21T05:05:45Z</time>
      </trkpt>
      <trkpt lat="45.19806" lon="5.72877">
        <ele>312.632</ele>
        <time>2021-03-21T05:05:51Z</time>
      </trkpt>
      <trkpt lat="45.19798" lon="5.72871">
        <ele>315.022</ele>
        <time>2021-03-21T05:05:58Z</time>
      </trkpt>
      <trkpt lat="45.19794" lon="5.72867">
        <ele>315.816</ele>
        <time>2021-03-21T05:06:02Z</time>
      </trkpt>
      <trkpt lat="45.19786" lon="5.72853">
        <ele>317.7</ele>
        <time>2021-03-21T05:06:09Z</time>
      </trkpt>
      <trkpt lat="45.19785" lon="5.72852">
        <ele>318.352</ele>
        <time>2021-03-21T05:06:10Z</time>
      </trkpt>
      <trkpt lat="45.19777" lon="5.72844">
        <ele>319.276</ele>
        <time>2021-03-21T05:06:16Z</time>
      </trkpt>
      <trkpt lat="45.19776" lon="5.72842">
        <ele>319.993</ele>
        <time>2021-03-21T05:06:17Z</time>
      </trkpt>
      <trkpt lat="45.19774" lon="5.72839">
        <ele>320.306</ele>
        <time>2021-03-21T05:06:19Z</time>
      </trkpt>
      <trkpt lat="45.19763" lon="5.72822">
        <ele>321.58</ele>
        <time>2021-03-21T05:06:27Z</time>
      </trkpt>
      <trkpt lat="45.19758" lon="5.72814">
        <ele>322.614</ele>
        <time>2021-03-21T05:06:31Z</time>
      </trkpt>
      <trkpt lat="45.19759" lon="5.7281">
        <ele>324.027</ele>
        <time>2021-03-21T05:06:34Z</time>
      </trkpt>
      <trkpt lat="45.19767" lon="5.72816">
        <ele>325.932</ele>
        <time>2021-03-21T05:06:40Z</time>
      </trkpt>
      <trkpt lat="45.19777" lon="5.72821">
        <ele>327.277</ele>
        <time>2021-03-21T05:06:47Z</time>
      </trkpt>
      <trkpt lat="45.19779" lon="5.72821">
        <ele>327.374</ele>
        <time>2021-03-21T05:06:48Z</time>
      </trkpt>
      <trkpt lat="45.19787" lon="5.72825">
        <ele>328.303</ele>
        <time>2021-03-21T05:06:53Z</time>
      </trkpt>
      <trkpt lat="45.198" lon="5.72834">
        <ele>331.526</ele>
        <time>2021-03-21T05:07:02Z</time>
      </trkpt>
      <trkpt lat="45.1981" lon="5.72839">
        <ele>332.322</ele>
        <time>2021-03-21T05:07:08Z</time>
      </trkpt>
      <trkpt lat="45.19814" lon="5.72843">
        <ele>332.798</ele>
        <time>2021-03-21T05:07:11Z</time>
      </trkpt>
      <trkpt lat="45.19821" lon="5.72844">
        <ele>333.545</ele>
        <time>2021-03-21T05:07:17Z</time>
      </trkpt>
      <trkpt lat="45.19815" lon="5.72839">
        <ele>334.041</ele>
        <time>2021-03-21T05:07:21Z</time>
      </trkpt>
      <trkpt lat="45.19802" lon="5.72829">
        <ele>335.556</ele>
        <time>2021-03-21T05:07:29Z</time>
      </trkpt>
      <trkpt lat="45.19795" lon="5.72817">
        <ele>336.589</ele>
        <time>2021-03-21T05:07:35Z</time>
      </trkpt>
      <trkpt lat="45.19799" lon="5.72815">
        <ele>336.895</ele>
        <time>2021-03-21T05:07:39Z</time>
      </trkpt>
      <trkpt lat="45.19811" lon="5.72822">
        <ele>339.099</ele>
        <time>2021-03-21T05:07:47Z</time>
      </trkpt>
      <trkpt lat="45.19817" lon="5.72824">
        <ele>340.391</ele>
        <time>2021-03-21T05:07:50Z</time>
      </trkpt>
      <trkpt lat="45.19827" lon="5.72832">
        <ele>342.041</ele>
        <time>2021-03-21T05:07:57Z</time>
      </trkpt>
      <trkpt lat="45.19834" lon="5.72834">
        <ele>343.191</ele>
        <time>2021-03-21T05:08:04Z</time>
      </trkpt>
      <trkpt lat="45.19826" lon="5.7283">
        <ele>344.179</ele>
        <time>2021-03-21T05:08:10Z</time>
      </trkpt>
      <trkpt lat="45.19818" lon="5.72822">
        <ele>346.567</ele>
        <time>2021-03-21T05:08:16Z</time>
      </trkpt>
      <trkpt lat="45.19821" lon="5.72816">
        <ele>347.615</ele>
        <time>2021-03-21T05:08:21Z</time>
      </trkpt>
      <trkpt lat="45.19835" lon="5.72824">
        <ele>348.436</ele>
        <time>2021-03-21T05:08:30Z</time>
      </trkpt>
      <trkpt lat="45.19843" lon="5.72829">
        <ele>349.218</ele>
        <time>2021-03-21T05:08:34Z</time>
      </trkpt>
      <trkpt lat="45.19846" lon="5.72828">
        <ele>349.824</ele>
        <time>2021-03-21T05:08:37Z</time>
      </trkpt>
      <trkpt lat="45.19833" lon="5.72816">
        <ele>352.201</ele>
        <time>2021-03-21T05:08:46Z</time>
      </trkpt>
      <trkpt lat="45.19823" lon="5.72807">
        <ele>354.417</ele>
        <time>2021-03-21T05:08:54Z</time>
      </trkpt>
      <trkpt lat="45.19812" lon="5.72799">
        <ele>355.937</ele>
        <time>2021-03-21T05:09:01Z</time>
      </trkpt>
      <trkpt lat="45.19805" lon="5.72791">
        <ele>356.901</ele>
        <time>2021-03-21T05:09:06Z</time>
      </trkpt>
      <trkpt lat="45.19802" lon="5.72789">
        <ele>357.057</ele>
        <time>2021-03-21T05:09:08Z</time>
      </trkpt>
      <trkpt lat="45.19802" lon="5.72782">
        <ele>357.696</ele>
        <time>2021-03-21T05:09:12Z</time>
      </trkpt>
      <trkpt lat="45.19806" lon="5.72782">
        <ele>358.657</ele>
        <time>2021-03-21T05:09:15Z</time>
      </trkpt>
      <trkpt lat="45.19814" lon="5.72789">
        <ele>359.968</ele>
        <time>2021-03-21T05:09:22Z</time>
      </trkpt>
      <trkpt lat="45.19826" lon="5.72796">
        <ele>361.578</ele>
        <time>2021-03-21T05:09:30Z</time>
      </trkpt>
      <trkpt lat="45.19838" lon="5.72803">
        <ele>363.559</ele>
        <time>2021-03-21T05:09:37Z</time>
      </trkpt>
      <trkpt lat="45.19842" lon="5.72802">
        <ele>364.724</ele>
        <time>2021-03-21T05:09:40Z</time>
      </trkpt>
      <trkpt lat="45.19832" lon="5.7279">
        <ele>367.572</ele>
        <time>2021-03-21T05:09:49Z</time>
      </trkpt>
      <trkpt lat="45.19821" lon="5.72777">
        <ele>369.573</ele>
        <time>2021-03-21T05:09:58Z</time>
      </trkpt>
      <trkpt lat="45.19811" lon="5.72762">
        <ele>371.404</ele>
        <time>2021-03-21T05:10:08Z</time>
      </trkpt>
      <trkpt lat="45.19804" lon="5.72751">
        <ele>373.249</ele>
        <time>2021-03-21T05:10:14Z</time>
      </trkpt>
      <trkpt lat="45.19795" lon="5.72743">
        <ele>374.664</ele>
        <time>2021-03-21T05:10:21Z</time>
      </trkpt>
      <trkpt lat="45.19798" lon="5.72737">
        <ele>374.903</ele>
        <time>2021-03-21T05:10:26Z</time>
      </trkpt>
      <trkpt lat="45.1981" lon="5.72742">
        <ele>377.388</ele>
        <time>2021-03-21T05:10:34Z</time>
      </trkpt>
      <trkpt lat="45.19818" lon="5.7275">
        <ele>379.042</ele>
        <time>2021-03-21T05:10:40Z</time>
      </trkpt>
      <trkpt lat="45.19829" lon="5.7276">
        <ele>379.586</ele>
        <time>2021-03-21T05:10:47Z</time>
      </trkpt>
      <trkpt lat="45.19841" lon="5.7277">
        <ele>380.775</ele>
        <time>2021-03-21T05:10:54Z</time>
      </trkpt>
      <trkpt lat="45.19852" lon="5.72778">
        <ele>382.353</ele>
        <time>2021-03-21T05:11:01Z</time>
      </trkpt>
      <trkpt lat="45.19854" lon="5.72779">
        <ele>382.962</ele>
        <time>2021-03-21T05:11:04Z</time>
      </trkpt>
      <trkpt lat="45.1985" lon="5.72774">
        <ele>383.204</ele>
        <time>2021-03-21T05:11:08Z</time>
      </trkpt>
      <trkpt lat="45.19851" lon="5.72769">
        <ele>385.07</ele>
        <time>2021-03-21T05:11:14Z</time>
      </trkpt>
      <trkpt lat="45.19858" lon="5.72765">
        <ele>388.753</ele>
        <time>2021-03-21T05:11:20Z</time>
      </trkpt>
      <trkpt lat="45.1986" lon="5.72763">
        <ele>390.294</ele>
        <time>2021-03-21T05:11:27Z</time>
      </trkpt>
      <trkpt lat="45.1986" lon="5.72762">
        <ele>390.486</ele>
        <time>2021-03-21T05:11:28Z</time>
      </trkpt>
      <trkpt lat="45.19861" lon="5.72755">
        <ele>391.349</ele>
        <time>2021-03-21T05:11:33Z</time>
      </trkpt>
      <trkpt lat="45.19862" lon="5.72752">
        <ele>393.018</ele>
        <time>2021-03-21T05:11:36Z</time>
      </trkpt>
      <trkpt lat="45.19864" lon="5.72743">
        <ele>396.559</ele>
        <time>2021-03-21T05:11:43Z</time>
      </trkpt>
      <trkpt lat="45.19865" lon="5.7274">
        <ele>398.218</ele>
        <time>2021-03-21T05:11:46Z</time>
      </trkpt>
      <trkpt lat="45.19868" lon="5.72725">
        <ele>400.974</ele>
        <time>2021-03-21T05:11:58Z</time>
      </trkpt>
      <trkpt lat="45.19849" lon="5.72749">
        <ele>401.46</ele>
        <time>2021-03-21T05:12:02Z</time>
      </trkpt>
      <trkpt lat="45.19849" lon="5.72754">
        <ele>403.519</ele>
        <time>2021-03-21T05:12:09Z</time>
      </trkpt>
      <trkpt lat="45.19854" lon="5.72762">
        <ele>407.151</ele>
        <time>2021-03-21T05:12:16Z</time>
      </trkpt>
      <trkpt lat="45.19854" lon="5.72762">
        <ele>407.119</ele>
        <time>2021-03-21T05:12:17Z</time>
      </trkpt>
      <trkpt lat="45.19856" lon="5.72759">
        <ele>408.311</ele>
        <time>2021-03-21T05:12:20Z</time>
      </trkpt>
      <trkpt lat="45.19857" lon="5.72751">
        <ele>409.386</ele>
        <time>2021-03-21T05:12:27Z</time>
      </trkpt>
      <trkpt lat="45.19861" lon="5.72748">
        <ele>410.362</ele>
        <time>2021-03-21T05:12:33Z</time>
      </trkpt>
      <trkpt lat="45.19858" lon="5.72752">
        <ele>412.482</ele>
        <time>2021-03-21T05:12:43Z</time>
      </trkpt>
      <trkpt lat="45.19841" lon="5.72752">
        <ele>413.533</ele>
        <time>2021-03-21T05:12:49Z</time>
      </trkpt>
      <trkpt lat="45.1984" lon="5.72748">
        <ele>413.61</ele>
        <time>2021-03-21T05:12:50Z</time>
      </trkpt>
      <trkpt lat="45.19834" lon="5.7273">
        <ele>413.048</ele>
        <time>2021-03-21T05:12:56Z</time>
      </trkpt>
      <trkpt lat="45.19828" lon="5.72723">
        <ele>412.717</ele>
        <time>2021-03-21T05:13:00Z</time>
      </trkpt>
      <trkpt lat="45.1981" lon="5.72707">
        <ele>413.132</ele>
        <time>2021-03-21T05:13:09Z</time>
      </trkpt>
      <trkpt lat="45.19795" lon="5.72693">
        <ele>412.574</ele>
        <time>2021-03-21T05:13:17Z</time>
      </trkpt>
      <trkpt lat="45.19783" lon="5.72678">
        <ele>412.879</ele>
        <time>2021-03-21T05:13:24Z</time>
      </trkpt>
      <trkpt lat="45.19777" lon="5.72683">
        <ele>412.114</ele>
        <time>2021-03-21T05:13:27Z</time>
      </trkpt>
      <trkpt lat="45.19772" lon="5.72676">
        <ele>412.277</ele>
        <time>2021-03-21T05:13:32Z</time>
      </trkpt>
      <trkpt lat="45.19773" lon="5.72666">
        <ele>412.133</ele>
        <time>2021-03-21T05:13:36Z</time>
      </trkpt>
      <trkpt lat="45.19772" lon="5.72664">
        <ele>412.921</ele>
        <time>2021-03-21T05:13:37Z</time>
      </trkpt>
      <trkpt lat="45.19758" lon="5.72645">
        <ele>412.739</ele>
        <time>2021-03-21T05:13:46Z</time>
      </trkpt>
      <trkpt lat="45.19749" lon="5.72632">
        <ele>412.693</ele>
        <time>2021-03-21T05:13:52Z</time>
      </trkpt>
      <trkpt lat="45.19739" lon="5.72633">
        <ele>413.046</ele>
        <time>2021-03-21T05:13:58Z</time>
      </trkpt>
      <trkpt lat="45.19736" lon="5.7262">
        <ele>412.806</ele>
        <time>2021-03-21T05:14:03Z</time>
      </trkpt>
      <trkpt lat="45.19743" lon="5.72612">
        <ele>412.913</ele>
        <time>2021-03-21T05:14:08Z</time>
      </trkpt>
      <trkpt lat="45.19744" lon="5.72604">
        <ele>412.893</ele>
        <time>2021-03-21T05:14:11Z</time>
      </trkpt>
      <trkpt lat="45.19744" lon="5.72576">
        <ele>412.763</ele>
        <time>2021-03-21T05:14:20Z</time>
      </trkpt>
      <trkpt lat="45.19745" lon="5.72546">
        <ele>412.628</ele>
        <time>2021-03-21T05:14:29Z</time>
      </trkpt>
      <trkpt lat="45.19745" lon="5.72539">
        <ele>412.551</ele>
        <time>2021-03-21T05:14:31Z</time>
      </trkpt>
      <trkpt lat="45.19734" lon="5.72533">
        <ele>412.339</ele>
        <time>2021-03-21T05:14:36Z</time>
      </trkpt>
      <trkpt lat="45.19733" lon="5.72513">
        <ele>412.504</ele>
        <time>2021-03-21T05:14:43Z</time>
      </trkpt>
      <trkpt lat="45.19737" lon="5.72506">
        <ele>412.914</ele>
        <time>2021-03-21T05:14:46Z</time>
      </trkpt>
      <trkpt lat="45.19745" lon="5.72509">
        <ele>413.187</ele>
        <time>2021-03-21T05:14:51Z</time>
      </trkpt>
      <trkpt lat="45.19757" lon="5.72491">
        <ele>412.689</ele>
        <time>2021-03-21T05:14:59Z</time>
      </trkpt>
      <trkpt lat="45.19767" lon="5.72475">
        <ele>412.887</ele>
        <time>2021-03-21T05:15:05Z</time>
      </trkpt>
      <trkpt lat="45.1978" lon="5.72457">
        <ele>412.044</ele>
        <time>2021-03-21T05:15:13Z</time>
      </trkpt>
      <trkpt lat="45.19785" lon="5.72446">
        <ele>412.65</ele>
        <time>2021-03-21T05:15:17Z</time>
      </trkpt>
      <trkpt lat="45.19793" lon="5.72447">
        <ele>412.497</ele>
        <time>2021-03-21T05:15:22Z</time>
      </trkpt>
      <trkpt lat="45.19792" lon="5.72451">
        <ele>412.75</ele>
        <time>2021-03-21T05:15:24Z</time>
      </trkpt>
      <trkpt lat="45.19787" lon="5.72474">
        <ele>414.332</ele>
        <time>2021-03-21T05:15:32Z</time>
      </trkpt>
      <trkpt lat="45.19782" lon="5.72493">
        <ele>415.163</ele>
        <time>2021-03-21T05:15:39Z</time>
      </trkpt>
      <trkpt lat="45.19779" lon="5.72502">
        <ele>415.745</ele>
        <time>2021-03-21T05:15:42Z</time>
      </trkpt>
      <trkpt lat="45.19776" lon="5.72507">
        <ele>415.606</ele>
        <time>2021-03-21T05:15:44Z</time>
      </trkpt>
      <trkpt lat="45.19768" lon="5.72531">
        <ele>417.575</ele>
        <time>2021-03-21T05:15:53Z</time>
      </trkpt>
      <trkpt lat="45.19768" lon="5.72533">
        <ele>416.989</ele>
        <time>2021-03-21T05:15:54Z</time>
      </trkpt>
      <trkpt lat="45.19768" lon="5.72553">
        <ele>419.03</ele>
        <time>2021-03-21T05:16:02Z</time>
      </trkpt>
      <trkpt lat="45.19769" lon="5.72571">
        <ele>420.65</ele>
        <time>2021-03-21T05:16:09Z</time>
      </trkpt>
      <trkpt lat="45.19768" lon="5.72583">
        <ele>421.696</ele>
        <time>2021-03-21T05:16:14Z</time>
      </trkpt>
      <trkpt lat="45.19771" lon="5.72587">
        <ele>422.249</ele>
        <time>2021-03-21T05:16:17Z</time>
      </trkpt>
      <trkpt lat="45.19776" lon="5.72576">
        <ele>423.103</ele>
        <time>2021-03-21T05:16:23Z</time>
      </trkpt>
      <trkpt lat="45.19776" lon="5.72574">
        <ele>423.167</ele>
        <time>2021-03-21T05:16:24Z</time>
      </trkpt>
      <trkpt lat="45.19784" lon="5.72555">
        <ele>424.952</ele>
        <time>2021-03-21T05:16:33Z</time>
      </trkpt>
      <trkpt lat="45.19793" lon="5.72539">
        <ele>426.876</ele>
        <time>2021-03-21T05:16:42Z</time>
      </trkpt>
      <trkpt lat="45.19793" lon="5.72537">
        <ele>427.453</ele>
        <time>2021-03-21T05:16:43Z</time>
      </trkpt>
      <trkpt lat="45.19792" lon="5.72542">
        <ele>428.388</ele>
        <time>2021-03-21T05:16:48Z</time>
      </trkpt>
      <trkpt lat="45.19791" lon="5.72561">
        <ele>429.9</ele>
        <time>2021-03-21T05:16:57Z</time>
      </trkpt>
      <trkpt lat="45.19791" lon="5.72575">
        <ele>431.065</ele>
        <time>2021-03-21T05:17:03Z</time>
      </trkpt>
      <trkpt lat="45.19792" lon="5.72597">
        <ele>432.768</ele>
        <time>2021-03-21T05:17:12Z</time>
      </trkpt>
      <trkpt lat="45.19796" lon="5.72618">
        <ele>434.336</ele>
        <time>2021-03-21T05:17:21Z</time>
      </trkpt>
      <trkpt lat="45.19799" lon="5.72621">
        <ele>434.791</ele>
        <time>2021-03-21T05:17:23Z</time>
      </trkpt>
      <trkpt lat="45.19806" lon="5.72634">
        <ele>435.9</ele>
        <time>2021-03-21T05:17:31Z</time>
      </trkpt>
      <trkpt lat="45.19811" lon="5.72639">
        <ele>436.536</ele>
        <time>2021-03-21T05:17:35Z</time>
      </trkpt>
      <trkpt lat="45.19817" lon="5.72644">
        <ele>437.353</ele>
        <time>2021-03-21T05:17:40Z</time>
      </trkpt>
      <trkpt lat="45.19824" lon="5.72649">
        <ele>438.076</ele>
        <time>2021-03-21T05:17:45Z</time>
      </trkpt>
      <trkpt lat="45.19838" lon="5.72665">
        <ele>440.197</ele>
        <time>2021-03-21T05:17:55Z</time>
      </trkpt>
      <trkpt lat="45.1985" lon="5.72675">
        <ele>441.781</ele>
        <time>2021-03-21T05:18:02Z</time>
      </trkpt>
      <trkpt lat="45.19852" lon="5.72675">
        <ele>442.261</ele>
        <time>2021-03-21T05:18:03Z</time>
      </trkpt>
      <trkpt lat="45.19857" lon="5.7268">
        <ele>442.807</ele>
        <time>2021-03-21T05:18:06Z</time>
      </trkpt>
      <trkpt lat="45.19861" lon="5.72683">
        <ele>443.883</ele>
        <time>2021-03-21T05:18:11Z</time>
      </trkpt>
      <trkpt lat="45.19854" lon="5.72672">
        <ele>445.496</ele>
        <time>2021-03-21T05:18:19Z</time>
      </trkpt>
      <trkpt lat="45.19852" lon="5.72668">
        <ele>446.925</ele>
        <time>2021-03-21T05:18:22Z</time>
      </trkpt>
      <trkpt lat="45.1984" lon="5.72649">
        <ele>447.977</ele>
        <time>2021-03-21T05:18:31Z</time>
      </trkpt>
      <trkpt lat="45.19832" lon="5.72633">
        <ele>448.606</ele>
        <time>2021-03-21T05:18:38Z</time>
      </trkpt>
      <trkpt lat="45.19828" lon="5.72618">
        <ele>448.921</ele>
        <time>2021-03-21T05:18:44Z</time>
      </trkpt>
      <trkpt lat="45.19827" lon="5.72609">
        <ele>450.792</ele>
        <time>2021-03-21T05:18:48Z</time>
      </trkpt>
      <trkpt lat="45.19825" lon="5.7259">
        <ele>452.23</ele>
        <time>2021-03-21T05:18:55Z</time>
      </trkpt>
      <trkpt lat="45.19826" lon="5.7257">
        <ele>453.506</ele>
        <time>2021-03-21T05:19:03Z</time>
      </trkpt>
      <trkpt lat="45.19825" lon="5.7256">
        <ele>454.43</ele>
        <time>2021-03-21T05:19:07Z</time>
      </trkpt>
      <trkpt lat="45.19823" lon="5.72533">
        <ele>455.469</ele>
        <time>2021-03-21T05:19:16Z</time>
      </trkpt>
      <trkpt lat="45.19826" lon="5.7252">
        <ele>456.402</ele>
        <time>2021-03-21T05:19:22Z</time>
      </trkpt>
      <trkpt lat="45.19832" lon="5.725">
        <ele>459.074</ele>
        <time>2021-03-21T05:19:31Z</time>
      </trkpt>
      <trkpt lat="45.19835" lon="5.72476">
        <ele>461.33</ele>
        <time>2021-03-21T05:19:41Z</time>
      </trkpt>
      <trkpt lat="45.1984" lon="5.72452">
        <ele>464.222</ele>
        <time>2021-03-21T05:19:51Z</time>
      </trkpt>
      <trkpt lat="45.19847" lon="5.72446">
        <ele>465.116</ele>
        <time>2021-03-21T05:19:56Z</time>
      </trkpt>
      <trkpt lat="45.19851" lon="5.72464">
        <ele>467.383</ele>
        <time>2021-03-21T05:20:05Z</time>
      </trkpt>
      <trkpt lat="45.19854" lon="5.72481">
        <ele>468.764</ele>
        <time>2021-03-21T05:20:12Z</time>
      </trkpt>
      <trkpt lat="45.19857" lon="5.72504">
        <ele>470.475</ele>
        <time>2021-03-21T05:20:21Z</time>
      </trkpt>
      <trkpt lat="45.19859" lon="5.72527">
        <ele>471.607</ele>
        <time>2021-03-21T05:20:30Z</time>
      </trkpt>
      <trkpt lat="45.19861" lon="5.72543">
        <ele>472.2</ele>
        <time>2021-03-21T05:20:36Z</time>
      </trkpt>
      <trkpt lat="45.19865" lon="5.7255">
        <ele>474.039</ele>
        <time>2021-03-21T05:20:42Z</time>
      </trkpt>
      <trkpt lat="45.19862" lon="5.72528">
        <ele>476.25</ele>
        <time>2021-03-21T05:20:51Z</time>
      </trkpt>
      <trkpt lat="45.19862" lon="5.72509">
        <ele>477.221</ele>
        <time>2021-03-21T05:20:58Z</time>
      </trkpt>
      <trkpt lat="45.19862" lon="5.72503">
        <ele>477.485</ele>
        <time>2021-03-21T05:21:00Z</time>
      </trkpt>
      <trkpt lat="45.19862" lon="5.72493">
        <ele>478.642</ele>
        <time>2021-03-21T05:21:06Z</time>
      </trkpt>
      <trkpt lat="45.19861" lon="5.72492">
        <ele>478.914</ele>
        <time>2021-03-21T05:21:07Z</time>
      </trkpt>
      <trkpt lat="45.19861" lon="5.72485">
        <ele>482.269</ele>
        <time>2021-03-21T05:21:14Z</time>
      </trkpt>
      <trkpt lat="45.19861" lon="5.72484">
        <ele>482.427</ele>
        <time>2021-03-21T05:21:15Z</time>
      </trkpt>
      <trkpt lat="45.19866" lon="5.72481">
        <ele>485.059</ele>
        <time>2021-03-21T05:21:21Z</time>
      </trkpt>
      <trkpt lat="45.19872" lon="5.72484">
        <ele>487.262</ele>
        <time>2021-03-21T05:21:25Z</time>
      </trkpt>
      <trkpt lat="45.19875" lon="5.72497">
        <ele>487.525</ele>
        <time>2021-03-21T05:21:29Z</time>
      </trkpt>
      <trkpt lat="45.19882" lon="5.72517">
        <ele>487.646</ele>
        <time>2021-03-21T05:21:35Z</time>
      </trkpt>
      <trkpt lat="45.19889" lon="5.72531">
        <ele>487.827</ele>
        <time>2021-03-21T05:21:40Z</time>
      </trkpt>
      <trkpt lat="45.19893" lon="5.72534">
        <ele>489.054</ele>
        <time>2021-03-21T05:21:43Z</time>
      </trkpt>
      <trkpt lat="45.19895" lon="5.72537">
        <ele>490.607</ele>
        <time>2021-03-21T05:21:46Z</time>
      </trkpt>
      <trkpt lat="45.19886" lon="5.72549">
        <ele>492.307</ele>
        <time>2021-03-21T05:21:53Z</time>
      </trkpt>
      <trkpt lat="45.19884" lon="5.7255">
        <ele>493.417</ele>
        <time>2021-03-21T05:21:54Z</time>
      </trkpt>
      <trkpt lat="45.19883" lon="5.72558">
        <ele>493.388</ele>
        <time>2021-03-21T05:21:58Z</time>
      </trkpt>
      <trkpt lat="45.19883" lon="5.72563">
        <ele>493.279</ele>
        <time>2021-03-21T05:22:00Z</time>
      </trkpt>
      <trkpt lat="45.19875" lon="5.72563">
        <ele>493.608</ele>
        <time>2021-03-21T05:22:06Z</time>
      </trkpt>
      <trkpt lat="45.19873" lon="5.72533">
        <ele>493.443</ele>
        <time>2021-03-21T05:22:16Z</time>
      </trkpt>
      <trkpt lat="45.1987" lon="5.72508">
        <ele>493.787</ele>
        <time>2021-03-21T05:22:24Z</time>
      </trkpt>
      <trkpt lat="45.19876" lon="5.72507">
        <ele>493.357</ele>
        <time>2021-03-21T05:22:29Z</time>
      </trkpt>
      <trkpt lat="45.19879" lon="5.72536">
        <ele>493.501</ele>
        <time>2021-03-21T05:22:38Z</time>
      </trkpt>
      <trkpt lat="45.19883" lon="5.72549">
        <ele>493.785</ele>
        <time>2021-03-21T05:22:44Z</time>
      </trkpt>
      <trkpt lat="45.19883" lon="5.72533">
        <ele>488.485</ele>
        <time>2021-03-21T05:22:55Z</time>
      </trkpt>
      <trkpt lat="45.19885" lon="5.72498">
        <ele>487.66</ele>
        <time>2021-03-21T05:23:05Z</time>
      </trkpt>
      <trkpt lat="45.19885" lon="5.72491">
        <ele>487.879</ele>
        <time>2021-03-21T05:23:07Z</time>
      </trkpt>
      <trkpt lat="45.19878" lon="5.72489">
        <ele>486.097</ele>
        <time>2021-03-21T05:23:13Z</time>
      </trkpt>
      <trkpt lat="45.19871" lon="5.7249">
        <ele>484.027</ele>
        <time>2021-03-21T05:23:17Z</time>
      </trkpt>
      <trkpt lat="45.19864" lon="5.72493">
        <ele>481.159</ele>
        <time>2021-03-21T05:23:24Z</time>
      </trkpt>
      <trkpt lat="45.19863" lon="5.72493">
        <ele>480.857</ele>
        <time>2021-03-21T05:23:25Z</time>
      </trkpt>
      <trkpt lat="45.1986" lon="5.72495">
        <ele>478.857</ele>
        <time>2021-03-21T05:23:28Z</time>
      </trkpt>
      <trkpt lat="45.19858" lon="5.72492">
        <ele>478.643</ele>
        <time>2021-03-21T05:23:30Z</time>
      </trkpt>
      <trkpt lat="45.19866" lon="5.72481">
        <ele>478.946</ele>
        <time>2021-03-21T05:23:36Z</time>
      </trkpt>
      <trkpt lat="45.19868" lon="5.72479">
        <ele>479.473</ele>
        <time>2021-03-21T05:23:37Z</time>
      </trkpt>
      <trkpt lat="45.1988" lon="5.72465">
        <ele>479.748</ele>
        <time>2021-03-21T05:23:44Z</time>
      </trkpt>
      <trkpt lat="45.19884" lon="5.72459">
        <ele>479.406</ele>
        <time>2021-03-21T05:23:46Z</time>
      </trkpt>
      <trkpt lat="45.19887" lon="5.72443">
        <ele>478.955</ele>
        <time>2021-03-21T05:23:52Z</time>
      </trkpt>
      <trkpt lat="45.19897" lon="5.72432">
        <ele>478.041</ele>
        <time>2021-03-21T05:23:57Z</time>
      </trkpt>
      <trkpt lat="45.19911" lon="5.72426">
        <ele>476.901</ele>
        <time>2021-03-21T05:24:03Z</time>
      </trkpt>
      <trkpt lat="45.19921" lon="5.72426">
        <ele>476.301</ele>
        <time>2021-03-21T05:24:06Z</time>
      </trkpt>
      <trkpt lat="45.19941" lon="5.72421">
        <ele>475.716</ele>
        <time>2021-03-21T05:24:13Z</time>
      </trkpt>
      <trkpt lat="45.19963" lon="5.72419">
        <ele>476.701</ele>
        <time>2021-03-21T05:24:22Z</time>
      </trkpt>
      <trkpt lat="45.1998" lon="5.72421">
        <ele>479.179</ele>
        <time>2021-03-21T05:24:30Z</time>
      </trkpt>
      <trkpt lat="45.19998" lon="5.72424">
        <ele>480.51</ele>
        <time>2021-03-21T05:24:39Z</time>
      </trkpt>
      <trkpt lat="45.20016" lon="5.72427">
        <ele>482.268</ele>
        <time>2021-03-21T05:24:48Z</time>
      </trkpt>
      <trkpt lat="45.20032" lon="5.72429">
        <ele>484.487</ele>
        <time>2021-03-21T05:24:57Z</time>
      </trkpt>
      <trkpt lat="45.20046" lon="5.72431">
        <ele>485.418</ele>
        <time>2021-03-21T05:25:05Z</time>
      </trkpt>
      <trkpt lat="45.20057" lon="5.72433">
        <ele>486.566</ele>
        <time>2021-03-21T05:25:12Z</time>
      </trkpt>
      <trkpt lat="45.2007" lon="5.72447">
        <ele>488.732</ele>
        <time>2021-03-21T05:25:20Z</time>
      </trkpt>
      <trkpt lat="45.20075" lon="5.72467">
        <ele>490.027</ele>
        <time>2021-03-21T05:25:28Z</time>
      </trkpt>
      <trkpt lat="45.20075" lon="5.72487">
        <ele>491.46</ele>
        <time>2021-03-21T05:25:35Z</time>
      </trkpt>
      <trkpt lat="45.2007" lon="5.72515">
        <ele>492.2</ele>
        <time>2021-03-21T05:25:45Z</time>
      </trkpt>
      <trkpt lat="45.20074" lon="5.72534">
        <ele>493.239</ele>
        <time>2021-03-21T05:25:52Z</time>
      </trkpt>
      <trkpt lat="45.20082" lon="5.72543">
        <ele>493.31</ele>
        <time>2021-03-21T05:25:57Z</time>
      </trkpt>
      <trkpt lat="45.20091" lon="5.72544">
        <ele>494.873</ele>
        <time>2021-03-21T05:26:03Z</time>
      </trkpt>
      <trkpt lat="45.20104" lon="5.72544">
        <ele>498.863</ele>
        <time>2021-03-21T05:26:12Z</time>
      </trkpt>
      <trkpt lat="45.20111" lon="5.72543">
        <ele>500.108</ele>
        <time>2021-03-21T05:26:18Z</time>
      </trkpt>
      <trkpt lat="45.20112" lon="5.72543">
        <ele>500.108</ele>
        <time>2021-03-21T05:26:19Z</time>
      </trkpt>
      <trkpt lat="45.20124" lon="5.72547">
        <ele>501.905</ele>
        <time>2021-03-21T05:26:27Z</time>
      </trkpt>
      <trkpt lat="45.20135" lon="5.7255">
        <ele>504.455</ele>
        <time>2021-03-21T05:26:35Z</time>
      </trkpt>
      <trkpt lat="45.20148" lon="5.72556">
        <ele>507.072</ele>
        <time>2021-03-21T05:26:45Z</time>
      </trkpt>
      <trkpt lat="45.2016" lon="5.7256">
        <ele>507.941</ele>
        <time>2021-03-21T05:26:53Z</time>
      </trkpt>
      <trkpt lat="45.20173" lon="5.72567">
        <ele>509.716</ele>
        <time>2021-03-21T05:27:02Z</time>
      </trkpt>
      <trkpt lat="45.2019" lon="5.72576">
        <ele>512.513</ele>
        <time>2021-03-21T05:27:13Z</time>
      </trkpt>
      <trkpt lat="45.20197" lon="5.7258">
        <ele>513.259</ele>
        <time>2021-03-21T05:27:19Z</time>
      </trkpt>
      <trkpt lat="45.20204" lon="5.72585">
        <ele>513.932</ele>
        <time>2021-03-21T05:27:25Z</time>
      </trkpt>
      <trkpt lat="45.2021" lon="5.72588">
        <ele>515.395</ele>
        <time>2021-03-21T05:27:30Z</time>
      </trkpt>
      <trkpt lat="45.2022" lon="5.72591">
        <ele>517.276</ele>
        <time>2021-03-21T05:27:37Z</time>
      </trkpt>
      <trkpt lat="45.2023" lon="5.72599">
        <ele>518.839</ele>
        <time>2021-03-21T05:27:45Z</time>
      </trkpt>
      <trkpt lat="45.20241" lon="5.72603">
        <ele>521.293</ele>
        <time>2021-03-21T05:27:54Z</time>
      </trkpt>
      <trkpt lat="45.20254" lon="5.72606">
        <ele>524.028</ele>
        <time>2021-03-21T05:28:03Z</time>
      </trkpt>
      <trkpt lat="45.20264" lon="5.72605">
        <ele>525.07</ele>
        <time>2021-03-21T05:28:11Z</time>
      </trkpt>
      <trkpt lat="45.20272" lon="5.72605">
        <ele>526.358</ele>
        <time>2021-03-21T05:28:17Z</time>
      </trkpt>
      <trkpt lat="45.20278" lon="5.72605">
        <ele>527.694</ele>
        <time>2021-03-21T05:28:21Z</time>
      </trkpt>
      <trkpt lat="45.20292" lon="5.72606">
        <ele>530.09</ele>
        <time>2021-03-21T05:28:31Z</time>
      </trkpt>
      <trkpt lat="45.20302" lon="5.72609">
        <ele>531.833</ele>
        <time>2021-03-21T05:28:39Z</time>
      </trkpt>
      <trkpt lat="45.2031" lon="5.72611">
        <ele>532.341</ele>
        <time>2021-03-21T05:28:45Z</time>
      </trkpt>
      <trkpt lat="45.20323" lon="5.72616">
        <ele>534.327</ele>
        <time>2021-03-21T05:28:53Z</time>
      </trkpt>
      <trkpt lat="45.20333" lon="5.72619">
        <ele>535.265</ele>
        <time>2021-03-21T05:29:00Z</time>
      </trkpt>
      <trkpt lat="45.20345" lon="5.72624">
        <ele>536.57</ele>
        <time>2021-03-21T05:29:08Z</time>
      </trkpt>
      <trkpt lat="45.20353" lon="5.7263">
        <ele>539.397</ele>
        <time>2021-03-21T05:29:16Z</time>
      </trkpt>
      <trkpt lat="45.20363" lon="5.72636">
        <ele>540.99</ele>
        <time>2021-03-21T05:29:24Z</time>
      </trkpt>
      <trkpt lat="45.20374" lon="5.72644">
        <ele>543.639</ele>
        <time>2021-03-21T05:29:33Z</time>
      </trkpt>
      <trkpt lat="45.20379" lon="5.72648">
        <ele>544.141</ele>
        <time>2021-03-21T05:29:37Z</time>
      </trkpt>
      <trkpt lat="45.20389" lon="5.72658">
        <ele>545.436</ele>
        <time>2021-03-21T05:29:45Z</time>
      </trkpt>
      <trkpt lat="45.20397" lon="5.72671">
        <ele>547.571</ele>
        <time>2021-03-21T05:29:52Z</time>
      </trkpt>
      <trkpt lat="45.20401" lon="5.72674">
        <ele>548.356</ele>
        <time>2021-03-21T05:29:55Z</time>
      </trkpt>
      <trkpt lat="45.20409" lon="5.72683">
        <ele>549.535</ele>
        <time>2021-03-21T05:30:02Z</time>
      </trkpt>
      <trkpt lat="45.20417" lon="5.72691">
        <ele>551.144</ele>
        <time>2021-03-21T05:30:10Z</time>
      </trkpt>
      <trkpt lat="45.20426" lon="5.72698">
        <ele>552.661</ele>
        <time>2021-03-21T05:30:17Z</time>
      </trkpt>
      <trkpt lat="45.20433" lon="5.72701">
        <ele>554.833</ele>
        <time>2021-03-21T05:30:22Z</time>
      </trkpt>
      <trkpt lat="45.20446" lon="5.72707">
        <ele>555.819</ele>
        <time>2021-03-21T05:30:32Z</time>
      </trkpt>
      <trkpt lat="45.20456" lon="5.72713">
        <ele>557.073</ele>
        <time>2021-03-21T05:30:40Z</time>
      </trkpt>
      <trkpt lat="45.2047" lon="5.72717">
        <ele>559.03</ele>
        <time>2021-03-21T05:30:49Z</time>
      </trkpt>
      <trkpt lat="45.2048" lon="5.72719">
        <ele>560.223</ele>
        <time>2021-03-21T05:30:56Z</time>
      </trkpt>
      <trkpt lat="45.2049" lon="5.72724">
        <ele>561.934</ele>
        <time>2021-03-21T05:31:03Z</time>
      </trkpt>
      <trkpt lat="45.20501" lon="5.7273">
        <ele>562.919</ele>
        <time>2021-03-21T05:31:10Z</time>
      </trkpt>
      <trkpt lat="45.20517" lon="5.72742">
        <ele>563.584</ele>
        <time>2021-03-21T05:31:19Z</time>
      </trkpt>
      <trkpt lat="45.20521" lon="5.7274">
        <ele>564.543</ele>
        <time>2021-03-21T05:31:24Z</time>
      </trkpt>
      <trkpt lat="45.20509" lon="5.7273">
        <ele>566.733</ele>
        <time>2021-03-21T05:31:34Z</time>
      </trkpt>
      <trkpt lat="45.20501" lon="5.72725">
        <ele>566.876</ele>
        <time>2021-03-21T05:31:40Z</time>
      </trkpt>
      <trkpt lat="45.20489" lon="5.72712">
        <ele>569.274</ele>
        <time>2021-03-21T05:31:51Z</time>
      </trkpt>
      <trkpt lat="45.20485" lon="5.72707">
        <ele>569.672</ele>
        <time>2021-03-21T05:31:54Z</time>
      </trkpt>
      <trkpt lat="45.20476" lon="5.72698">
        <ele>570.79</ele>
        <time>2021-03-21T05:32:01Z</time>
      </trkpt>
      <trkpt lat="45.20466" lon="5.72689">
        <ele>572.431</ele>
        <time>2021-03-21T05:32:08Z</time>
      </trkpt>
      <trkpt lat="45.20457" lon="5.72683">
        <ele>574.114</ele>
        <time>2021-03-21T05:32:15Z</time>
      </trkpt>
      <trkpt lat="45.20445" lon="5.72677">
        <ele>574.199</ele>
        <time>2021-03-21T05:32:23Z</time>
      </trkpt>
      <trkpt lat="45.20441" lon="5.72673">
        <ele>574.676</ele>
        <time>2021-03-21T05:32:26Z</time>
      </trkpt>
      <trkpt lat="45.20431" lon="5.72657">
        <ele>578.56</ele>
        <time>2021-03-21T05:32:37Z</time>
      </trkpt>
      <trkpt lat="45.20425" lon="5.72645">
        <ele>580.122</ele>
        <time>2021-03-21T05:32:44Z</time>
      </trkpt>
      <trkpt lat="45.2042" lon="5.72638">
        <ele>580.534</ele>
        <time>2021-03-21T05:32:49Z</time>
      </trkpt>
      <trkpt lat="45.20419" lon="5.72628">
        <ele>581.967</ele>
        <time>2021-03-21T05:32:54Z</time>
      </trkpt>
      <trkpt lat="45.2043" lon="5.72639">
        <ele>583.382</ele>
        <time>2021-03-21T05:33:03Z</time>
      </trkpt>
      <trkpt lat="45.20441" lon="5.72646">
        <ele>585.11</ele>
        <time>2021-03-21T05:33:11Z</time>
      </trkpt>
      <trkpt lat="45.20452" lon="5.72646">
        <ele>585.992</ele>
        <time>2021-03-21T05:33:18Z</time>
      </trkpt>
      <trkpt lat="45.20464" lon="5.7265">
        <ele>586.208</ele>
        <time>2021-03-21T05:33:26Z</time>
      </trkpt>
      <trkpt lat="45.20465" lon="5.7265">
        <ele>586.54</ele>
        <time>2021-03-21T05:33:27Z</time>
      </trkpt>
      <trkpt lat="45.20477" lon="5.72653">
        <ele>588.979</ele>
        <time>2021-03-21T05:33:35Z</time>
      </trkpt>
      <trkpt lat="45.20486" lon="5.72656">
        <ele>591.015</ele>
        <time>2021-03-21T05:33:42Z</time>
      </trkpt>
      <trkpt lat="45.20497" lon="5.7266">
        <ele>591.877</ele>
        <time>2021-03-21T05:33:49Z</time>
      </trkpt>
      <trkpt lat="45.205" lon="5.72665">
        <ele>592.236</ele>
        <time>2021-03-21T05:33:52Z</time>
      </trkpt>
      <trkpt lat="45.20511" lon="5.72672">
        <ele>593.966</ele>
        <time>2021-03-21T05:34:00Z</time>
      </trkpt>
      <trkpt lat="45.20515" lon="5.72674">
        <ele>593.777</ele>
        <time>2021-03-21T05:34:03Z</time>
      </trkpt>
      <trkpt lat="45.2053" lon="5.72681">
        <ele>595.097</ele>
        <time>2021-03-21T05:34:12Z</time>
      </trkpt>
      <trkpt lat="45.20535" lon="5.72684">
        <ele>596.05</ele>
        <time>2021-03-21T05:34:16Z</time>
      </trkpt>
      <trkpt lat="45.20542" lon="5.7269">
        <ele>596.712</ele>
        <time>2021-03-21T05:34:21Z</time>
      </trkpt>
      <trkpt lat="45.20554" lon="5.72696">
        <ele>598.072</ele>
        <time>2021-03-21T05:34:29Z</time>
      </trkpt>
      <trkpt lat="45.20564" lon="5.72704">
        <ele>600.583</ele>
        <time>2021-03-21T05:34:37Z</time>
      </trkpt>
      <trkpt lat="45.20574" lon="5.72711">
        <ele>602.586</ele>
        <time>2021-03-21T05:34:44Z</time>
      </trkpt>
      <trkpt lat="45.20581" lon="5.72711">
        <ele>602.941</ele>
        <time>2021-03-21T05:34:49Z</time>
      </trkpt>
      <trkpt lat="45.20583" lon="5.72708">
        <ele>604.457</ele>
        <time>2021-03-21T05:34:52Z</time>
      </trkpt>
      <trkpt lat="45.20575" lon="5.72702">
        <ele>605.366</ele>
        <time>2021-03-21T05:34:57Z</time>
      </trkpt>
      <trkpt lat="45.20562" lon="5.72689">
        <ele>605.862</ele>
        <time>2021-03-21T05:35:06Z</time>
      </trkpt>
      <trkpt lat="45.20551" lon="5.72676">
        <ele>607.013</ele>
        <time>2021-03-21T05:35:13Z</time>
      </trkpt>
      <trkpt lat="45.20546" lon="5.7267">
        <ele>607.146</ele>
        <time>2021-03-21T05:35:17Z</time>
      </trkpt>
      <trkpt lat="45.20533" lon="5.72657">
        <ele>609.085</ele>
        <time>2021-03-21T05:35:26Z</time>
      </trkpt>
      <trkpt lat="45.20523" lon="5.72643">
        <ele>609.915</ele>
        <time>2021-03-21T05:35:33Z</time>
      </trkpt>
      <trkpt lat="45.20515" lon="5.72636">
        <ele>611.306</ele>
        <time>2021-03-21T05:35:39Z</time>
      </trkpt>
      <trkpt lat="45.20505" lon="5.72629">
        <ele>612.346</ele>
        <time>2021-03-21T05:35:45Z</time>
      </trkpt>
      <trkpt lat="45.20493" lon="5.72623">
        <ele>613.88</ele>
        <time>2021-03-21T05:35:54Z</time>
      </trkpt>
      <trkpt lat="45.20483" lon="5.72615">
        <ele>615.382</ele>
        <time>2021-03-21T05:36:02Z</time>
      </trkpt>
      <trkpt lat="45.20474" lon="5.72605">
        <ele>618.101</ele>
        <time>2021-03-21T05:36:09Z</time>
      </trkpt>
      <trkpt lat="45.20467" lon="5.72592">
        <ele>619.195</ele>
        <time>2021-03-21T05:36:17Z</time>
      </trkpt>
      <trkpt lat="45.20456" lon="5.72571">
        <ele>621.034</ele>
        <time>2021-03-21T05:36:27Z</time>
      </trkpt>
      <trkpt lat="45.2045" lon="5.72558">
        <ele>622.2</ele>
        <time>2021-03-21T05:36:34Z</time>
      </trkpt>
      <trkpt lat="45.20441" lon="5.72536">
        <ele>623.21</ele>
        <time>2021-03-21T05:36:44Z</time>
      </trkpt>
      <trkpt lat="45.20439" lon="5.72518">
        <ele>623.618</ele>
        <time>2021-03-21T05:36:52Z</time>
      </trkpt>
      <trkpt lat="45.20451" lon="5.72522">
        <ele>625.307</ele>
        <time>2021-03-21T05:36:59Z</time>
      </trkpt>
      <trkpt lat="45.20464" lon="5.72539">
        <ele>627.739</ele>
        <time>2021-03-21T05:37:09Z</time>
      </trkpt>
      <trkpt lat="45.20473" lon="5.72548">
        <ele>629.327</ele>
        <time>2021-03-21T05:37:16Z</time>
      </trkpt>
      <trkpt lat="45.20485" lon="5.7256">
        <ele>630.11</ele>
        <time>2021-03-21T05:37:25Z</time>
      </trkpt>
      <trkpt lat="45.20486" lon="5.72561">
        <ele>630.513</ele>
        <time>2021-03-21T05:37:26Z</time>
      </trkpt>
      <trkpt lat="45.20491" lon="5.72558">
        <ele>632.473</ele>
        <time>2021-03-21T05:37:32Z</time>
      </trkpt>
      <trkpt lat="45.20489" lon="5.72549">
        <ele>634.345</ele>
        <time>2021-03-21T05:37:37Z</time>
      </trkpt>
      <trkpt lat="45.20485" lon="5.72535">
        <ele>635.85</ele>
        <time>2021-03-21T05:37:45Z</time>
      </trkpt>
      <trkpt lat="45.20484" lon="5.72527">
        <ele>636.831</ele>
        <time>2021-03-21T05:37:49Z</time>
      </trkpt>
      <trkpt lat="45.20486" lon="5.72515">
        <ele>637.278</ele>
        <time>2021-03-21T05:37:55Z</time>
      </trkpt>
      <trkpt lat="45.2048" lon="5.72491">
        <ele>636.943</ele>
        <time>2021-03-21T05:38:04Z</time>
      </trkpt>
      <trkpt lat="45.20479" lon="5.72488">
        <ele>637.166</ele>
        <time>2021-03-21T05:38:05Z</time>
      </trkpt>
      <trkpt lat="45.20479" lon="5.72484">
        <ele>637.313</ele>
        <time>2021-03-21T05:38:07Z</time>
      </trkpt>
      <trkpt lat="45.20479" lon="5.7248">
        <ele>637.847</ele>
        <time>2021-03-21T05:38:09Z</time>
      </trkpt>
      <trkpt lat="45.20478" lon="5.72471">
        <ele>640.027</ele>
        <time>2021-03-21T05:38:13Z</time>
      </trkpt>
      <trkpt lat="45.20477" lon="5.72469">
        <ele>640.363</ele>
        <time>2021-03-21T05:38:14Z</time>
      </trkpt>
      <trkpt lat="45.20476" lon="5.72452">
        <ele>641.505</ele>
        <time>2021-03-21T05:38:23Z</time>
      </trkpt>
      <trkpt lat="45.20471" lon="5.72437">
        <ele>642.101</ele>
        <time>2021-03-21T05:38:31Z</time>
      </trkpt>
      <trkpt lat="45.20473" lon="5.72433">
        <ele>641.532</ele>
        <time>2021-03-21T05:38:36Z</time>
      </trkpt>
      <trkpt lat="45.20476" lon="5.72434">
        <ele>641.677</ele>
        <time>2021-03-21T05:38:38Z</time>
      </trkpt>
      <trkpt lat="45.20479" lon="5.72445">
        <ele>641.517</ele>
        <time>2021-03-21T05:38:45Z</time>
      </trkpt>
      <trkpt lat="45.2048" lon="5.72457">
        <ele>641.183</ele>
        <time>2021-03-21T05:38:52Z</time>
      </trkpt>
      <trkpt lat="45.20481" lon="5.72459">
        <ele>641.155</ele>
        <time>2021-03-21T05:38:53Z</time>
      </trkpt>
      <trkpt lat="45.20483" lon="5.72478">
        <ele>637.352</ele>
        <time>2021-03-21T05:39:03Z</time>
      </trkpt>
      <trkpt lat="45.20489" lon="5.72496">
        <ele>636.827</ele>
        <time>2021-03-21T05:39:10Z</time>
      </trkpt>
      <trkpt lat="45.20494" lon="5.72518">
        <ele>638.104</ele>
        <time>2021-03-21T05:39:18Z</time>
      </trkpt>
      <trkpt lat="45.20503" lon="5.72535">
        <ele>638.733</ele>
        <time>2021-03-21T05:39:26Z</time>
      </trkpt>
      <trkpt lat="45.20511" lon="5.72552">
        <ele>638.996</ele>
        <time>2021-03-21T05:39:33Z</time>
      </trkpt>
      <trkpt lat="45.20522" lon="5.72559">
        <ele>638.641</ele>
        <time>2021-03-21T05:39:40Z</time>
      </trkpt>
      <trkpt lat="45.20533" lon="5.7256">
        <ele>636.763</ele>
        <time>2021-03-21T05:39:47Z</time>
      </trkpt>
      <trkpt lat="45.2054" lon="5.72557">
        <ele>636.014</ele>
        <time>2021-03-21T05:39:53Z</time>
      </trkpt>
      <trkpt lat="45.20554" lon="5.72559">
        <ele>637.287</ele>
        <time>2021-03-21T05:40:00Z</time>
      </trkpt>
      <trkpt lat="45.20562" lon="5.72562">
        <ele>637.66</ele>
        <time>2021-03-21T05:40:05Z</time>
      </trkpt>
      <trkpt lat="45.20574" lon="5.72569">
        <ele>638.641</ele>
        <time>2021-03-21T05:40:12Z</time>
      </trkpt>
      <trkpt lat="45.20585" lon="5.72574">
        <ele>639.607</ele>
        <time>2021-03-21T05:40:19Z</time>
      </trkpt>
      <trkpt lat="45.206" lon="5.72585">
        <ele>640.359</ele>
        <time>2021-03-21T05:40:28Z</time>
      </trkpt>
      <trkpt lat="45.20615" lon="5.72594">
        <ele>641.447</ele>
        <time>2021-03-21T05:40:36Z</time>
      </trkpt>
      <trkpt lat="45.20619" lon="5.72598">
        <ele>643.109</ele>
        <time>2021-03-21T05:40:39Z</time>
      </trkpt>
      <trkpt lat="45.2063" lon="5.72606">
        <ele>644.181</ele>
        <time>2021-03-21T05:40:48Z</time>
      </trkpt>
      <trkpt lat="45.20634" lon="5.72606">
        <ele>644.456</ele>
        <time>2021-03-21T05:40:51Z</time>
      </trkpt>
      <trkpt lat="45.20642" lon="5.72605">
        <ele>644.54</ele>
        <time>2021-03-21T05:40:56Z</time>
      </trkpt>
      <trkpt lat="45.20656" lon="5.72595">
        <ele>646.169</ele>
        <time>2021-03-21T05:41:05Z</time>
      </trkpt>
      <trkpt lat="45.20664" lon="5.72586">
        <ele>647.149</ele>
        <time>2021-03-21T05:41:12Z</time>
      </trkpt>
      <trkpt lat="45.20678" lon="5.72574">
        <ele>649.821</ele>
        <time>2021-03-21T05:41:21Z</time>
      </trkpt>
      <trkpt lat="45.20687" lon="5.7257">
        <ele>651.461</ele>
        <time>2021-03-21T05:41:28Z</time>
      </trkpt>
      <trkpt lat="45.207" lon="5.72567">
        <ele>652.858</ele>
        <time>2021-03-21T05:41:36Z</time>
      </trkpt>
      <trkpt lat="45.20705" lon="5.72571">
        <ele>653.92</ele>
        <time>2021-03-21T05:41:40Z</time>
      </trkpt>
      <trkpt lat="45.20712" lon="5.72577">
        <ele>656.349</ele>
        <time>2021-03-21T05:41:49Z</time>
      </trkpt>
      <trkpt lat="45.20719" lon="5.72578">
        <ele>658.567</ele>
        <time>2021-03-21T05:41:56Z</time>
      </trkpt>
      <trkpt lat="45.2072" lon="5.72578">
        <ele>658.87</ele>
        <time>2021-03-21T05:41:57Z</time>
      </trkpt>
      <trkpt lat="45.2073" lon="5.72584">
        <ele>661.188</ele>
        <time>2021-03-21T05:42:06Z</time>
      </trkpt>
      <trkpt lat="45.20737" lon="5.72586">
        <ele>662.644</ele>
        <time>2021-03-21T05:42:14Z</time>
      </trkpt>
      <trkpt lat="45.20738" lon="5.72587">
        <ele>663.099</ele>
        <time>2021-03-21T05:42:15Z</time>
      </trkpt>
      <trkpt lat="45.2074" lon="5.72591">
        <ele>664.054</ele>
        <time>2021-03-21T05:42:17Z</time>
      </trkpt>
      <trkpt lat="45.20744" lon="5.72601">
        <ele>666.321</ele>
        <time>2021-03-21T05:42:25Z</time>
      </trkpt>
      <trkpt lat="45.20746" lon="5.72615">
        <ele>669.225</ele>
        <time>2021-03-21T05:42:34Z</time>
      </trkpt>
      <trkpt lat="45.20751" lon="5.72614">
        <ele>670.418</ele>
        <time>2021-03-21T05:42:40Z</time>
      </trkpt>
      <trkpt lat="45.20754" lon="5.72613">
        <ele>671.415</ele>
        <time>2021-03-21T05:42:45Z</time>
      </trkpt>
      <trkpt lat="45.2076" lon="5.7261">
        <ele>673.145</ele>
        <time>2021-03-21T05:42:51Z</time>
      </trkpt>
      <trkpt lat="45.20766" lon="5.72608">
        <ele>674.54</ele>
        <time>2021-03-21T05:42:57Z</time>
      </trkpt>
      <trkpt lat="45.20771" lon="5.72613">
        <ele>676.723</ele>
        <time>2021-03-21T05:43:04Z</time>
      </trkpt>
      <trkpt lat="45.20773" lon="5.7262">
        <ele>677.731</ele>
        <time>2021-03-21T05:43:08Z</time>
      </trkpt>
      <trkpt lat="45.20773" lon="5.72634">
        <ele>680.082</ele>
        <time>2021-03-21T05:43:18Z</time>
      </trkpt>
      <trkpt lat="45.20774" lon="5.72643">
        <ele>681.935</ele>
        <time>2021-03-21T05:43:25Z</time>
      </trkpt>
      <trkpt lat="45.20778" lon="5.72645">
        <ele>684.293</ele>
        <time>2021-03-21T05:43:31Z</time>
      </trkpt>
      <trkpt lat="45.20784" lon="5.72641">
        <ele>686.179</ele>
        <time>2021-03-21T05:43:38Z</time>
      </trkpt>
      <trkpt lat="45.20789" lon="5.7264">
        <ele>687.186</ele>
        <time>2021-03-21T05:43:44Z</time>
      </trkpt>
      <trkpt lat="45.20794" lon="5.72633">
        <ele>687.905</ele>
        <time>2021-03-21T05:43:51Z</time>
      </trkpt>
      <trkpt lat="45.20794" lon="5.72627">
        <ele>688.774</ele>
        <time>2021-03-21T05:43:55Z</time>
      </trkpt>
      <trkpt lat="45.208" lon="5.72627">
        <ele>691.444</ele>
        <time>2021-03-21T05:44:02Z</time>
      </trkpt>
      <trkpt lat="45.20803" lon="5.72632">
        <ele>692.593</ele>
        <time>2021-03-21T05:44:07Z</time>
      </trkpt>
      <trkpt lat="45.20807" lon="5.72641">
        <ele>695.822</ele>
        <time>2021-03-21T05:44:17Z</time>
      </trkpt>
      <trkpt lat="45.20808" lon="5.72648">
        <ele>697.83</ele>
        <time>2021-03-21T05:44:24Z</time>
      </trkpt>
      <trkpt lat="45.20807" lon="5.72663">
        <ele>699.523</ele>
        <time>2021-03-21T05:44:32Z</time>
      </trkpt>
      <trkpt lat="45.20808" lon="5.72667">
        <ele>701.27</ele>
        <time>2021-03-21T05:44:35Z</time>
      </trkpt>
      <trkpt lat="45.20813" lon="5.72667">
        <ele>703.083</ele>
        <time>2021-03-21T05:44:41Z</time>
      </trkpt>
      <trkpt lat="45.2082" lon="5.72663">
        <ele>703.845</ele>
        <time>2021-03-21T05:44:47Z</time>
      </trkpt>
      <trkpt lat="45.20826" lon="5.72657">
        <ele>705.349</ele>
        <time>2021-03-21T05:44:54Z</time>
      </trkpt>
      <trkpt lat="45.20833" lon="5.72656">
        <ele>707.732</ele>
        <time>2021-03-21T05:45:02Z</time>
      </trkpt>
      <trkpt lat="45.20836" lon="5.72662">
        <ele>709.34</ele>
        <time>2021-03-21T05:45:08Z</time>
      </trkpt>
      <trkpt lat="45.20837" lon="5.72671">
        <ele>710.031</ele>
        <time>2021-03-21T05:45:15Z</time>
      </trkpt>
      <trkpt lat="45.20836" lon="5.72678">
        <ele>711.982</ele>
        <time>2021-03-21T05:45:21Z</time>
      </trkpt>
      <trkpt lat="45.20838" lon="5.72691">
        <ele>715.46</ele>
        <time>2021-03-21T05:45:32Z</time>
      </trkpt>
      <trkpt lat="45.20842" lon="5.72691">
        <ele>716.556</ele>
        <time>2021-03-21T05:45:38Z</time>
      </trkpt>
      <trkpt lat="45.20847" lon="5.7269">
        <ele>718.497</ele>
        <time>2021-03-21T05:45:44Z</time>
      </trkpt>
      <trkpt lat="45.20855" lon="5.72688">
        <ele>720.346</ele>
        <time>2021-03-21T05:45:53Z</time>
      </trkpt>
      <trkpt lat="45.20859" lon="5.72686">
        <ele>720.861</ele>
        <time>2021-03-21T05:45:58Z</time>
      </trkpt>
      <trkpt lat="45.20865" lon="5.72685">
        <ele>722.52</ele>
        <time>2021-03-21T05:46:02Z</time>
      </trkpt>
      <trkpt lat="45.20869" lon="5.72684">
        <ele>723.826</ele>
        <time>2021-03-21T05:46:06Z</time>
      </trkpt>
      <trkpt lat="45.20876" lon="5.7268">
        <ele>725.032</ele>
        <time>2021-03-21T05:46:12Z</time>
      </trkpt>
      <trkpt lat="45.20882" lon="5.72676">
        <ele>726.408</ele>
        <time>2021-03-21T05:46:19Z</time>
      </trkpt>
      <trkpt lat="45.20888" lon="5.72675">
        <ele>727.457</ele>
        <time>2021-03-21T05:46:24Z</time>
      </trkpt>
      <trkpt lat="45.20896" lon="5.72673">
        <ele>729.886</ele>
        <time>2021-03-21T05:46:31Z</time>
      </trkpt>
      <trkpt lat="45.20901" lon="5.72672">
        <ele>731.343</ele>
        <time>2021-03-21T05:46:35Z</time>
      </trkpt>
      <trkpt lat="45.20911" lon="5.7267">
        <ele>733.341</ele>
        <time>2021-03-21T05:46:43Z</time>
      </trkpt>
      <trkpt lat="45.20917" lon="5.72672">
        <ele>734.741</ele>
        <time>2021-03-21T05:46:49Z</time>
      </trkpt>
      <trkpt lat="45.20923" lon="5.72678">
        <ele>736.076</ele>
        <time>2021-03-21T05:46:55Z</time>
      </trkpt>
      <trkpt lat="45.2093" lon="5.72682">
        <ele>737.662</ele>
        <time>2021-03-21T05:47:01Z</time>
      </trkpt>
      <trkpt lat="45.20942" lon="5.72693">
        <ele>739.59</ele>
        <time>2021-03-21T05:47:10Z</time>
      </trkpt>
      <trkpt lat="45.20948" lon="5.72703">
        <ele>740.948</ele>
        <time>2021-03-21T05:47:17Z</time>
      </trkpt>
      <trkpt lat="45.20954" lon="5.72708">
        <ele>744.065</ele>
        <time>2021-03-21T05:47:23Z</time>
      </trkpt>
      <trkpt lat="45.20955" lon="5.72709">
        <ele>743.858</ele>
        <time>2021-03-21T05:47:24Z</time>
      </trkpt>
      <trkpt lat="45.20959" lon="5.72713">
        <ele>746.853</ele>
        <time>2021-03-21T05:47:30Z</time>
      </trkpt>
      <trkpt lat="45.2096" lon="5.72713">
        <ele>746.85</ele>
        <time>2021-03-21T05:47:31Z</time>
      </trkpt>
      <trkpt lat="45.20964" lon="5.72717">
        <ele>747.278</ele>
        <time>2021-03-21T05:47:36Z</time>
      </trkpt>
      <trkpt lat="45.20969" lon="5.72722">
        <ele>748.484</ele>
        <time>2021-03-21T05:47:44Z</time>
      </trkpt>
      <trkpt lat="45.20972" lon="5.7273">
        <ele>751.241</ele>
        <time>2021-03-21T05:47:51Z</time>
      </trkpt>
      <trkpt lat="45.20977" lon="5.72737">
        <ele>754.136</ele>
        <time>2021-03-21T05:47:59Z</time>
      </trkpt>
      <trkpt lat="45.2098" lon="5.72741">
        <ele>755.74</ele>
        <time>2021-03-21T05:48:04Z</time>
      </trkpt>
      <trkpt lat="45.20986" lon="5.72747">
        <ele>758.304</ele>
        <time>2021-03-21T05:48:11Z</time>
      </trkpt>
      <trkpt lat="45.2099" lon="5.72753">
        <ele>759.684</ele>
        <time>2021-03-21T05:48:19Z</time>
      </trkpt>
      <trkpt lat="45.20992" lon="5.72757">
        <ele>762.024</ele>
        <time>2021-03-21T05:48:25Z</time>
      </trkpt>
      <trkpt lat="45.20992" lon="5.72757">
        <ele>762.255</ele>
        <time>2021-03-21T05:48:26Z</time>
      </trkpt>
      <trkpt lat="45.20993" lon="5.72753">
        <ele>765.185</ele>
        <time>2021-03-21T05:48:35Z</time>
      </trkpt>
      <trkpt lat="45.20997" lon="5.72754">
        <ele>766.634</ele>
        <time>2021-03-21T05:48:41Z</time>
      </trkpt>
      <trkpt lat="45.21001" lon="5.72747">
        <ele>769.336</ele>
        <time>2021-03-21T05:48:51Z</time>
      </trkpt>
      <trkpt lat="45.21003" lon="5.72745">
        <ele>769.941</ele>
        <time>2021-03-21T05:48:55Z</time>
      </trkpt>
      <trkpt lat="45.21007" lon="5.72742">
        <ele>771.95</ele>
        <time>2021-03-21T05:49:02Z</time>
      </trkpt>
      <trkpt lat="45.21014" lon="5.72741">
        <ele>774.86</ele>
        <time>2021-03-21T05:49:12Z</time>
      </trkpt>
      <trkpt lat="45.21021" lon="5.72739">
        <ele>777.972</ele>
        <time>2021-03-21T05:49:23Z</time>
      </trkpt>
      <trkpt lat="45.21027" lon="5.7274">
        <ele>778.622</ele>
        <time>2021-03-21T05:49:29Z</time>
      </trkpt>
      <trkpt lat="45.21035" lon="5.72741">
        <ele>780.302</ele>
        <time>2021-03-21T05:49:36Z</time>
      </trkpt>
      <trkpt lat="45.2104" lon="5.72742">
        <ele>782.803</ele>
        <time>2021-03-21T05:49:41Z</time>
      </trkpt>
      <trkpt lat="45.21045" lon="5.72742">
        <ele>784.403</ele>
        <time>2021-03-21T05:49:48Z</time>
      </trkpt>
      <trkpt lat="45.21049" lon="5.72745">
        <ele>785.107</ele>
        <time>2021-03-21T05:49:52Z</time>
      </trkpt>
      <trkpt lat="45.21052" lon="5.72755">
        <ele>785.782</ele>
        <time>2021-03-21T05:49:57Z</time>
      </trkpt>
      <trkpt lat="45.21059" lon="5.7277">
        <ele>786.48</ele>
        <time>2021-03-21T05:50:06Z</time>
      </trkpt>
      <trkpt lat="45.2106" lon="5.72774">
        <ele>786.459</ele>
        <time>2021-03-21T05:50:08Z</time>
      </trkpt>
      <trkpt lat="45.21064" lon="5.72789">
        <ele>787.001</ele>
        <time>2021-03-21T05:50:14Z</time>
      </trkpt>
      <trkpt lat="45.21065" lon="5.72791">
        <ele>786.927</ele>
        <time>2021-03-21T05:50:15Z</time>
      </trkpt>
      <trkpt lat="45.21069" lon="5.72803">
        <ele>786.64</ele>
        <time>2021-03-21T05:50:20Z</time>
      </trkpt>
      <trkpt lat="45.21077" lon="5.72824">
        <ele>788.269</ele>
        <time>2021-03-21T05:50:29Z</time>
      </trkpt>
      <trkpt lat="45.2108" lon="5.7283">
        <ele>788.91</ele>
        <time>2021-03-21T05:50:32Z</time>
      </trkpt>
      <trkpt lat="45.21086" lon="5.72842">
        <ele>789.729</ele>
        <time>2021-03-21T05:50:39Z</time>
      </trkpt>
      <trkpt lat="45.21087" lon="5.72845">
        <ele>790.038</ele>
        <time>2021-03-21T05:50:41Z</time>
      </trkpt>
      <trkpt lat="45.21095" lon="5.72852">
        <ele>791.121</ele>
        <time>2021-03-21T05:50:47Z</time>
      </trkpt>
      <trkpt lat="45.21102" lon="5.72859">
        <ele>793.139</ele>
        <time>2021-03-21T05:50:53Z</time>
      </trkpt>
      <trkpt lat="45.21107" lon="5.72864">
        <ele>794.989</ele>
        <time>2021-03-21T05:50:58Z</time>
      </trkpt>
      <trkpt lat="45.21117" lon="5.72874">
        <ele>796.354</ele>
        <time>2021-03-21T05:51:06Z</time>
      </trkpt>
      <trkpt lat="45.21126" lon="5.7288">
        <ele>797.865</ele>
        <time>2021-03-21T05:51:13Z</time>
      </trkpt>
      <trkpt lat="45.21128" lon="5.72881">
        <ele>798.653</ele>
        <time>2021-03-21T05:51:15Z</time>
      </trkpt>
      <trkpt lat="45.21136" lon="5.72886">
        <ele>799.908</ele>
        <time>2021-03-21T05:51:22Z</time>
      </trkpt>
      <trkpt lat="45.21137" lon="5.72887">
        <ele>800.311</ele>
        <time>2021-03-21T05:51:23Z</time>
      </trkpt>
      <trkpt lat="45.21145" lon="5.72889">
        <ele>802.163</ele>
        <time>2021-03-21T05:51:30Z</time>
      </trkpt>
      <trkpt lat="45.21153" lon="5.72892">
        <ele>804.502</ele>
        <time>2021-03-21T05:51:37Z</time>
      </trkpt>
      <trkpt lat="45.2116" lon="5.72896">
        <ele>805.636</ele>
        <time>2021-03-21T05:51:42Z</time>
      </trkpt>
      <trkpt lat="45.21166" lon="5.72897">
        <ele>806.454</ele>
        <time>2021-03-21T05:51:47Z</time>
      </trkpt>
      <trkpt lat="45.21172" lon="5.729">
        <ele>807.858</ele>
        <time>2021-03-21T05:51:52Z</time>
      </trkpt>
      <trkpt lat="45.21181" lon="5.72905">
        <ele>809.163</ele>
        <time>2021-03-21T05:51:59Z</time>
      </trkpt>
      <trkpt lat="45.21189" lon="5.72912">
        <ele>810.386</ele>
        <time>2021-03-21T05:52:07Z</time>
      </trkpt>
      <trkpt lat="45.21193" lon="5.72917">
        <ele>811.494</ele>
        <time>2021-03-21T05:52:11Z</time>
      </trkpt>
      <trkpt lat="45.21203" lon="5.72929">
        <ele>813.142</ele>
        <time>2021-03-21T05:52:20Z</time>
      </trkpt>
      <trkpt lat="45.21208" lon="5.72939">
        <ele>813.935</ele>
        <time>2021-03-21T05:52:27Z</time>
      </trkpt>
      <trkpt lat="45.21211" lon="5.72943">
        <ele>815.201</ele>
        <time>2021-03-21T05:52:31Z</time>
      </trkpt>
      <trkpt lat="45.21215" lon="5.72941">
        <ele>816.563</ele>
        <time>2021-03-21T05:52:35Z</time>
      </trkpt>
      <trkpt lat="45.21209" lon="5.72932">
        <ele>819.166</ele>
        <time>2021-03-21T05:52:43Z</time>
      </trkpt>
      <trkpt lat="45.21207" lon="5.72923">
        <ele>820.879</ele>
        <time>2021-03-21T05:52:49Z</time>
      </trkpt>
      <trkpt lat="45.21207" lon="5.72918">
        <ele>821.499</ele>
        <time>2021-03-21T05:52:52Z</time>
      </trkpt>
      <trkpt lat="45.21208" lon="5.72915">
        <ele>821.583</ele>
        <time>2021-03-21T05:52:54Z</time>
      </trkpt>
      <trkpt lat="45.21218" lon="5.72919">
        <ele>823.535</ele>
        <time>2021-03-21T05:53:02Z</time>
      </trkpt>
      <trkpt lat="45.21224" lon="5.72921">
        <ele>825.572</ele>
        <time>2021-03-21T05:53:08Z</time>
      </trkpt>
      <trkpt lat="45.21225" lon="5.72922">
        <ele>826.141</ele>
        <time>2021-03-21T05:53:09Z</time>
      </trkpt>
      <trkpt lat="45.21229" lon="5.72928">
        <ele>826.444</ele>
        <time>2021-03-21T05:53:13Z</time>
      </trkpt>
      <trkpt lat="45.21234" lon="5.72933">
        <ele>827.84</ele>
        <time>2021-03-21T05:53:18Z</time>
      </trkpt>
      <trkpt lat="45.21242" lon="5.72937">
        <ele>829.566</ele>
        <time>2021-03-21T05:53:26Z</time>
      </trkpt>
      <trkpt lat="45.2125" lon="5.72938">
        <ele>831.077</ele>
        <time>2021-03-21T05:53:33Z</time>
      </trkpt>
      <trkpt lat="45.21251" lon="5.72938">
        <ele>831.208</ele>
        <time>2021-03-21T05:53:34Z</time>
      </trkpt>
      <trkpt lat="45.21254" lon="5.72939">
        <ele>832.425</ele>
        <time>2021-03-21T05:53:38Z</time>
      </trkpt>
      <trkpt lat="45.21261" lon="5.72946">
        <ele>834.495</ele>
        <time>2021-03-21T05:53:46Z</time>
      </trkpt>
      <trkpt lat="45.21267" lon="5.72951">
        <ele>835.67</ele>
        <time>2021-03-21T05:53:55Z</time>
      </trkpt>
      <trkpt lat="45.21271" lon="5.72951">
        <ele>838.035</ele>
        <time>2021-03-21T05:54:01Z</time>
      </trkpt>
      <trkpt lat="45.21276" lon="5.72956">
        <ele>839.13</ele>
        <time>2021-03-21T05:54:07Z</time>
      </trkpt>
      <trkpt lat="45.21282" lon="5.72962">
        <ele>840.831</ele>
        <time>2021-03-21T05:54:13Z</time>
      </trkpt>
      <trkpt lat="45.21283" lon="5.72964">
        <ele>841.19</ele>
        <time>2021-03-21T05:54:15Z</time>
      </trkpt>
      <trkpt lat="45.21285" lon="5.72965">
        <ele>841.385</ele>
        <time>2021-03-21T05:54:17Z</time>
      </trkpt>
      <trkpt lat="45.21295" lon="5.72973">
        <ele>843.695</ele>
        <time>2021-03-21T05:54:26Z</time>
      </trkpt>
      <trkpt lat="45.213" lon="5.72979">
        <ele>846.842</ele>
        <time>2021-03-21T05:54:34Z</time>
      </trkpt>
      <trkpt lat="45.21307" lon="5.72984">
        <ele>847.937</ele>
        <time>2021-03-21T05:54:41Z</time>
      </trkpt>
      <trkpt lat="45.21316" lon="5.72995">
        <ele>849.161</ele>
        <time>2021-03-21T05:54:50Z</time>
      </trkpt>
      <trkpt lat="45.2132" lon="5.73002">
        <ele>851.085</ele>
        <time>2021-03-21T05:54:56Z</time>
      </trkpt>
      <trkpt lat="45.21324" lon="5.73006">
        <ele>851.687</ele>
        <time>2021-03-21T05:55:00Z</time>
      </trkpt>
      <trkpt lat="45.21331" lon="5.73018">
        <ele>854.761</ele>
        <time>2021-03-21T05:55:09Z</time>
      </trkpt>
      <trkpt lat="45.21332" lon="5.73019">
        <ele>854.935</ele>
        <time>2021-03-21T05:55:10Z</time>
      </trkpt>
      <trkpt lat="45.21334" lon="5.73021">
        <ele>855.644</ele>
        <time>2021-03-21T05:55:12Z</time>
      </trkpt>
      <trkpt lat="45.21341" lon="5.7303">
        <ele>857.102</ele>
        <time>2021-03-21T05:55:20Z</time>
      </trkpt>
      <trkpt lat="45.21347" lon="5.73036">
        <ele>858.081</ele>
        <time>2021-03-21T05:55:26Z</time>
      </trkpt>
      <trkpt lat="45.21352" lon="5.73044">
        <ele>860.419</ele>
        <time>2021-03-21T05:55:35Z</time>
      </trkpt>
      <trkpt lat="45.21356" lon="5.73053">
        <ele>862.449</ele>
        <time>2021-03-21T05:55:42Z</time>
      </trkpt>
      <trkpt lat="45.21363" lon="5.7306">
        <ele>864.752</ele>
        <time>2021-03-21T05:55:50Z</time>
      </trkpt>
      <trkpt lat="45.21367" lon="5.73065">
        <ele>866.137</ele>
        <time>2021-03-21T05:55:55Z</time>
      </trkpt>
      <trkpt lat="45.21368" lon="5.73068">
        <ele>866.498</ele>
        <time>2021-03-21T05:55:57Z</time>
      </trkpt>
      <trkpt lat="45.21377" lon="5.7308">
        <ele>867.067</ele>
        <time>2021-03-21T05:56:05Z</time>
      </trkpt>
      <trkpt lat="45.2138" lon="5.73083">
        <ele>866.628</ele>
        <time>2021-03-21T05:56:07Z</time>
      </trkpt>
      <trkpt lat="45.21386" lon="5.73093">
        <ele>867.908</ele>
        <time>2021-03-21T05:56:13Z</time>
      </trkpt>
      <trkpt lat="45.21398" lon="5.7311">
        <ele>869.252</ele>
        <time>2021-03-21T05:56:23Z</time>
      </trkpt>
      <trkpt lat="45.21407" lon="5.73121">
        <ele>870.384</ele>
        <time>2021-03-21T05:56:30Z</time>
      </trkpt>
      <trkpt lat="45.21415" lon="5.73134">
        <ele>872.207</ele>
        <time>2021-03-21T05:56:38Z</time>
      </trkpt>
      <trkpt lat="45.21418" lon="5.73139">
        <ele>872.808</ele>
        <time>2021-03-21T05:56:41Z</time>
      </trkpt>
      <trkpt lat="45.21428" lon="5.73146">
        <ele>873.849</ele>
        <time>2021-03-21T05:56:50Z</time>
      </trkpt>
      <trkpt lat="45.21438" lon="5.73152">
        <ele>875.446</ele>
        <time>2021-03-21T05:56:58Z</time>
      </trkpt>
      <trkpt lat="45.21446" lon="5.73154">
        <ele>876.513</ele>
        <time>2021-03-21T05:57:04Z</time>
      </trkpt>
      <trkpt lat="45.21455" lon="5.73155">
        <ele>878.184</ele>
        <time>2021-03-21T05:57:10Z</time>
      </trkpt>
      <trkpt lat="45.21464" lon="5.73164">
        <ele>879.873</ele>
        <time>2021-03-21T05:57:18Z</time>
      </trkpt>
      <trkpt lat="45.21465" lon="5.73169">
        <ele>880.986</ele>
        <time>2021-03-21T05:57:21Z</time>
      </trkpt>
      <trkpt lat="45.21466" lon="5.73173">
        <ele>882.511</ele>
        <time>2021-03-21T05:57:24Z</time>
      </trkpt>
      <trkpt lat="45.21473" lon="5.73181">
        <ele>884.214</ele>
        <time>2021-03-21T05:57:34Z</time>
      </trkpt>
      <trkpt lat="45.21477" lon="5.73195">
        <ele>886.274</ele>
        <time>2021-03-21T05:57:43Z</time>
      </trkpt>
      <trkpt lat="45.21477" lon="5.73211">
        <ele>887.15</ele>
        <time>2021-03-21T05:57:51Z</time>
      </trkpt>
      <trkpt lat="45.21483" lon="5.73225">
        <ele>888.482</ele>
        <time>2021-03-21T05:57:58Z</time>
      </trkpt>
      <trkpt lat="45.2149" lon="5.73235">
        <ele>891.393</ele>
        <time>2021-03-21T05:58:06Z</time>
      </trkpt>
      <trkpt lat="45.21498" lon="5.73242">
        <ele>893.448</ele>
        <time>2021-03-21T05:58:14Z</time>
      </trkpt>
      <trkpt lat="45.21502" lon="5.73249">
        <ele>895.022</ele>
        <time>2021-03-21T05:58:18Z</time>
      </trkpt>
      <trkpt lat="45.21509" lon="5.73261">
        <ele>896.486</ele>
        <time>2021-03-21T05:58:26Z</time>
      </trkpt>
      <trkpt lat="45.21509" lon="5.73274">
        <ele>896.139</ele>
        <time>2021-03-21T05:58:33Z</time>
      </trkpt>
      <trkpt lat="45.21512" lon="5.73287">
        <ele>896.682</ele>
        <time>2021-03-21T05:58:39Z</time>
      </trkpt>
      <trkpt lat="45.21515" lon="5.73306">
        <ele>897.267</ele>
        <time>2021-03-21T05:58:49Z</time>
      </trkpt>
      <trkpt lat="45.21515" lon="5.73309">
        <ele>897.708</ele>
        <time>2021-03-21T05:58:51Z</time>
      </trkpt>
      <trkpt lat="45.21526" lon="5.73315">
        <ele>898.079</ele>
        <time>2021-03-21T05:58:59Z</time>
      </trkpt>
      <trkpt lat="45.21539" lon="5.73317">
        <ele>899.493</ele>
        <time>2021-03-21T05:59:07Z</time>
      </trkpt>
      <trkpt lat="45.21545" lon="5.7332">
        <ele>901.643</ele>
        <time>2021-03-21T05:59:13Z</time>
      </trkpt>
      <trkpt lat="45.21552" lon="5.73322">
        <ele>903.269</ele>
        <time>2021-03-21T05:59:19Z</time>
      </trkpt>
      <trkpt lat="45.21556" lon="5.73322">
        <ele>904.046</ele>
        <time>2021-03-21T05:59:23Z</time>
      </trkpt>
      <trkpt lat="45.21566" lon="5.73327">
        <ele>905.934</ele>
        <time>2021-03-21T05:59:32Z</time>
      </trkpt>
      <trkpt lat="45.21577" lon="5.73332">
        <ele>907.048</ele>
        <time>2021-03-21T05:59:40Z</time>
      </trkpt>
      <trkpt lat="45.21585" lon="5.73336">
        <ele>908.001</ele>
        <time>2021-03-21T05:59:46Z</time>
      </trkpt>
      <trkpt lat="45.21596" lon="5.73343">
        <ele>910.212</ele>
        <time>2021-03-21T05:59:54Z</time>
      </trkpt>
      <trkpt lat="45.21601" lon="5.73347">
        <ele>911.419</ele>
        <time>2021-03-21T05:59:58Z</time>
      </trkpt>
      <trkpt lat="45.21609" lon="5.73365">
        <ele>913.862</ele>
        <time>2021-03-21T06:00:09Z</time>
      </trkpt>
      <trkpt lat="45.21613" lon="5.73372">
        <ele>915.635</ele>
        <time>2021-03-21T06:00:16Z</time>
      </trkpt>
      <trkpt lat="45.21624" lon="5.73381">
        <ele>917.956</ele>
        <time>2021-03-21T06:00:25Z</time>
      </trkpt>
      <trkpt lat="45.21635" lon="5.7339">
        <ele>919.138</ele>
        <time>2021-03-21T06:00:34Z</time>
      </trkpt>
      <trkpt lat="45.21646" lon="5.734">
        <ele>920.098</ele>
        <time>2021-03-21T06:00:42Z</time>
      </trkpt>
      <trkpt lat="45.21655" lon="5.73417">
        <ele>921.463</ele>
        <time>2021-03-21T06:00:50Z</time>
      </trkpt>
      <trkpt lat="45.21662" lon="5.73432">
        <ele>921.901</ele>
        <time>2021-03-21T06:00:56Z</time>
      </trkpt>
      <trkpt lat="45.21667" lon="5.73456">
        <ele>923.752</ele>
        <time>2021-03-21T06:01:05Z</time>
      </trkpt>
      <trkpt lat="45.21673" lon="5.7348">
        <ele>925.123</ele>
        <time>2021-03-21T06:01:15Z</time>
      </trkpt>
      <trkpt lat="45.21675" lon="5.73481">
        <ele>926.427</ele>
        <time>2021-03-21T06:01:18Z</time>
      </trkpt>
      <trkpt lat="45.21676" lon="5.73476">
        <ele>928.12</ele>
        <time>2021-03-21T06:01:22Z</time>
      </trkpt>
      <trkpt lat="45.21675" lon="5.73471">
        <ele>929.017</ele>
        <time>2021-03-21T06:01:25Z</time>
      </trkpt>
      <trkpt lat="45.21674" lon="5.73464">
        <ele>929.958</ele>
        <time>2021-03-21T06:01:29Z</time>
      </trkpt>
      <trkpt lat="45.21674" lon="5.73444">
        <ele>931.03</ele>
        <time>2021-03-21T06:01:40Z</time>
      </trkpt>
      <trkpt lat="45.21675" lon="5.73434">
        <ele>933.233</ele>
        <time>2021-03-21T06:01:45Z</time>
      </trkpt>
      <trkpt lat="45.21674" lon="5.73421">
        <ele>935.48</ele>
        <time>2021-03-21T06:01:53Z</time>
      </trkpt>
      <trkpt lat="45.21674" lon="5.73416">
        <ele>936.432</ele>
        <time>2021-03-21T06:01:56Z</time>
      </trkpt>
      <trkpt lat="45.21671" lon="5.73404">
        <ele>938.446</ele>
        <time>2021-03-21T06:02:04Z</time>
      </trkpt>
      <trkpt lat="45.21671" lon="5.73401">
        <ele>939.863</ele>
        <time>2021-03-21T06:02:06Z</time>
      </trkpt>
      <trkpt lat="45.21671" lon="5.73389">
        <ele>941.679</ele>
        <time>2021-03-21T06:02:14Z</time>
      </trkpt>
      <trkpt lat="45.2167" lon="5.73382">
        <ele>943.223</ele>
        <time>2021-03-21T06:02:19Z</time>
      </trkpt>
      <trkpt lat="45.21669" lon="5.73374">
        <ele>944.294</ele>
        <time>2021-03-21T06:02:24Z</time>
      </trkpt>
      <trkpt lat="45.21666" lon="5.73368">
        <ele>945.564</ele>
        <time>2021-03-21T06:02:30Z</time>
      </trkpt>
      <trkpt lat="45.21661" lon="5.7336">
        <ele>947.44</ele>
        <time>2021-03-21T06:02:37Z</time>
      </trkpt>
      <trkpt lat="45.21658" lon="5.73357">
        <ele>948.479</ele>
        <time>2021-03-21T06:02:39Z</time>
      </trkpt>
      <trkpt lat="45.21654" lon="5.73351">
        <ele>949.997</ele>
        <time>2021-03-21T06:02:44Z</time>
      </trkpt>
      <trkpt lat="45.21653" lon="5.73349">
        <ele>951.32</ele>
        <time>2021-03-21T06:02:46Z</time>
      </trkpt>
      <trkpt lat="45.21648" lon="5.7334">
        <ele>952.955</ele>
        <time>2021-03-21T06:02:53Z</time>
      </trkpt>
      <trkpt lat="45.21648" lon="5.7333">
        <ele>953.035</ele>
        <time>2021-03-21T06:03:01Z</time>
      </trkpt>
      <trkpt lat="45.21646" lon="5.73323">
        <ele>953.536</ele>
        <time>2021-03-21T06:03:06Z</time>
      </trkpt>
      <trkpt lat="45.21644" lon="5.73305">
        <ele>957.004</ele>
        <time>2021-03-21T06:03:16Z</time>
      </trkpt>
      <trkpt lat="45.21641" lon="5.73292">
        <ele>959.42</ele>
        <time>2021-03-21T06:03:23Z</time>
      </trkpt>
      <trkpt lat="45.21636" lon="5.73278">
        <ele>960.639</ele>
        <time>2021-03-21T06:03:32Z</time>
      </trkpt>
      <trkpt lat="45.21628" lon="5.73263">
        <ele>962.561</ele>
        <time>2021-03-21T06:03:41Z</time>
      </trkpt>
      <trkpt lat="45.21621" lon="5.73251">
        <ele>963.569</ele>
        <time>2021-03-21T06:03:50Z</time>
      </trkpt>
      <trkpt lat="45.21616" lon="5.73244">
        <ele>966.638</ele>
        <time>2021-03-21T06:03:56Z</time>
      </trkpt>
      <trkpt lat="45.21616" lon="5.73243">
        <ele>966.913</ele>
        <time>2021-03-21T06:03:57Z</time>
      </trkpt>
      <trkpt lat="45.21612" lon="5.73237">
        <ele>968.911</ele>
        <time>2021-03-21T06:04:03Z</time>
      </trkpt>
      <trkpt lat="45.21608" lon="5.7323">
        <ele>971.105</ele>
        <time>2021-03-21T06:04:10Z</time>
      </trkpt>
      <trkpt lat="45.21605" lon="5.73224">
        <ele>972.05</ele>
        <time>2021-03-21T06:04:16Z</time>
      </trkpt>
      <trkpt lat="45.21597" lon="5.73214">
        <ele>974.087</ele>
        <time>2021-03-21T06:04:25Z</time>
      </trkpt>
      <trkpt lat="45.21591" lon="5.73203">
        <ele>975.027</ele>
        <time>2021-03-21T06:04:34Z</time>
      </trkpt>
      <trkpt lat="45.21584" lon="5.73195">
        <ele>977.126</ele>
        <time>2021-03-21T06:04:42Z</time>
      </trkpt>
      <trkpt lat="45.21574" lon="5.73188">
        <ele>979.413</ele>
        <time>2021-03-21T06:04:51Z</time>
      </trkpt>
      <trkpt lat="45.21571" lon="5.73182">
        <ele>980.466</ele>
        <time>2021-03-21T06:04:57Z</time>
      </trkpt>
      <trkpt lat="45.21569" lon="5.73175">
        <ele>981.252</ele>
        <time>2021-03-21T06:05:03Z</time>
      </trkpt>
      <trkpt lat="45.21568" lon="5.73169">
        <ele>982.61</ele>
        <time>2021-03-21T06:05:08Z</time>
      </trkpt>
      <trkpt lat="45.21569" lon="5.73157">
        <ele>984.826</ele>
        <time>2021-03-21T06:05:16Z</time>
      </trkpt>
      <trkpt lat="45.21574" lon="5.73156">
        <ele>987.548</ele>
        <time>2021-03-21T06:05:23Z</time>
      </trkpt>
      <trkpt lat="45.21573" lon="5.73149">
        <ele>989.141</ele>
        <time>2021-03-21T06:05:30Z</time>
      </trkpt>
      <trkpt lat="45.21577" lon="5.73142">
        <ele>992.026</ele>
        <time>2021-03-21T06:05:40Z</time>
      </trkpt>
      <trkpt lat="45.21579" lon="5.7314">
        <ele>994.404</ele>
        <time>2021-03-21T06:05:45Z</time>
      </trkpt>
      <trkpt lat="45.2158" lon="5.73136">
        <ele>995.281</ele>
        <time>2021-03-21T06:05:50Z</time>
      </trkpt>
      <trkpt lat="45.2158" lon="5.73129">
        <ele>997.793</ele>
        <time>2021-03-21T06:05:58Z</time>
      </trkpt>
      <trkpt lat="45.21583" lon="5.73123">
        <ele>999.261</ele>
        <time>2021-03-21T06:06:06Z</time>
      </trkpt>
      <trkpt lat="45.21586" lon="5.73116">
        <ele>1000.21</ele>
        <time>2021-03-21T06:06:13Z</time>
      </trkpt>
      <trkpt lat="45.2159" lon="5.73116">
        <ele>1000.589</ele>
        <time>2021-03-21T06:06:17Z</time>
      </trkpt>
      <trkpt lat="45.216" lon="5.73123">
        <ele>1002.391</ele>
        <time>2021-03-21T06:06:26Z</time>
      </trkpt>
      <trkpt lat="45.21609" lon="5.73127">
        <ele>1004.861</ele>
        <time>2021-03-21T06:06:34Z</time>
      </trkpt>
      <trkpt lat="45.2161" lon="5.73127">
        <ele>1005.694</ele>
        <time>2021-03-21T06:06:35Z</time>
      </trkpt>
      <trkpt lat="45.21619" lon="5.73132">
        <ele>1007.526</ele>
        <time>2021-03-21T06:06:43Z</time>
      </trkpt>
      <trkpt lat="45.21628" lon="5.73136">
        <ele>1009.372</ele>
        <time>2021-03-21T06:06:50Z</time>
      </trkpt>
      <trkpt lat="45.21634" lon="5.73136">
        <ele>1010.724</ele>
        <time>2021-03-21T06:06:56Z</time>
      </trkpt>
      <trkpt lat="45.2164" lon="5.73132">
        <ele>1012.391</ele>
        <time>2021-03-21T06:07:05Z</time>
      </trkpt>
      <trkpt lat="45.21642" lon="5.73132">
        <ele>1013.48</ele>
        <time>2021-03-21T06:07:07Z</time>
      </trkpt>
      <trkpt lat="45.21649" lon="5.73134">
        <ele>1015.477</ele>
        <time>2021-03-21T06:07:14Z</time>
      </trkpt>
      <trkpt lat="45.21659" lon="5.73135">
        <ele>1017.389</ele>
        <time>2021-03-21T06:07:25Z</time>
      </trkpt>
      <trkpt lat="45.21665" lon="5.73138">
        <ele>1018.84</ele>
        <time>2021-03-21T06:07:31Z</time>
      </trkpt>
      <trkpt lat="45.21668" lon="5.73138">
        <ele>1020.853</ele>
        <time>2021-03-21T06:07:37Z</time>
      </trkpt>
      <trkpt lat="45.21671" lon="5.7314">
        <ele>1022.525</ele>
        <time>2021-03-21T06:07:43Z</time>
      </trkpt>
      <trkpt lat="45.21675" lon="5.73145">
        <ele>1024.881</ele>
        <time>2021-03-21T06:07:50Z</time>
      </trkpt>
      <trkpt lat="45.21675" lon="5.73146">
        <ele>1025.032</ele>
        <time>2021-03-21T06:07:51Z</time>
      </trkpt>
      <trkpt lat="45.21677" lon="5.73152">
        <ele>1026.647</ele>
        <time>2021-03-21T06:07:56Z</time>
      </trkpt>
      <trkpt lat="45.21681" lon="5.7316">
        <ele>1027.776</ele>
        <time>2021-03-21T06:08:05Z</time>
      </trkpt>
      <trkpt lat="45.21685" lon="5.73167">
        <ele>1030.404</ele>
        <time>2021-03-21T06:08:12Z</time>
      </trkpt>
      <trkpt lat="45.21687" lon="5.7317">
        <ele>1031.769</ele>
        <time>2021-03-21T06:08:16Z</time>
      </trkpt>
      <trkpt lat="45.21693" lon="5.7318">
        <ele>1032.965</ele>
        <time>2021-03-21T06:08:27Z</time>
      </trkpt>
      <trkpt lat="45.21695" lon="5.73183">
        <ele>1034.029</ele>
        <time>2021-03-21T06:08:30Z</time>
      </trkpt>
      <trkpt lat="45.21702" lon="5.73194">
        <ele>1034.603</ele>
        <time>2021-03-21T06:08:40Z</time>
      </trkpt>
      <trkpt lat="45.21711" lon="5.73209">
        <ele>1034.692</ele>
        <time>2021-03-21T06:08:51Z</time>
      </trkpt>
      <trkpt lat="45.21716" lon="5.73212">
        <ele>1035.297</ele>
        <time>2021-03-21T06:08:55Z</time>
      </trkpt>
      <trkpt lat="45.21723" lon="5.7322">
        <ele>1037.805</ele>
        <time>2021-03-21T06:09:03Z</time>
      </trkpt>
      <trkpt lat="45.21725" lon="5.73217">
        <ele>1038.547</ele>
        <time>2021-03-21T06:09:08Z</time>
      </trkpt>
      <trkpt lat="45.2173" lon="5.73212">
        <ele>1040.917</ele>
        <time>2021-03-21T06:09:17Z</time>
      </trkpt>
      <trkpt lat="45.21731" lon="5.73208">
        <ele>1041.58</ele>
        <time>2021-03-21T06:09:20Z</time>
      </trkpt>
      <trkpt lat="45.2174" lon="5.73203">
        <ele>1041.465</ele>
        <time>2021-03-21T06:09:28Z</time>
      </trkpt>
      <trkpt lat="45.21747" lon="5.73201">
        <ele>1040.638</ele>
        <time>2021-03-21T06:09:36Z</time>
      </trkpt>
      <trkpt lat="45.21753" lon="5.73206">
        <ele>1039.672</ele>
        <time>2021-03-21T06:09:42Z</time>
      </trkpt>
      <trkpt lat="45.21758" lon="5.73216">
        <ele>1042.287</ele>
        <time>2021-03-21T06:09:52Z</time>
      </trkpt>
      <trkpt lat="45.21765" lon="5.73224">
        <ele>1043.782</ele>
        <time>2021-03-21T06:10:03Z</time>
      </trkpt>
      <trkpt lat="45.21767" lon="5.73229">
        <ele>1044.318</ele>
        <time>2021-03-21T06:10:08Z</time>
      </trkpt>
      <trkpt lat="45.21775" lon="5.73234">
        <ele>1043.708</ele>
        <time>2021-03-21T06:10:16Z</time>
      </trkpt>
      <trkpt lat="45.21777" lon="5.73243">
        <ele>1045.132</ele>
        <time>2021-03-21T06:10:23Z</time>
      </trkpt>
      <trkpt lat="45.2178" lon="5.73251">
        <ele>1046.45</ele>
        <time>2021-03-21T06:10:30Z</time>
      </trkpt>
      <trkpt lat="45.21782" lon="5.73259">
        <ele>1047.899</ele>
        <time>2021-03-21T06:10:37Z</time>
      </trkpt>
      <trkpt lat="45.2178" lon="5.73261">
        <ele>1047.905</ele>
        <time>2021-03-21T06:10:39Z</time>
      </trkpt>
      <trkpt lat="45.21778" lon="5.7327">
        <ele>1049.068</ele>
        <time>2021-03-21T06:10:46Z</time>
      </trkpt>
      <trkpt lat="45.21784" lon="5.73277">
        <ele>1050.668</ele>
        <time>2021-03-21T06:10:55Z</time>
      </trkpt>
      <trkpt lat="45.21793" lon="5.73284">
        <ele>1052.258</ele>
        <time>2021-03-21T06:11:04Z</time>
      </trkpt>
      <trkpt lat="45.21801" lon="5.73294">
        <ele>1053.386</ele>
        <time>2021-03-21T06:11:12Z</time>
      </trkpt>
      <trkpt lat="45.21809" lon="5.73303">
        <ele>1054.99</ele>
        <time>2021-03-21T06:11:21Z</time>
      </trkpt>
      <trkpt lat="45.21814" lon="5.73309">
        <ele>1056.779</ele>
        <time>2021-03-21T06:11:28Z</time>
      </trkpt>
      <trkpt lat="45.21823" lon="5.73315">
        <ele>1057.665</ele>
        <time>2021-03-21T06:11:37Z</time>
      </trkpt>
      <trkpt lat="45.21829" lon="5.73322">
        <ele>1059.348</ele>
        <time>2021-03-21T06:11:45Z</time>
      </trkpt>
      <trkpt lat="45.21835" lon="5.73329">
        <ele>1060.761</ele>
        <time>2021-03-21T06:11:51Z</time>
      </trkpt>
      <trkpt lat="45.21838" lon="5.73334">
        <ele>1059.842</ele>
        <time>2021-03-21T06:11:55Z</time>
      </trkpt>
      <trkpt lat="45.21841" lon="5.73337">
        <ele>1061.525</ele>
        <time>2021-03-21T06:11:58Z</time>
      </trkpt>
      <trkpt lat="45.21842" lon="5.73339">
        <ele>1061.088</ele>
        <time>2021-03-21T06:11:59Z</time>
      </trkpt>
      <trkpt lat="45.21844" lon="5.73342">
        <ele>1061.34</ele>
        <time>2021-03-21T06:12:06Z</time>
      </trkpt>
      <trkpt lat="45.21848" lon="5.73342">
        <ele>1061.368</ele>
        <time>2021-03-21T06:12:19Z</time>
      </trkpt>
      <trkpt lat="45.21847" lon="5.73343">
        <ele>1061.392</ele>
        <time>2021-03-21T06:13:05Z</time>
      </trkpt>
      <trkpt lat="45.21848" lon="5.73338">
        <ele>1061.423</ele>
        <time>2021-03-21T06:13:13Z</time>
      </trkpt>
      <trkpt lat="45.21849" lon="5.73342">
        <ele>1060.804</ele>
        <time>2021-03-21T06:13:47Z</time>
      </trkpt>
      <trkpt lat="45.21851" lon="5.73347">
        <ele>1060.557</ele>
        <time>2021-03-21T06:13:57Z</time>
      </trkpt>
      <trkpt lat="45.21854" lon="5.73349">
        <ele>1059.464</ele>
        <time>2021-03-21T06:14:01Z</time>
      </trkpt>
      <trkpt lat="45.21856" lon="5.73352">
        <ele>1058.396</ele>
        <time>2021-03-21T06:14:05Z</time>
      </trkpt>
      <trkpt lat="45.21864" lon="5.73354">
        <ele>1056.591</ele>
        <time>2021-03-21T06:14:12Z</time>
      </trkpt>
      <trkpt lat="45.21865" lon="5.73355">
        <ele>1056.155</ele>
        <time>2021-03-21T06:14:15Z</time>
      </trkpt>
      <trkpt lat="45.21874" lon="5.73364">
        <ele>1053.418</ele>
        <time>2021-03-21T06:14:22Z</time>
      </trkpt>
      <trkpt lat="45.21878" lon="5.73366">
        <ele>1052.172</ele>
        <time>2021-03-21T06:14:26Z</time>
      </trkpt>
      <trkpt lat="45.21887" lon="5.73374">
        <ele>1051.572</ele>
        <time>2021-03-21T06:14:32Z</time>
      </trkpt>
      <trkpt lat="45.21891" lon="5.73377">
        <ele>1052.437</ele>
        <time>2021-03-21T06:14:35Z</time>
      </trkpt>
      <trkpt lat="45.21899" lon="5.7338">
        <ele>1053.061</ele>
        <time>2021-03-21T06:14:41Z</time>
      </trkpt>
      <trkpt lat="45.21903" lon="5.73381">
        <ele>1053.123</ele>
        <time>2021-03-21T06:14:44Z</time>
      </trkpt>
      <trkpt lat="45.21911" lon="5.73386">
        <ele>1052.801</ele>
        <time>2021-03-21T06:14:49Z</time>
      </trkpt>
      <trkpt lat="45.2192" lon="5.73391">
        <ele>1051.582</ele>
        <time>2021-03-21T06:14:55Z</time>
      </trkpt>
      <trkpt lat="45.21928" lon="5.73408">
        <ele>1052.085</ele>
        <time>2021-03-21T06:15:03Z</time>
      </trkpt>
      <trkpt lat="45.21932" lon="5.73415">
        <ele>1052.635</ele>
        <time>2021-03-21T06:15:08Z</time>
      </trkpt>
      <trkpt lat="45.21941" lon="5.73428">
        <ele>1055.221</ele>
        <time>2021-03-21T06:15:17Z</time>
      </trkpt>
      <trkpt lat="45.21954" lon="5.73428">
        <ele>1055.41</ele>
        <time>2021-03-21T06:15:25Z</time>
      </trkpt>
      <trkpt lat="45.21967" lon="5.73428">
        <ele>1055.81</ele>
        <time>2021-03-21T06:15:31Z</time>
      </trkpt>
      <trkpt lat="45.21979" lon="5.73434">
        <ele>1057.49</ele>
        <time>2021-03-21T06:15:38Z</time>
      </trkpt>
      <trkpt lat="45.21989" lon="5.73439">
        <ele>1059.613</ele>
        <time>2021-03-21T06:15:45Z</time>
      </trkpt>
      <trkpt lat="45.22003" lon="5.7344">
        <ele>1060.401</ele>
        <time>2021-03-21T06:15:53Z</time>
      </trkpt>
      <trkpt lat="45.22009" lon="5.73442">
        <ele>1060.142</ele>
        <time>2021-03-21T06:15:56Z</time>
      </trkpt>
      <trkpt lat="45.22018" lon="5.73449">
        <ele>1059.103</ele>
        <time>2021-03-21T06:16:01Z</time>
      </trkpt>
      <trkpt lat="45.22021" lon="5.73451">
        <ele>1058.618</ele>
        <time>2021-03-21T06:16:03Z</time>
      </trkpt>
      <trkpt lat="45.2203" lon="5.73461">
        <ele>1056.308</ele>
        <time>2021-03-21T06:16:12Z</time>
      </trkpt>
      <trkpt lat="45.22031" lon="5.73461">
        <ele>1055.741</ele>
        <time>2021-03-21T06:16:13Z</time>
      </trkpt>
      <trkpt lat="45.22041" lon="5.73467">
        <ele>1054.167</ele>
        <time>2021-03-21T06:16:21Z</time>
      </trkpt>
      <trkpt lat="45.22049" lon="5.73475">
        <ele>1051.349</ele>
        <time>2021-03-21T06:16:28Z</time>
      </trkpt>
      <trkpt lat="45.2205" lon="5.73476">
        <ele>1051.133</ele>
        <time>2021-03-21T06:16:29Z</time>
      </trkpt>
      <trkpt lat="45.22057" lon="5.73479">
        <ele>1050.386</ele>
        <time>2021-03-21T06:16:33Z</time>
      </trkpt>
      <trkpt lat="45.22069" lon="5.73493">
        <ele>1048.879</ele>
        <time>2021-03-21T06:16:41Z</time>
      </trkpt>
      <trkpt lat="45.22079" lon="5.73499">
        <ele>1047.455</ele>
        <time>2021-03-21T06:16:47Z</time>
      </trkpt>
      <trkpt lat="45.2208" lon="5.735">
        <ele>1047.116</ele>
        <time>2021-03-21T06:16:48Z</time>
      </trkpt>
      <trkpt lat="45.22091" lon="5.73509">
        <ele>1045.186</ele>
        <time>2021-03-21T06:16:55Z</time>
      </trkpt>
      <trkpt lat="45.22101" lon="5.73512">
        <ele>1043.463</ele>
        <time>2021-03-21T06:17:00Z</time>
      </trkpt>
      <trkpt lat="45.2211" lon="5.73516">
        <ele>1040.51</ele>
        <time>2021-03-21T06:17:08Z</time>
      </trkpt>
      <trkpt lat="45.22115" lon="5.7352">
        <ele>1038.273</ele>
        <time>2021-03-21T06:17:16Z</time>
      </trkpt>
      <trkpt lat="45.22116" lon="5.73521">
        <ele>1037.311</ele>
        <time>2021-03-21T06:17:18Z</time>
      </trkpt>
      <trkpt lat="45.22118" lon="5.73524">
        <ele>1036.4</ele>
        <time>2021-03-21T06:17:21Z</time>
      </trkpt>
      <trkpt lat="45.22117" lon="5.73535">
        <ele>1033.717</ele>
        <time>2021-03-21T06:17:27Z</time>
      </trkpt>
      <trkpt lat="45.22118" lon="5.73536">
        <ele>1033.837</ele>
        <time>2021-03-21T06:17:28Z</time>
      </trkpt>
      <trkpt lat="45.22122" lon="5.7354">
        <ele>1031.873</ele>
        <time>2021-03-21T06:17:31Z</time>
      </trkpt>
      <trkpt lat="45.22124" lon="5.73543">
        <ele>1031.57</ele>
        <time>2021-03-21T06:17:33Z</time>
      </trkpt>
      <trkpt lat="45.22131" lon="5.73545">
        <ele>1029.907</ele>
        <time>2021-03-21T06:17:37Z</time>
      </trkpt>
      <trkpt lat="45.2214" lon="5.73549">
        <ele>1027.803</ele>
        <time>2021-03-21T06:17:44Z</time>
      </trkpt>
      <trkpt lat="45.22148" lon="5.73553">
        <ele>1024.883</ele>
        <time>2021-03-21T06:17:50Z</time>
      </trkpt>
      <trkpt lat="45.22149" lon="5.73554">
        <ele>1024.624</ele>
        <time>2021-03-21T06:17:51Z</time>
      </trkpt>
      <trkpt lat="45.2215" lon="5.73555">
        <ele>1024.044</ele>
        <time>2021-03-21T06:17:52Z</time>
      </trkpt>
      <trkpt lat="45.22157" lon="5.73559">
        <ele>1023.669</ele>
        <time>2021-03-21T06:17:58Z</time>
      </trkpt>
      <trkpt lat="45.22163" lon="5.73565">
        <ele>1022.062</ele>
        <time>2021-03-21T06:18:02Z</time>
      </trkpt>
      <trkpt lat="45.22175" lon="5.73576">
        <ele>1018.715</ele>
        <time>2021-03-21T06:18:10Z</time>
      </trkpt>
      <trkpt lat="45.22178" lon="5.7358">
        <ele>1017.965</ele>
        <time>2021-03-21T06:18:12Z</time>
      </trkpt>
      <trkpt lat="45.22186" lon="5.73589">
        <ele>1015.856</ele>
        <time>2021-03-21T06:18:17Z</time>
      </trkpt>
      <trkpt lat="45.22191" lon="5.73599">
        <ele>1014.779</ele>
        <time>2021-03-21T06:18:22Z</time>
      </trkpt>
      <trkpt lat="45.22203" lon="5.73613">
        <ele>1013.205</ele>
        <time>2021-03-21T06:18:29Z</time>
      </trkpt>
      <trkpt lat="45.22214" lon="5.73626">
        <ele>1012.386</ele>
        <time>2021-03-21T06:18:35Z</time>
      </trkpt>
      <trkpt lat="45.22222" lon="5.7363">
        <ele>1012.036</ele>
        <time>2021-03-21T06:18:38Z</time>
      </trkpt>
      <trkpt lat="45.22233" lon="5.73642">
        <ele>1010.741</ele>
        <time>2021-03-21T06:18:45Z</time>
      </trkpt>
      <trkpt lat="45.22244" lon="5.73651">
        <ele>1009.356</ele>
        <time>2021-03-21T06:18:51Z</time>
      </trkpt>
      <trkpt lat="45.22257" lon="5.73658">
        <ele>1007.944</ele>
        <time>2021-03-21T06:18:58Z</time>
      </trkpt>
      <trkpt lat="45.22266" lon="5.73658">
        <ele>1006.267</ele>
        <time>2021-03-21T06:19:03Z</time>
      </trkpt>
      <trkpt lat="45.22273" lon="5.73658">
        <ele>1005.054</ele>
        <time>2021-03-21T06:19:07Z</time>
      </trkpt>
      <trkpt lat="45.2228" lon="5.7366">
        <ele>1002.654</ele>
        <time>2021-03-21T06:19:13Z</time>
      </trkpt>
      <trkpt lat="45.22283" lon="5.73661">
        <ele>1001.639</ele>
        <time>2021-03-21T06:19:15Z</time>
      </trkpt>
      <trkpt lat="45.22285" lon="5.73662">
        <ele>1000.441</ele>
        <time>2021-03-21T06:19:17Z</time>
      </trkpt>
      <trkpt lat="45.22294" lon="5.73664">
        <ele>997.746</ele>
        <time>2021-03-21T06:19:24Z</time>
      </trkpt>
      <trkpt lat="45.22297" lon="5.73665">
        <ele>997.246</ele>
        <time>2021-03-21T06:19:26Z</time>
      </trkpt>
      <trkpt lat="45.22305" lon="5.73667">
        <ele>995.876</ele>
        <time>2021-03-21T06:19:31Z</time>
      </trkpt>
      <trkpt lat="45.22318" lon="5.73671">
        <ele>993.543</ele>
        <time>2021-03-21T06:19:38Z</time>
      </trkpt>
      <trkpt lat="45.22328" lon="5.73672">
        <ele>991.707</ele>
        <time>2021-03-21T06:19:43Z</time>
      </trkpt>
      <trkpt lat="45.22344" lon="5.73677">
        <ele>989.586</ele>
        <time>2021-03-21T06:19:50Z</time>
      </trkpt>
      <trkpt lat="45.22359" lon="5.73684">
        <ele>988.085</ele>
        <time>2021-03-21T06:19:57Z</time>
      </trkpt>
      <trkpt lat="45.22371" lon="5.73689">
        <ele>988.043</ele>
        <time>2021-03-21T06:20:02Z</time>
      </trkpt>
      <trkpt lat="45.2238" lon="5.73694">
        <ele>988.423</ele>
        <time>2021-03-21T06:20:07Z</time>
      </trkpt>
      <trkpt lat="45.22381" lon="5.73695">
        <ele>988.344</ele>
        <time>2021-03-21T06:20:08Z</time>
      </trkpt>
      <trkpt lat="45.22395" lon="5.73699">
        <ele>991.106</ele>
        <time>2021-03-21T06:20:16Z</time>
      </trkpt>
      <trkpt lat="45.22404" lon="5.73697">
        <ele>992.818</ele>
        <time>2021-03-21T06:20:20Z</time>
      </trkpt>
      <trkpt lat="45.22412" lon="5.73697">
        <ele>994.961</ele>
        <time>2021-03-21T06:20:26Z</time>
      </trkpt>
      <trkpt lat="45.22416" lon="5.73699">
        <ele>997.131</ele>
        <time>2021-03-21T06:20:31Z</time>
      </trkpt>
      <trkpt lat="45.22424" lon="5.73702">
        <ele>999.331</ele>
        <time>2021-03-21T06:20:38Z</time>
      </trkpt>
      <trkpt lat="45.22428" lon="5.73699">
        <ele>999.721</ele>
        <time>2021-03-21T06:20:44Z</time>
      </trkpt>
      <trkpt lat="45.22433" lon="5.737">
        <ele>1000.49</ele>
        <time>2021-03-21T06:20:49Z</time>
      </trkpt>
      <trkpt lat="45.22441" lon="5.73704">
        <ele>1002.298</ele>
        <time>2021-03-21T06:20:55Z</time>
      </trkpt>
      <trkpt lat="45.22451" lon="5.73704">
        <ele>1001.099</ele>
        <time>2021-03-21T06:21:01Z</time>
      </trkpt>
      <trkpt lat="45.22466" lon="5.73703">
        <ele>1003.176</ele>
        <time>2021-03-21T06:21:11Z</time>
      </trkpt>
      <trkpt lat="45.22473" lon="5.73704">
        <ele>1005.84</ele>
        <time>2021-03-21T06:21:18Z</time>
      </trkpt>
      <trkpt lat="45.22476" lon="5.73705">
        <ele>1007.311</ele>
        <time>2021-03-21T06:21:21Z</time>
      </trkpt>
      <trkpt lat="45.22481" lon="5.73701">
        <ele>1009.097</ele>
        <time>2021-03-21T06:21:26Z</time>
      </trkpt>
      <trkpt lat="45.22484" lon="5.73701">
        <ele>1010.935</ele>
        <time>2021-03-21T06:21:31Z</time>
      </trkpt>
      <trkpt lat="45.22489" lon="5.73699">
        <ele>1011.428</ele>
        <time>2021-03-21T06:21:36Z</time>
      </trkpt>
      <trkpt lat="45.22498" lon="5.73692">
        <ele>1012.98</ele>
        <time>2021-03-21T06:21:43Z</time>
      </trkpt>
      <trkpt lat="45.22508" lon="5.73691">
        <ele>1014.223</ele>
        <time>2021-03-21T06:21:48Z</time>
      </trkpt>
      <trkpt lat="45.22516" lon="5.73692">
        <ele>1016.091</ele>
        <time>2021-03-21T06:21:55Z</time>
      </trkpt>
      <trkpt lat="45.22524" lon="5.73695">
        <ele>1018.439</ele>
        <time>2021-03-21T06:22:03Z</time>
      </trkpt>
      <trkpt lat="45.22528" lon="5.73696">
        <ele>1018.869</ele>
        <time>2021-03-21T06:22:08Z</time>
      </trkpt>
      <trkpt lat="45.22542" lon="5.73699">
        <ele>1020.996</ele>
        <time>2021-03-21T06:22:17Z</time>
      </trkpt>
      <trkpt lat="45.22548" lon="5.73701">
        <ele>1022.623</ele>
        <time>2021-03-21T06:22:23Z</time>
      </trkpt>
      <trkpt lat="45.22554" lon="5.73704">
        <ele>1024.644</ele>
        <time>2021-03-21T06:22:29Z</time>
      </trkpt>
      <trkpt lat="45.22557" lon="5.73705">
        <ele>1025.736</ele>
        <time>2021-03-21T06:22:31Z</time>
      </trkpt>
      <trkpt lat="45.22562" lon="5.73709">
        <ele>1027.117</ele>
        <time>2021-03-21T06:22:36Z</time>
      </trkpt>
      <trkpt lat="45.22562" lon="5.7371">
        <ele>1027.646</ele>
        <time>2021-03-21T06:22:37Z</time>
      </trkpt>
      <trkpt lat="45.22568" lon="5.73716">
        <ele>1027.566</ele>
        <time>2021-03-21T06:22:42Z</time>
      </trkpt>
      <trkpt lat="45.2258" lon="5.73719">
        <ele>1027.725</ele>
        <time>2021-03-21T06:22:50Z</time>
      </trkpt>
      <trkpt lat="45.22588" lon="5.73723">
        <ele>1029.713</ele>
        <time>2021-03-21T06:22:56Z</time>
      </trkpt>
      <trkpt lat="45.22593" lon="5.73727">
        <ele>1031.83</ele>
        <time>2021-03-21T06:23:01Z</time>
      </trkpt>
      <trkpt lat="45.22601" lon="5.73732">
        <ele>1032.341</ele>
        <time>2021-03-21T06:23:07Z</time>
      </trkpt>
      <trkpt lat="45.22603" lon="5.73736">
        <ele>1033.634</ele>
        <time>2021-03-21T06:23:12Z</time>
      </trkpt>
      <trkpt lat="45.22609" lon="5.73737">
        <ele>1034.109</ele>
        <time>2021-03-21T06:23:15Z</time>
      </trkpt>
      <trkpt lat="45.22618" lon="5.73744">
        <ele>1036.218</ele>
        <time>2021-03-21T06:23:22Z</time>
      </trkpt>
      <trkpt lat="45.22626" lon="5.73751">
        <ele>1036.064</ele>
        <time>2021-03-21T06:23:27Z</time>
      </trkpt>
      <trkpt lat="45.22635" lon="5.73761">
        <ele>1035.609</ele>
        <time>2021-03-21T06:23:33Z</time>
      </trkpt>
      <trkpt lat="45.22641" lon="5.73768">
        <ele>1034.762</ele>
        <time>2021-03-21T06:23:38Z</time>
      </trkpt>
      <trkpt lat="45.22652" lon="5.73779">
        <ele>1036.437</ele>
        <time>2021-03-21T06:23:46Z</time>
      </trkpt>
      <trkpt lat="45.22655" lon="5.7378">
        <ele>1037.481</ele>
        <time>2021-03-21T06:23:48Z</time>
      </trkpt>
      <trkpt lat="45.22662" lon="5.73784">
        <ele>1038.777</ele>
        <time>2021-03-21T06:23:53Z</time>
      </trkpt>
      <trkpt lat="45.22674" lon="5.73797">
        <ele>1040.133</ele>
        <time>2021-03-21T06:24:01Z</time>
      </trkpt>
      <trkpt lat="45.22682" lon="5.73807">
        <ele>1040.358</ele>
        <time>2021-03-21T06:24:08Z</time>
      </trkpt>
      <trkpt lat="45.22683" lon="5.73807">
        <ele>1040.42</ele>
        <time>2021-03-21T06:24:09Z</time>
      </trkpt>
      <trkpt lat="45.22697" lon="5.73813">
        <ele>1041.49</ele>
        <time>2021-03-21T06:24:17Z</time>
      </trkpt>
      <trkpt lat="45.22705" lon="5.73816">
        <ele>1041.713</ele>
        <time>2021-03-21T06:24:22Z</time>
      </trkpt>
      <trkpt lat="45.22717" lon="5.73822">
        <ele>1041.402</ele>
        <time>2021-03-21T06:24:29Z</time>
      </trkpt>
      <trkpt lat="45.22726" lon="5.73824">
        <ele>1040.904</ele>
        <time>2021-03-21T06:24:33Z</time>
      </trkpt>
      <trkpt lat="45.22734" lon="5.73827">
        <ele>1040.919</ele>
        <time>2021-03-21T06:24:37Z</time>
      </trkpt>
      <trkpt lat="45.22741" lon="5.73832">
        <ele>1040.33</ele>
        <time>2021-03-21T06:24:41Z</time>
      </trkpt>
      <trkpt lat="45.22746" lon="5.73837">
        <ele>1040.673</ele>
        <time>2021-03-21T06:24:44Z</time>
      </trkpt>
      <trkpt lat="45.22757" lon="5.73842">
        <ele>1040.588</ele>
        <time>2021-03-21T06:24:49Z</time>
      </trkpt>
      <trkpt lat="45.22766" lon="5.7385">
        <ele>1040.933</ele>
        <time>2021-03-21T06:24:54Z</time>
      </trkpt>
      <trkpt lat="45.22779" lon="5.73856">
        <ele>1040.812</ele>
        <time>2021-03-21T06:25:01Z</time>
      </trkpt>
      <trkpt lat="45.22783" lon="5.73858">
        <ele>1040.091</ele>
        <time>2021-03-21T06:25:03Z</time>
      </trkpt>
      <trkpt lat="45.22795" lon="5.73862">
        <ele>1039.611</ele>
        <time>2021-03-21T06:25:09Z</time>
      </trkpt>
      <trkpt lat="45.22802" lon="5.73864">
        <ele>1038.304</ele>
        <time>2021-03-21T06:25:12Z</time>
      </trkpt>
      <trkpt lat="45.22809" lon="5.73867">
        <ele>1037.072</ele>
        <time>2021-03-21T06:25:16Z</time>
      </trkpt>
      <trkpt lat="45.22812" lon="5.7387">
        <ele>1036.427</ele>
        <time>2021-03-21T06:25:18Z</time>
      </trkpt>
      <trkpt lat="45.2282" lon="5.73872">
        <ele>1035.911</ele>
        <time>2021-03-21T06:25:25Z</time>
      </trkpt>
      <trkpt lat="45.22828" lon="5.73875">
        <ele>1034.72</ele>
        <time>2021-03-21T06:25:32Z</time>
      </trkpt>
      <trkpt lat="45.22836" lon="5.73878">
        <ele>1034.685</ele>
        <time>2021-03-21T06:25:42Z</time>
      </trkpt>
      <trkpt lat="45.22842" lon="5.73884">
        <ele>1034.103</ele>
        <time>2021-03-21T06:25:52Z</time>
      </trkpt>
      <trkpt lat="45.22842" lon="5.73884">
        <ele>1034.193</ele>
        <time>2021-03-21T06:25:55Z</time>
      </trkpt>
      <trkpt lat="45.22848" lon="5.73882">
        <ele>1034.412</ele>
        <time>2021-03-21T06:26:01Z</time>
      </trkpt>
      <trkpt lat="45.22854" lon="5.73884">
        <ele>1033.828</ele>
        <time>2021-03-21T06:26:08Z</time>
      </trkpt>
      <trkpt lat="45.22862" lon="5.73888">
        <ele>1033.647</ele>
        <time>2021-03-21T06:26:17Z</time>
      </trkpt>
      <trkpt lat="45.22874" lon="5.73883">
        <ele>1033.761</ele>
        <time>2021-03-21T06:26:24Z</time>
      </trkpt>
      <trkpt lat="45.22882" lon="5.73879">
        <ele>1032.109</ele>
        <time>2021-03-21T06:26:28Z</time>
      </trkpt>
      <trkpt lat="45.22884" lon="5.73877">
        <ele>1033.393</ele>
        <time>2021-03-21T06:26:30Z</time>
      </trkpt>
      <trkpt lat="45.22887" lon="5.73877">
        <ele>1032.874</ele>
        <time>2021-03-21T06:26:32Z</time>
      </trkpt>
      <trkpt lat="45.2289" lon="5.73876">
        <ele>1032.553</ele>
        <time>2021-03-21T06:26:34Z</time>
      </trkpt>
      <trkpt lat="45.22898" lon="5.73873">
        <ele>1032.944</ele>
        <time>2021-03-21T06:26:38Z</time>
      </trkpt>
      <trkpt lat="45.22914" lon="5.73871">
        <ele>1030.777</ele>
        <time>2021-03-21T06:26:46Z</time>
      </trkpt>
      <trkpt lat="45.22932" lon="5.7387">
        <ele>1029.315</ele>
        <time>2021-03-21T06:26:54Z</time>
      </trkpt>
      <trkpt lat="45.22935" lon="5.73868">
        <ele>1028.783</ele>
        <time>2021-03-21T06:27:02Z</time>
      </trkpt>
      <trkpt lat="45.22942" lon="5.73868">
        <ele>1027.45</ele>
        <time>2021-03-21T06:27:18Z</time>
      </trkpt>
      <trkpt lat="45.22943" lon="5.73877">
        <ele>1027.842</ele>
        <time>2021-03-21T06:27:23Z</time>
      </trkpt>
      <trkpt lat="45.22943" lon="5.73893">
        <ele>1022.815</ele>
        <time>2021-03-21T06:27:31Z</time>
      </trkpt>
      <trkpt lat="45.22947" lon="5.73921">
        <ele>1020.569</ele>
        <time>2021-03-21T06:27:40Z</time>
      </trkpt>
      <trkpt lat="45.22955" lon="5.73945">
        <ele>1021.866</ele>
        <time>2021-03-21T06:27:49Z</time>
      </trkpt>
      <trkpt lat="45.22969" lon="5.73962">
        <ele>1022.232</ele>
        <time>2021-03-21T06:27:57Z</time>
      </trkpt>
      <trkpt lat="45.22983" lon="5.7397">
        <ele>1021.815</ele>
        <time>2021-03-21T06:28:05Z</time>
      </trkpt>
      <trkpt lat="45.22999" lon="5.73974">
        <ele>1023.976</ele>
        <time>2021-03-21T06:28:12Z</time>
      </trkpt>
      <trkpt lat="45.23011" lon="5.73977">
        <ele>1023.629</ele>
        <time>2021-03-21T06:28:18Z</time>
      </trkpt>
      <trkpt lat="45.23021" lon="5.73981">
        <ele>1023.241</ele>
        <time>2021-03-21T06:28:23Z</time>
      </trkpt>
      <trkpt lat="45.23028" lon="5.73982">
        <ele>1024.521</ele>
        <time>2021-03-21T06:28:26Z</time>
      </trkpt>
      <trkpt lat="45.23032" lon="5.73981">
        <ele>1024.001</ele>
        <time>2021-03-21T06:28:28Z</time>
      </trkpt>
      <trkpt lat="45.23046" lon="5.73975">
        <ele>1025.151</ele>
        <time>2021-03-21T06:28:36Z</time>
      </trkpt>
      <trkpt lat="45.23058" lon="5.73969">
        <ele>1025.671</ele>
        <time>2021-03-21T06:28:43Z</time>
      </trkpt>
      <trkpt lat="45.23071" lon="5.73971">
        <ele>1027.925</ele>
        <time>2021-03-21T06:28:50Z</time>
      </trkpt>
      <trkpt lat="45.23082" lon="5.73979">
        <ele>1030.914</ele>
        <time>2021-03-21T06:28:57Z</time>
      </trkpt>
      <trkpt lat="45.23088" lon="5.73985">
        <ele>1032.008</ele>
        <time>2021-03-21T06:29:02Z</time>
      </trkpt>
      <trkpt lat="45.231" lon="5.73984">
        <ele>1032.132</ele>
        <time>2021-03-21T06:29:09Z</time>
      </trkpt>
      <trkpt lat="45.23116" lon="5.73981">
        <ele>1032.175</ele>
        <time>2021-03-21T06:29:17Z</time>
      </trkpt>
      <trkpt lat="45.23124" lon="5.73982">
        <ele>1032.411</ele>
        <time>2021-03-21T06:29:21Z</time>
      </trkpt>
      <trkpt lat="45.23132" lon="5.73984">
        <ele>1033.099</ele>
        <time>2021-03-21T06:29:25Z</time>
      </trkpt>
      <trkpt lat="45.23135" lon="5.73985">
        <ele>1032.819</ele>
        <time>2021-03-21T06:29:27Z</time>
      </trkpt>
      <trkpt lat="45.23138" lon="5.73987">
        <ele>1033.891</ele>
        <time>2021-03-21T06:29:29Z</time>
      </trkpt>
      <trkpt lat="45.23145" lon="5.7399">
        <ele>1032.985</ele>
        <time>2021-03-21T06:29:33Z</time>
      </trkpt>
      <trkpt lat="45.23165" lon="5.73998">
        <ele>1031.246</ele>
        <time>2021-03-21T06:29:42Z</time>
      </trkpt>
      <trkpt lat="45.23181" lon="5.74005">
        <ele>1029.553</ele>
        <time>2021-03-21T06:29:50Z</time>
      </trkpt>
      <trkpt lat="45.23183" lon="5.74005">
        <ele>1028.591</ele>
        <time>2021-03-21T06:29:51Z</time>
      </trkpt>
      <trkpt lat="45.23199" lon="5.74015">
        <ele>1027.326</ele>
        <time>2021-03-21T06:29:59Z</time>
      </trkpt>
      <trkpt lat="45.23201" lon="5.74017">
        <ele>1027.015</ele>
        <time>2021-03-21T06:30:00Z</time>
      </trkpt>
      <trkpt lat="45.23204" lon="5.74021">
        <ele>1027.16</ele>
        <time>2021-03-21T06:30:02Z</time>
      </trkpt>
      <trkpt lat="45.23219" lon="5.74031">
        <ele>1027.176</ele>
        <time>2021-03-21T06:30:09Z</time>
      </trkpt>
      <trkpt lat="45.23223" lon="5.74046">
        <ele>1028.311</ele>
        <time>2021-03-21T06:30:15Z</time>
      </trkpt>
      <trkpt lat="45.23223" lon="5.74048">
        <ele>1027.493</ele>
        <time>2021-03-21T06:30:16Z</time>
      </trkpt>
      <trkpt lat="45.23223" lon="5.74063">
        <ele>1030.623</ele>
        <time>2021-03-21T06:30:23Z</time>
      </trkpt>
      <trkpt lat="45.23222" lon="5.74083">
        <ele>1030.502</ele>
        <time>2021-03-21T06:30:30Z</time>
      </trkpt>
      <trkpt lat="45.2322" lon="5.74101">
        <ele>1030.384</ele>
        <time>2021-03-21T06:30:36Z</time>
      </trkpt>
      <trkpt lat="45.23223" lon="5.74121">
        <ele>1029.711</ele>
        <time>2021-03-21T06:30:43Z</time>
      </trkpt>
      <trkpt lat="45.23232" lon="5.74133">
        <ele>1028.965</ele>
        <time>2021-03-21T06:30:49Z</time>
      </trkpt>
      <trkpt lat="45.23243" lon="5.74141">
        <ele>1029.228</ele>
        <time>2021-03-21T06:30:55Z</time>
      </trkpt>
      <trkpt lat="45.23258" lon="5.74154">
        <ele>1030.244</ele>
        <time>2021-03-21T06:31:05Z</time>
      </trkpt>
      <trkpt lat="45.2326" lon="5.74157">
        <ele>1030.511</ele>
        <time>2021-03-21T06:31:07Z</time>
      </trkpt>
      <trkpt lat="45.23272" lon="5.74173">
        <ele>1030.013</ele>
        <time>2021-03-21T06:31:14Z</time>
      </trkpt>
      <trkpt lat="45.23274" lon="5.74175">
        <ele>1029.571</ele>
        <time>2021-03-21T06:31:15Z</time>
      </trkpt>
      <trkpt lat="45.23276" lon="5.7418">
        <ele>1029.485</ele>
        <time>2021-03-21T06:31:17Z</time>
      </trkpt>
      <trkpt lat="45.23286" lon="5.74189">
        <ele>1028.903</ele>
        <time>2021-03-21T06:31:22Z</time>
      </trkpt>
      <trkpt lat="45.23304" lon="5.74198">
        <ele>1028.39</ele>
        <time>2021-03-21T06:31:30Z</time>
      </trkpt>
      <trkpt lat="45.23306" lon="5.74199">
        <ele>1027.914</ele>
        <time>2021-03-21T06:31:31Z</time>
      </trkpt>
      <trkpt lat="45.23313" lon="5.74205">
        <ele>1027.85</ele>
        <time>2021-03-21T06:31:35Z</time>
      </trkpt>
      <trkpt lat="45.2333" lon="5.74216">
        <ele>1027.838</ele>
        <time>2021-03-21T06:31:44Z</time>
      </trkpt>
      <trkpt lat="45.2334" lon="5.74221">
        <ele>1028.129</ele>
        <time>2021-03-21T06:31:49Z</time>
      </trkpt>
      <trkpt lat="45.23348" lon="5.74225">
        <ele>1028.813</ele>
        <time>2021-03-21T06:31:53Z</time>
      </trkpt>
      <trkpt lat="45.23363" lon="5.74237">
        <ele>1028.141</ele>
        <time>2021-03-21T06:32:01Z</time>
      </trkpt>
      <trkpt lat="45.23381" lon="5.74256">
        <ele>1027.615</ele>
        <time>2021-03-21T06:32:11Z</time>
      </trkpt>
      <trkpt lat="45.23382" lon="5.74259">
        <ele>1027.641</ele>
        <time>2021-03-21T06:32:12Z</time>
      </trkpt>
      <trkpt lat="45.23381" lon="5.74265">
        <ele>1027.605</ele>
        <time>2021-03-21T06:32:15Z</time>
      </trkpt>
      <trkpt lat="45.23381" lon="5.74273">
        <ele>1025.416</ele>
        <time>2021-03-21T06:32:20Z</time>
      </trkpt>
      <trkpt lat="45.23381" lon="5.74285">
        <ele>1023.842</ele>
        <time>2021-03-21T06:32:26Z</time>
      </trkpt>
      <trkpt lat="45.23379" lon="5.74294">
        <ele>1021.289</ele>
        <time>2021-03-21T06:32:30Z</time>
      </trkpt>
      <trkpt lat="45.23376" lon="5.743">
        <ele>1020.745</ele>
        <time>2021-03-21T06:32:33Z</time>
      </trkpt>
      <trkpt lat="45.23373" lon="5.74314">
        <ele>1019.146</ele>
        <time>2021-03-21T06:32:38Z</time>
      </trkpt>
      <trkpt lat="45.23373" lon="5.74323">
        <ele>1018.824</ele>
        <time>2021-03-21T06:32:41Z</time>
      </trkpt>
      <trkpt lat="45.23375" lon="5.74343">
        <ele>1017.307</ele>
        <time>2021-03-21T06:32:48Z</time>
      </trkpt>
      <trkpt lat="45.23384" lon="5.74362">
        <ele>1016.167</ele>
        <time>2021-03-21T06:32:55Z</time>
      </trkpt>
      <trkpt lat="45.23392" lon="5.74369">
        <ele>1016.104</ele>
        <time>2021-03-21T06:33:00Z</time>
      </trkpt>
      <trkpt lat="45.23399" lon="5.74368">
        <ele>1016.951</ele>
        <time>2021-03-21T06:33:04Z</time>
      </trkpt>
      <trkpt lat="45.23417" lon="5.74375">
        <ele>1017.798</ele>
        <time>2021-03-21T06:33:12Z</time>
      </trkpt>
      <trkpt lat="45.23434" lon="5.7439">
        <ele>1018.577</ele>
        <time>2021-03-21T06:33:21Z</time>
      </trkpt>
      <trkpt lat="45.23451" lon="5.74406">
        <ele>1019.627</ele>
        <time>2021-03-21T06:33:31Z</time>
      </trkpt>
      <trkpt lat="45.23467" lon="5.74421">
        <ele>1020.554</ele>
        <time>2021-03-21T06:33:41Z</time>
      </trkpt>
      <trkpt lat="45.23478" lon="5.74434">
        <ele>1020.469</ele>
        <time>2021-03-21T06:33:48Z</time>
      </trkpt>
      <trkpt lat="45.2348" lon="5.74436">
        <ele>1020.486</ele>
        <time>2021-03-21T06:33:49Z</time>
      </trkpt>
      <trkpt lat="45.2349" lon="5.74449">
        <ele>1019.729</ele>
        <time>2021-03-21T06:33:55Z</time>
      </trkpt>
      <trkpt lat="45.23496" lon="5.74455">
        <ele>1019.601</ele>
        <time>2021-03-21T06:33:59Z</time>
      </trkpt>
      <trkpt lat="45.23513" lon="5.74471">
        <ele>1017.875</ele>
        <time>2021-03-21T06:34:09Z</time>
      </trkpt>
      <trkpt lat="45.23523" lon="5.74486">
        <ele>1016.372</ele>
        <time>2021-03-21T06:34:16Z</time>
      </trkpt>
      <trkpt lat="45.23532" lon="5.74493">
        <ele>1014.473</ele>
        <time>2021-03-21T06:34:22Z</time>
      </trkpt>
      <trkpt lat="45.23545" lon="5.74496">
        <ele>1012.307</ele>
        <time>2021-03-21T06:34:29Z</time>
      </trkpt>
      <trkpt lat="45.23552" lon="5.74499">
        <ele>1010.806</ele>
        <time>2021-03-21T06:34:35Z</time>
      </trkpt>
      <trkpt lat="45.23568" lon="5.74506">
        <ele>1009.354</ele>
        <time>2021-03-21T06:34:42Z</time>
      </trkpt>
      <trkpt lat="45.23577" lon="5.74516">
        <ele>1009.098</ele>
        <time>2021-03-21T06:34:47Z</time>
      </trkpt>
      <trkpt lat="45.23581" lon="5.74527">
        <ele>1008.026</ele>
        <time>2021-03-21T06:34:51Z</time>
      </trkpt>
      <trkpt lat="45.23584" lon="5.74535">
        <ele>1006.869</ele>
        <time>2021-03-21T06:34:56Z</time>
      </trkpt>
      <trkpt lat="45.23581" lon="5.7453">
        <ele>1007.39</ele>
        <time>2021-03-21T06:35:00Z</time>
      </trkpt>
      <trkpt lat="45.23576" lon="5.74519">
        <ele>1007.786</ele>
        <time>2021-03-21T06:35:05Z</time>
      </trkpt>
      <trkpt lat="45.23572" lon="5.74506">
        <ele>1008.849</ele>
        <time>2021-03-21T06:35:11Z</time>
      </trkpt>
      <trkpt lat="45.23566" lon="5.745">
        <ele>1009.436</ele>
        <time>2021-03-21T06:35:15Z</time>
      </trkpt>
      <trkpt lat="45.23554" lon="5.74497">
        <ele>1010.616</ele>
        <time>2021-03-21T06:35:22Z</time>
      </trkpt>
      <trkpt lat="45.23546" lon="5.74497">
        <ele>1011.423</ele>
        <time>2021-03-21T06:35:26Z</time>
      </trkpt>
      <trkpt lat="45.23529" lon="5.74492">
        <ele>1013.478</ele>
        <time>2021-03-21T06:35:35Z</time>
      </trkpt>
      <trkpt lat="45.23519" lon="5.74479">
        <ele>1015.407</ele>
        <time>2021-03-21T06:35:44Z</time>
      </trkpt>
      <trkpt lat="45.23518" lon="5.74479">
        <ele>1016.428</ele>
        <time>2021-03-21T06:35:46Z</time>
      </trkpt>
      <trkpt lat="45.23517" lon="5.74485">
        <ele>1016.226</ele>
        <time>2021-03-21T06:35:49Z</time>
      </trkpt>
      <trkpt lat="45.23513" lon="5.74498">
        <ele>1015.161</ele>
        <time>2021-03-21T06:35:54Z</time>
      </trkpt>
      <trkpt lat="45.23511" lon="5.74503">
        <ele>1014.225</ele>
        <time>2021-03-21T06:35:56Z</time>
      </trkpt>
      <trkpt lat="45.23508" lon="5.7452">
        <ele>1013.118</ele>
        <time>2021-03-21T06:36:03Z</time>
      </trkpt>
      <trkpt lat="45.23504" lon="5.74542">
        <ele>1012.513</ele>
        <time>2021-03-21T06:36:11Z</time>
      </trkpt>
      <trkpt lat="45.23501" lon="5.74555">
        <ele>1010.713</ele>
        <time>2021-03-21T06:36:18Z</time>
      </trkpt>
      <trkpt lat="45.23501" lon="5.74565">
        <ele>1009.515</ele>
        <time>2021-03-21T06:36:26Z</time>
      </trkpt>
      <trkpt lat="45.23503" lon="5.74571">
        <ele>1005.315</ele>
        <time>2021-03-21T06:36:31Z</time>
      </trkpt>
      <trkpt lat="45.23503" lon="5.74571">
        <ele>1005.311</ele>
        <time>2021-03-21T06:36:32Z</time>
      </trkpt>
      <trkpt lat="45.23504" lon="5.74571">
        <ele>1009.532</ele>
        <time>2021-03-21T06:36:33Z</time>
      </trkpt>
      <trkpt lat="45.23504" lon="5.74572">
        <ele>1015.099</ele>
        <time>2021-03-21T06:36:35Z</time>
      </trkpt>
      <trkpt lat="45.23504" lon="5.74572">
        <ele>1011.301</ele>
        <time>2021-03-21T06:36:36Z</time>
      </trkpt>
      <trkpt lat="45.23504" lon="5.7457">
        <ele>1010.438</ele>
        <time>2021-03-21T06:37:13Z</time>
      </trkpt>
      <trkpt lat="45.23505" lon="5.7457">
        <ele>1009.864</ele>
        <time>2021-03-21T06:37:43Z</time>
      </trkpt>
      <trkpt lat="45.23505" lon="5.74557">
        <ele>1011.484</ele>
        <time>2021-03-21T06:37:51Z</time>
      </trkpt>
      <trkpt lat="45.23507" lon="5.74545">
        <ele>1012.407</ele>
        <time>2021-03-21T06:38:00Z</time>
      </trkpt>
      <trkpt lat="45.23511" lon="5.74531">
        <ele>1012.782</ele>
        <time>2021-03-21T06:38:08Z</time>
      </trkpt>
      <trkpt lat="45.23514" lon="5.7452">
        <ele>1011.974</ele>
        <time>2021-03-21T06:38:13Z</time>
      </trkpt>
      <trkpt lat="45.23514" lon="5.74508">
        <ele>1014.654</ele>
        <time>2021-03-21T06:38:18Z</time>
      </trkpt>
      <trkpt lat="45.23516" lon="5.74505">
        <ele>1014.364</ele>
        <time>2021-03-21T06:38:20Z</time>
      </trkpt>
      <trkpt lat="45.23517" lon="5.74501">
        <ele>1014.999</ele>
        <time>2021-03-21T06:38:22Z</time>
      </trkpt>
      <trkpt lat="45.23516" lon="5.74495">
        <ele>1014.374</ele>
        <time>2021-03-21T06:38:25Z</time>
      </trkpt>
      <trkpt lat="45.23515" lon="5.7449">
        <ele>1016.058</ele>
        <time>2021-03-21T06:38:27Z</time>
      </trkpt>
      <trkpt lat="45.23506" lon="5.74478">
        <ele>1016.65</ele>
        <time>2021-03-21T06:38:33Z</time>
      </trkpt>
      <trkpt lat="45.235" lon="5.74469">
        <ele>1017.178</ele>
        <time>2021-03-21T06:38:37Z</time>
      </trkpt>
      <trkpt lat="45.23494" lon="5.7446">
        <ele>1018.085</ele>
        <time>2021-03-21T06:38:41Z</time>
      </trkpt>
      <trkpt lat="45.23484" lon="5.74448">
        <ele>1018.339</ele>
        <time>2021-03-21T06:38:49Z</time>
      </trkpt>
      <trkpt lat="45.23483" lon="5.74445">
        <ele>1018.113</ele>
        <time>2021-03-21T06:38:50Z</time>
      </trkpt>
      <trkpt lat="45.23475" lon="5.74434">
        <ele>1018.775</ele>
        <time>2021-03-21T06:38:55Z</time>
      </trkpt>
      <trkpt lat="45.23462" lon="5.74419">
        <ele>1019.295</ele>
        <time>2021-03-21T06:39:02Z</time>
      </trkpt>
      <trkpt lat="45.23452" lon="5.74409">
        <ele>1018.208</ele>
        <time>2021-03-21T06:39:08Z</time>
      </trkpt>
      <trkpt lat="45.23433" lon="5.74394">
        <ele>1017.392</ele>
        <time>2021-03-21T06:39:17Z</time>
      </trkpt>
      <trkpt lat="45.23422" lon="5.74383">
        <ele>1016.641</ele>
        <time>2021-03-21T06:39:23Z</time>
      </trkpt>
      <trkpt lat="45.23406" lon="5.74371">
        <ele>1016.042</ele>
        <time>2021-03-21T06:39:31Z</time>
      </trkpt>
      <trkpt lat="45.23393" lon="5.74369">
        <ele>1014.806</ele>
        <time>2021-03-21T06:39:38Z</time>
      </trkpt>
      <trkpt lat="45.23379" lon="5.74372">
        <ele>1013.356</ele>
        <time>2021-03-21T06:39:44Z</time>
      </trkpt>
      <trkpt lat="45.23368" lon="5.74376">
        <ele>1011.739</ele>
        <time>2021-03-21T06:39:49Z</time>
      </trkpt>
      <trkpt lat="45.23353" lon="5.74379">
        <ele>1009.973</ele>
        <time>2021-03-21T06:39:55Z</time>
      </trkpt>
      <trkpt lat="45.23333" lon="5.74378">
        <ele>1008.025</ele>
        <time>2021-03-21T06:40:03Z</time>
      </trkpt>
      <trkpt lat="45.23315" lon="5.74373">
        <ele>1005.241</ele>
        <time>2021-03-21T06:40:11Z</time>
      </trkpt>
      <trkpt lat="45.23304" lon="5.74364">
        <ele>1003.569</ele>
        <time>2021-03-21T06:40:16Z</time>
      </trkpt>
      <trkpt lat="45.23296" lon="5.74359">
        <ele>1002.515</ele>
        <time>2021-03-21T06:40:20Z</time>
      </trkpt>
      <trkpt lat="45.23284" lon="5.74348">
        <ele>1000.741</ele>
        <time>2021-03-21T06:40:26Z</time>
      </trkpt>
      <trkpt lat="45.23271" lon="5.74337">
        <ele>998.612</ele>
        <time>2021-03-21T06:40:33Z</time>
      </trkpt>
      <trkpt lat="45.23263" lon="5.74331">
        <ele>998.062</ele>
        <time>2021-03-21T06:40:37Z</time>
      </trkpt>
      <trkpt lat="45.23245" lon="5.74321">
        <ele>996.624</ele>
        <time>2021-03-21T06:40:45Z</time>
      </trkpt>
      <trkpt lat="45.23229" lon="5.74314">
        <ele>994.501</ele>
        <time>2021-03-21T06:40:52Z</time>
      </trkpt>
      <trkpt lat="45.23214" lon="5.74306">
        <ele>992.401</ele>
        <time>2021-03-21T06:40:59Z</time>
      </trkpt>
      <trkpt lat="45.23207" lon="5.74303">
        <ele>991.129</ele>
        <time>2021-03-21T06:41:03Z</time>
      </trkpt>
      <trkpt lat="45.23204" lon="5.74303">
        <ele>990.659</ele>
        <time>2021-03-21T06:41:04Z</time>
      </trkpt>
      <trkpt lat="45.23187" lon="5.74296">
        <ele>988.922</ele>
        <time>2021-03-21T06:41:12Z</time>
      </trkpt>
      <trkpt lat="45.23168" lon="5.74289">
        <ele>987.152</ele>
        <time>2021-03-21T06:41:20Z</time>
      </trkpt>
      <trkpt lat="45.23154" lon="5.74282">
        <ele>984.822</ele>
        <time>2021-03-21T06:41:26Z</time>
      </trkpt>
      <trkpt lat="45.23139" lon="5.74278">
        <ele>982.981</ele>
        <time>2021-03-21T06:41:33Z</time>
      </trkpt>
      <trkpt lat="45.23135" lon="5.74277">
        <ele>982.344</ele>
        <time>2021-03-21T06:41:35Z</time>
      </trkpt>
      <trkpt lat="45.23126" lon="5.74273">
        <ele>980.864</ele>
        <time>2021-03-21T06:41:39Z</time>
      </trkpt>
      <trkpt lat="45.23122" lon="5.74271">
        <ele>979.882</ele>
        <time>2021-03-21T06:41:41Z</time>
      </trkpt>
      <trkpt lat="45.23103" lon="5.74266">
        <ele>977.665</ele>
        <time>2021-03-21T06:41:49Z</time>
      </trkpt>
      <trkpt lat="45.23088" lon="5.74258">
        <ele>975.704</ele>
        <time>2021-03-21T06:41:57Z</time>
      </trkpt>
      <trkpt lat="45.23075" lon="5.74247">
        <ele>973.189</ele>
        <time>2021-03-21T06:42:04Z</time>
      </trkpt>
      <trkpt lat="45.23069" lon="5.74244">
        <ele>971.096</ele>
        <time>2021-03-21T06:42:08Z</time>
      </trkpt>
      <trkpt lat="45.23055" lon="5.74241">
        <ele>969.334</ele>
        <time>2021-03-21T06:42:15Z</time>
      </trkpt>
      <trkpt lat="45.23053" lon="5.74239">
        <ele>969.738</ele>
        <time>2021-03-21T06:42:16Z</time>
      </trkpt>
      <trkpt lat="45.23043" lon="5.74233">
        <ele>968.918</ele>
        <time>2021-03-21T06:42:23Z</time>
      </trkpt>
      <trkpt lat="45.23036" lon="5.7423">
        <ele>967.742</ele>
        <time>2021-03-21T06:42:27Z</time>
      </trkpt>
      <trkpt lat="45.23024" lon="5.74225">
        <ele>966.265</ele>
        <time>2021-03-21T06:42:33Z</time>
      </trkpt>
      <trkpt lat="45.23015" lon="5.74222">
        <ele>964.704</ele>
        <time>2021-03-21T06:42:37Z</time>
      </trkpt>
      <trkpt lat="45.2301" lon="5.74221">
        <ele>963.286</ele>
        <time>2021-03-21T06:42:39Z</time>
      </trkpt>
      <trkpt lat="45.22992" lon="5.74213">
        <ele>960.864</ele>
        <time>2021-03-21T06:42:47Z</time>
      </trkpt>
      <trkpt lat="45.22976" lon="5.74203">
        <ele>957.916</ele>
        <time>2021-03-21T06:42:55Z</time>
      </trkpt>
      <trkpt lat="45.22963" lon="5.74193">
        <ele>955.557</ele>
        <time>2021-03-21T06:43:02Z</time>
      </trkpt>
      <trkpt lat="45.2295" lon="5.74182">
        <ele>952.269</ele>
        <time>2021-03-21T06:43:09Z</time>
      </trkpt>
      <trkpt lat="45.22936" lon="5.74173">
        <ele>950.034</ele>
        <time>2021-03-21T06:43:17Z</time>
      </trkpt>
      <trkpt lat="45.22924" lon="5.74166">
        <ele>946.687</ele>
        <time>2021-03-21T06:43:24Z</time>
      </trkpt>
      <trkpt lat="45.22922" lon="5.74165">
        <ele>946.441</ele>
        <time>2021-03-21T06:43:25Z</time>
      </trkpt>
      <trkpt lat="45.22913" lon="5.74161">
        <ele>944.149</ele>
        <time>2021-03-21T06:43:29Z</time>
      </trkpt>
      <trkpt lat="45.22903" lon="5.74155">
        <ele>942.582</ele>
        <time>2021-03-21T06:43:34Z</time>
      </trkpt>
      <trkpt lat="45.22893" lon="5.74151">
        <ele>941.094</ele>
        <time>2021-03-21T06:43:39Z</time>
      </trkpt>
      <trkpt lat="45.22888" lon="5.7415">
        <ele>940.24</ele>
        <time>2021-03-21T06:43:41Z</time>
      </trkpt>
      <trkpt lat="45.22877" lon="5.74148">
        <ele>938</ele>
        <time>2021-03-21T06:43:45Z</time>
      </trkpt>
      <trkpt lat="45.22856" lon="5.74145">
        <ele>934.652</ele>
        <time>2021-03-21T06:43:52Z</time>
      </trkpt>
      <trkpt lat="45.22844" lon="5.74143">
        <ele>933.478</ele>
        <time>2021-03-21T06:43:56Z</time>
      </trkpt>
      <trkpt lat="45.2283" lon="5.74141">
        <ele>931.798</ele>
        <time>2021-03-21T06:44:01Z</time>
      </trkpt>
      <trkpt lat="45.22814" lon="5.7413">
        <ele>929.207</ele>
        <time>2021-03-21T06:44:08Z</time>
      </trkpt>
      <trkpt lat="45.228" lon="5.7412">
        <ele>927.988</ele>
        <time>2021-03-21T06:44:15Z</time>
      </trkpt>
      <trkpt lat="45.22786" lon="5.74114">
        <ele>925.563</ele>
        <time>2021-03-21T06:44:20Z</time>
      </trkpt>
      <trkpt lat="45.22768" lon="5.74109">
        <ele>923.445</ele>
        <time>2021-03-21T06:44:26Z</time>
      </trkpt>
      <trkpt lat="45.2275" lon="5.74107">
        <ele>920.318</ele>
        <time>2021-03-21T06:44:31Z</time>
      </trkpt>
      <trkpt lat="45.22733" lon="5.74104">
        <ele>917.581</ele>
        <time>2021-03-21T06:44:37Z</time>
      </trkpt>
      <trkpt lat="45.22715" lon="5.74101">
        <ele>915.685</ele>
        <time>2021-03-21T06:44:44Z</time>
      </trkpt>
      <trkpt lat="45.22696" lon="5.74097">
        <ele>913.688</ele>
        <time>2021-03-21T06:44:51Z</time>
      </trkpt>
      <trkpt lat="45.22687" lon="5.74096">
        <ele>911.824</ele>
        <time>2021-03-21T06:44:54Z</time>
      </trkpt>
      <trkpt lat="45.22672" lon="5.74092">
        <ele>910.314</ele>
        <time>2021-03-21T06:45:00Z</time>
      </trkpt>
      <trkpt lat="45.22656" lon="5.74089">
        <ele>907.882</ele>
        <time>2021-03-21T06:45:06Z</time>
      </trkpt>
      <trkpt lat="45.22633" lon="5.74086">
        <ele>905.578</ele>
        <time>2021-03-21T06:45:14Z</time>
      </trkpt>
      <trkpt lat="45.2263" lon="5.74086">
        <ele>905.13</ele>
        <time>2021-03-21T06:45:15Z</time>
      </trkpt>
      <trkpt lat="45.22616" lon="5.74083">
        <ele>903.953</ele>
        <time>2021-03-21T06:45:21Z</time>
      </trkpt>
      <trkpt lat="45.22605" lon="5.74083">
        <ele>902.264</ele>
        <time>2021-03-21T06:45:25Z</time>
      </trkpt>
      <trkpt lat="45.226" lon="5.74085">
        <ele>902.148</ele>
        <time>2021-03-21T06:45:27Z</time>
      </trkpt>
      <trkpt lat="45.22578" lon="5.7409">
        <ele>898.836</ele>
        <time>2021-03-21T06:45:34Z</time>
      </trkpt>
      <trkpt lat="45.22559" lon="5.74097">
        <ele>896.256</ele>
        <time>2021-03-21T06:45:40Z</time>
      </trkpt>
      <trkpt lat="45.22556" lon="5.74097">
        <ele>895.967</ele>
        <time>2021-03-21T06:45:41Z</time>
      </trkpt>
      <trkpt lat="45.22549" lon="5.74099">
        <ele>894.119</ele>
        <time>2021-03-21T06:45:44Z</time>
      </trkpt>
      <trkpt lat="45.2253" lon="5.74101">
        <ele>892.645</ele>
        <time>2021-03-21T06:45:50Z</time>
      </trkpt>
      <trkpt lat="45.22512" lon="5.74099">
        <ele>890.722</ele>
        <time>2021-03-21T06:45:56Z</time>
      </trkpt>
      <trkpt lat="45.225" lon="5.74101">
        <ele>889.995</ele>
        <time>2021-03-21T06:46:00Z</time>
      </trkpt>
      <trkpt lat="45.22488" lon="5.74104">
        <ele>888.705</ele>
        <time>2021-03-21T06:46:04Z</time>
      </trkpt>
      <trkpt lat="45.22482" lon="5.74104">
        <ele>887.84</ele>
        <time>2021-03-21T06:46:06Z</time>
      </trkpt>
      <trkpt lat="45.22462" lon="5.74105">
        <ele>886.534</ele>
        <time>2021-03-21T06:46:12Z</time>
      </trkpt>
      <trkpt lat="45.22448" lon="5.74097">
        <ele>884.373</ele>
        <time>2021-03-21T06:46:18Z</time>
      </trkpt>
      <trkpt lat="45.22432" lon="5.7409">
        <ele>881.853</ele>
        <time>2021-03-21T06:46:25Z</time>
      </trkpt>
      <trkpt lat="45.22421" lon="5.74082">
        <ele>880.534</ele>
        <time>2021-03-21T06:46:30Z</time>
      </trkpt>
      <trkpt lat="45.22415" lon="5.74078">
        <ele>880.476</ele>
        <time>2021-03-21T06:46:33Z</time>
      </trkpt>
      <trkpt lat="45.22401" lon="5.74076">
        <ele>878.722</ele>
        <time>2021-03-21T06:46:39Z</time>
      </trkpt>
      <trkpt lat="45.22403" lon="5.74085">
        <ele>878.532</ele>
        <time>2021-03-21T06:46:43Z</time>
      </trkpt>
      <trkpt lat="45.22405" lon="5.74086">
        <ele>877.377</ele>
        <time>2021-03-21T06:46:44Z</time>
      </trkpt>
      <trkpt lat="45.22416" lon="5.74099">
        <ele>875.178</ele>
        <time>2021-03-21T06:46:51Z</time>
      </trkpt>
      <trkpt lat="45.22424" lon="5.74115">
        <ele>873.635</ele>
        <time>2021-03-21T06:46:57Z</time>
      </trkpt>
      <trkpt lat="45.22435" lon="5.74131">
        <ele>871.349</ele>
        <time>2021-03-21T06:47:04Z</time>
      </trkpt>
      <trkpt lat="45.22438" lon="5.74135">
        <ele>870.652</ele>
        <time>2021-03-21T06:47:06Z</time>
      </trkpt>
      <trkpt lat="45.2245" lon="5.74151">
        <ele>868.493</ele>
        <time>2021-03-21T06:47:12Z</time>
      </trkpt>
      <trkpt lat="45.22453" lon="5.74156">
        <ele>867.857</ele>
        <time>2021-03-21T06:47:14Z</time>
      </trkpt>
      <trkpt lat="45.22469" lon="5.74175">
        <ele>866.992</ele>
        <time>2021-03-21T06:47:23Z</time>
      </trkpt>
      <trkpt lat="45.22481" lon="5.74192">
        <ele>865.728</ele>
        <time>2021-03-21T06:47:30Z</time>
      </trkpt>
      <trkpt lat="45.22498" lon="5.74206">
        <ele>863.48</ele>
        <time>2021-03-21T06:47:37Z</time>
      </trkpt>
      <trkpt lat="45.22509" lon="5.74213">
        <ele>861.737</ele>
        <time>2021-03-21T06:47:42Z</time>
      </trkpt>
      <trkpt lat="45.22525" lon="5.74224">
        <ele>860.282</ele>
        <time>2021-03-21T06:47:49Z</time>
      </trkpt>
      <trkpt lat="45.22545" lon="5.74235">
        <ele>857.746</ele>
        <time>2021-03-21T06:47:57Z</time>
      </trkpt>
      <trkpt lat="45.22557" lon="5.74242">
        <ele>857.038</ele>
        <time>2021-03-21T06:48:02Z</time>
      </trkpt>
      <trkpt lat="45.2257" lon="5.7425">
        <ele>855.571</ele>
        <time>2021-03-21T06:48:07Z</time>
      </trkpt>
      <trkpt lat="45.22587" lon="5.74257">
        <ele>853.094</ele>
        <time>2021-03-21T06:48:13Z</time>
      </trkpt>
      <trkpt lat="45.22589" lon="5.74258">
        <ele>852.791</ele>
        <time>2021-03-21T06:48:14Z</time>
      </trkpt>
      <trkpt lat="45.22604" lon="5.74264">
        <ele>851.04</ele>
        <time>2021-03-21T06:48:21Z</time>
      </trkpt>
      <trkpt lat="45.22614" lon="5.74266">
        <ele>849.413</ele>
        <time>2021-03-21T06:48:26Z</time>
      </trkpt>
      <trkpt lat="45.22614" lon="5.74265">
        <ele>849.709</ele>
        <time>2021-03-21T06:48:27Z</time>
      </trkpt>
      <trkpt lat="45.22599" lon="5.7426">
        <ele>851.557</ele>
        <time>2021-03-21T06:48:36Z</time>
      </trkpt>
      <trkpt lat="45.22595" lon="5.74258">
        <ele>851.561</ele>
        <time>2021-03-21T06:48:38Z</time>
      </trkpt>
      <trkpt lat="45.2259" lon="5.74257">
        <ele>853.073</ele>
        <time>2021-03-21T06:48:41Z</time>
      </trkpt>
      <trkpt lat="45.22578" lon="5.74252">
        <ele>854.831</ele>
        <time>2021-03-21T06:48:48Z</time>
      </trkpt>
      <trkpt lat="45.22576" lon="5.74252">
        <ele>854.95</ele>
        <time>2021-03-21T06:48:49Z</time>
      </trkpt>
      <trkpt lat="45.22564" lon="5.74244">
        <ele>857.179</ele>
        <time>2021-03-21T06:48:57Z</time>
      </trkpt>
      <trkpt lat="45.22551" lon="5.74237">
        <ele>858.344</ele>
        <time>2021-03-21T06:49:04Z</time>
      </trkpt>
      <trkpt lat="45.2254" lon="5.74232">
        <ele>859.301</ele>
        <time>2021-03-21T06:49:11Z</time>
      </trkpt>
      <trkpt lat="45.2253" lon="5.74226">
        <ele>860.491</ele>
        <time>2021-03-21T06:49:17Z</time>
      </trkpt>
      <trkpt lat="45.22529" lon="5.74225">
        <ele>860.89</ele>
        <time>2021-03-21T06:49:18Z</time>
      </trkpt>
      <trkpt lat="45.22518" lon="5.74218">
        <ele>862.195</ele>
        <time>2021-03-21T06:49:25Z</time>
      </trkpt>
      <trkpt lat="45.22502" lon="5.7421">
        <ele>863.392</ele>
        <time>2021-03-21T06:49:33Z</time>
      </trkpt>
      <trkpt lat="45.22497" lon="5.74209">
        <ele>864.394</ele>
        <time>2021-03-21T06:49:36Z</time>
      </trkpt>
      <trkpt lat="45.22487" lon="5.74203">
        <ele>865.707</ele>
        <time>2021-03-21T06:49:42Z</time>
      </trkpt>
      <trkpt lat="45.2248" lon="5.74195">
        <ele>866.719</ele>
        <time>2021-03-21T06:49:47Z</time>
      </trkpt>
      <trkpt lat="45.22474" lon="5.74189">
        <ele>867.623</ele>
        <time>2021-03-21T06:49:52Z</time>
      </trkpt>
      <trkpt lat="45.22467" lon="5.74181">
        <ele>867.942</ele>
        <time>2021-03-21T06:49:58Z</time>
      </trkpt>
      <trkpt lat="45.22462" lon="5.74173">
        <ele>868.332</ele>
        <time>2021-03-21T06:50:02Z</time>
      </trkpt>
      <trkpt lat="45.22453" lon="5.74162">
        <ele>869.734</ele>
        <time>2021-03-21T06:50:08Z</time>
      </trkpt>
      <trkpt lat="45.22444" lon="5.74149">
        <ele>871.13</ele>
        <time>2021-03-21T06:50:15Z</time>
      </trkpt>
      <trkpt lat="45.22435" lon="5.74138">
        <ele>873.524</ele>
        <time>2021-03-21T06:50:21Z</time>
      </trkpt>
      <trkpt lat="45.22429" lon="5.74126">
        <ele>874.366</ele>
        <time>2021-03-21T06:50:27Z</time>
      </trkpt>
      <trkpt lat="45.22427" lon="5.74124">
        <ele>874.51</ele>
        <time>2021-03-21T06:50:29Z</time>
      </trkpt>
      <trkpt lat="45.22421" lon="5.74113">
        <ele>876.029</ele>
        <time>2021-03-21T06:50:35Z</time>
      </trkpt>
      <trkpt lat="45.22416" lon="5.74107">
        <ele>877.256</ele>
        <time>2021-03-21T06:50:39Z</time>
      </trkpt>
      <trkpt lat="45.22407" lon="5.74098">
        <ele>879.394</ele>
        <time>2021-03-21T06:50:46Z</time>
      </trkpt>
      <trkpt lat="45.22399" lon="5.74089">
        <ele>879.93</ele>
        <time>2021-03-21T06:50:51Z</time>
      </trkpt>
      <trkpt lat="45.22391" lon="5.74079">
        <ele>881.195</ele>
        <time>2021-03-21T06:50:56Z</time>
      </trkpt>
      <trkpt lat="45.22378" lon="5.74058">
        <ele>881.916</ele>
        <time>2021-03-21T06:51:04Z</time>
      </trkpt>
      <trkpt lat="45.22369" lon="5.74046">
        <ele>882.027</ele>
        <time>2021-03-21T06:51:10Z</time>
      </trkpt>
      <trkpt lat="45.22362" lon="5.74039">
        <ele>881.348</ele>
        <time>2021-03-21T06:51:14Z</time>
      </trkpt>
      <trkpt lat="45.22356" lon="5.74027">
        <ele>879.925</ele>
        <time>2021-03-21T06:51:19Z</time>
      </trkpt>
      <trkpt lat="45.22339" lon="5.7402">
        <ele>877.794</ele>
        <time>2021-03-21T06:51:26Z</time>
      </trkpt>
      <trkpt lat="45.22326" lon="5.74016">
        <ele>877.613</ele>
        <time>2021-03-21T06:51:31Z</time>
      </trkpt>
      <trkpt lat="45.22318" lon="5.74013">
        <ele>876.609</ele>
        <time>2021-03-21T06:51:35Z</time>
      </trkpt>
      <trkpt lat="45.22306" lon="5.74011">
        <ele>875.524</ele>
        <time>2021-03-21T06:51:40Z</time>
      </trkpt>
      <trkpt lat="45.22303" lon="5.74008">
        <ele>874.945</ele>
        <time>2021-03-21T06:51:42Z</time>
      </trkpt>
      <trkpt lat="45.22295" lon="5.74002">
        <ele>874.275</ele>
        <time>2021-03-21T06:51:46Z</time>
      </trkpt>
      <trkpt lat="45.2228" lon="5.7399">
        <ele>872.674</ele>
        <time>2021-03-21T06:51:54Z</time>
      </trkpt>
      <trkpt lat="45.22263" lon="5.73979">
        <ele>870.557</ele>
        <time>2021-03-21T06:52:02Z</time>
      </trkpt>
      <trkpt lat="45.22248" lon="5.73973">
        <ele>869.359</ele>
        <time>2021-03-21T06:52:08Z</time>
      </trkpt>
      <trkpt lat="45.22243" lon="5.73967">
        <ele>868.572</ele>
        <time>2021-03-21T06:52:11Z</time>
      </trkpt>
      <trkpt lat="45.22235" lon="5.73962">
        <ele>868.174</ele>
        <time>2021-03-21T06:52:15Z</time>
      </trkpt>
      <trkpt lat="45.22226" lon="5.73949">
        <ele>866.801</ele>
        <time>2021-03-21T06:52:21Z</time>
      </trkpt>
      <trkpt lat="45.22218" lon="5.73939">
        <ele>866.469</ele>
        <time>2021-03-21T06:52:26Z</time>
      </trkpt>
      <trkpt lat="45.22203" lon="5.73927">
        <ele>864.999</ele>
        <time>2021-03-21T06:52:33Z</time>
      </trkpt>
      <trkpt lat="45.22189" lon="5.73912">
        <ele>863.51</ele>
        <time>2021-03-21T06:52:40Z</time>
      </trkpt>
      <trkpt lat="45.22175" lon="5.73903">
        <ele>861.78</ele>
        <time>2021-03-21T06:52:46Z</time>
      </trkpt>
      <trkpt lat="45.22156" lon="5.73895">
        <ele>859.472</ele>
        <time>2021-03-21T06:52:54Z</time>
      </trkpt>
      <trkpt lat="45.22152" lon="5.73892">
        <ele>859.059</ele>
        <time>2021-03-21T06:52:56Z</time>
      </trkpt>
      <trkpt lat="45.22135" lon="5.73888">
        <ele>857.539</ele>
        <time>2021-03-21T06:53:03Z</time>
      </trkpt>
      <trkpt lat="45.22133" lon="5.73887">
        <ele>857.221</ele>
        <time>2021-03-21T06:53:04Z</time>
      </trkpt>
      <trkpt lat="45.22115" lon="5.73882">
        <ele>855.786</ele>
        <time>2021-03-21T06:53:11Z</time>
      </trkpt>
      <trkpt lat="45.22103" lon="5.73875">
        <ele>854.647</ele>
        <time>2021-03-21T06:53:17Z</time>
      </trkpt>
      <trkpt lat="45.221" lon="5.73872">
        <ele>853.992</ele>
        <time>2021-03-21T06:53:19Z</time>
      </trkpt>
      <trkpt lat="45.22084" lon="5.73864">
        <ele>852.511</ele>
        <time>2021-03-21T06:53:26Z</time>
      </trkpt>
      <trkpt lat="45.22082" lon="5.73863">
        <ele>852.666</ele>
        <time>2021-03-21T06:53:27Z</time>
      </trkpt>
      <trkpt lat="45.22061" lon="5.73855">
        <ele>854.827</ele>
        <time>2021-03-21T06:53:36Z</time>
      </trkpt>
      <trkpt lat="45.22045" lon="5.73844">
        <ele>855.576</ele>
        <time>2021-03-21T06:53:43Z</time>
      </trkpt>
      <trkpt lat="45.22033" lon="5.73834">
        <ele>856.517</ele>
        <time>2021-03-21T06:53:51Z</time>
      </trkpt>
      <trkpt lat="45.2202" lon="5.73826">
        <ele>857.525</ele>
        <time>2021-03-21T06:53:58Z</time>
      </trkpt>
      <trkpt lat="45.22017" lon="5.73823">
        <ele>858.229</ele>
        <time>2021-03-21T06:54:00Z</time>
      </trkpt>
      <trkpt lat="45.22003" lon="5.73813">
        <ele>860.183</ele>
        <time>2021-03-21T06:54:08Z</time>
      </trkpt>
      <trkpt lat="45.21994" lon="5.73806">
        <ele>862.622</ele>
        <time>2021-03-21T06:54:15Z</time>
      </trkpt>
      <trkpt lat="45.21991" lon="5.73803">
        <ele>864.141</ele>
        <time>2021-03-21T06:54:18Z</time>
      </trkpt>
      <trkpt lat="45.21986" lon="5.73797">
        <ele>865.169</ele>
        <time>2021-03-21T06:54:22Z</time>
      </trkpt>
      <trkpt lat="45.21978" lon="5.73787">
        <ele>865.863</ele>
        <time>2021-03-21T06:54:29Z</time>
      </trkpt>
      <trkpt lat="45.21972" lon="5.73784">
        <ele>866.044</ele>
        <time>2021-03-21T06:54:36Z</time>
      </trkpt>
      <trkpt lat="45.21968" lon="5.73787">
        <ele>866.07</ele>
        <time>2021-03-21T06:54:47Z</time>
      </trkpt>
      <trkpt lat="45.21969" lon="5.73784">
        <ele>866.033</ele>
        <time>2021-03-21T06:55:14Z</time>
      </trkpt>
      <trkpt lat="45.21969" lon="5.73782">
        <ele>866.024</ele>
        <time>2021-03-21T06:55:24Z</time>
      </trkpt>
      <trkpt lat="45.21967" lon="5.73775">
        <ele>867.434</ele>
        <time>2021-03-21T06:55:33Z</time>
      </trkpt>
      <trkpt lat="45.2196" lon="5.73764">
        <ele>868.173</ele>
        <time>2021-03-21T06:55:39Z</time>
      </trkpt>
      <trkpt lat="45.21958" lon="5.73761">
        <ele>868.433</ele>
        <time>2021-03-21T06:55:41Z</time>
      </trkpt>
      <trkpt lat="45.21954" lon="5.73754">
        <ele>868.366</ele>
        <time>2021-03-21T06:55:45Z</time>
      </trkpt>
      <trkpt lat="45.21951" lon="5.73745">
        <ele>870.237</ele>
        <time>2021-03-21T06:55:50Z</time>
      </trkpt>
      <trkpt lat="45.21948" lon="5.73743">
        <ele>869.812</ele>
        <time>2021-03-21T06:55:52Z</time>
      </trkpt>
      <trkpt lat="45.21939" lon="5.7373">
        <ele>872.45</ele>
        <time>2021-03-21T06:56:00Z</time>
      </trkpt>
      <trkpt lat="45.21937" lon="5.73726">
        <ele>872.773</ele>
        <time>2021-03-21T06:56:03Z</time>
      </trkpt>
      <trkpt lat="45.21934" lon="5.73723">
        <ele>872.899</ele>
        <time>2021-03-21T06:56:06Z</time>
      </trkpt>
      <trkpt lat="45.21931" lon="5.7372">
        <ele>874.207</ele>
        <time>2021-03-21T06:56:08Z</time>
      </trkpt>
      <trkpt lat="45.21928" lon="5.73717">
        <ele>875.302</ele>
        <time>2021-03-21T06:56:10Z</time>
      </trkpt>
      <trkpt lat="45.21922" lon="5.73713">
        <ele>877.366</ele>
        <time>2021-03-21T06:56:15Z</time>
      </trkpt>
      <trkpt lat="45.2192" lon="5.73712">
        <ele>877.408</ele>
        <time>2021-03-21T06:56:16Z</time>
      </trkpt>
      <trkpt lat="45.21905" lon="5.73705">
        <ele>880.731</ele>
        <time>2021-03-21T06:56:26Z</time>
      </trkpt>
      <trkpt lat="45.21897" lon="5.73702">
        <ele>882.336</ele>
        <time>2021-03-21T06:56:32Z</time>
      </trkpt>
      <trkpt lat="45.21888" lon="5.73691">
        <ele>883.813</ele>
        <time>2021-03-21T06:56:40Z</time>
      </trkpt>
      <trkpt lat="45.21883" lon="5.73688">
        <ele>884.447</ele>
        <time>2021-03-21T06:56:43Z</time>
      </trkpt>
      <trkpt lat="45.21878" lon="5.7368">
        <ele>884.286</ele>
        <time>2021-03-21T06:56:47Z</time>
      </trkpt>
      <trkpt lat="45.21874" lon="5.73673">
        <ele>883.737</ele>
        <time>2021-03-21T06:56:50Z</time>
      </trkpt>
      <trkpt lat="45.2187" lon="5.73664">
        <ele>883.14</ele>
        <time>2021-03-21T06:56:54Z</time>
      </trkpt>
      <trkpt lat="45.21858" lon="5.7365">
        <ele>883.967</ele>
        <time>2021-03-21T06:57:01Z</time>
      </trkpt>
      <trkpt lat="45.21853" lon="5.73648">
        <ele>883.82</ele>
        <time>2021-03-21T06:57:03Z</time>
      </trkpt>
      <trkpt lat="45.21847" lon="5.73638">
        <ele>884.596</ele>
        <time>2021-03-21T06:57:08Z</time>
      </trkpt>
      <trkpt lat="45.21842" lon="5.7363">
        <ele>884.97</ele>
        <time>2021-03-21T06:57:12Z</time>
      </trkpt>
      <trkpt lat="45.21833" lon="5.73621">
        <ele>884.186</ele>
        <time>2021-03-21T06:57:19Z</time>
      </trkpt>
      <trkpt lat="45.21824" lon="5.73612">
        <ele>883.271</ele>
        <time>2021-03-21T06:57:25Z</time>
      </trkpt>
      <trkpt lat="45.21813" lon="5.73601">
        <ele>882.46</ele>
        <time>2021-03-21T06:57:32Z</time>
      </trkpt>
      <trkpt lat="45.218" lon="5.73592">
        <ele>881.75</ele>
        <time>2021-03-21T06:57:38Z</time>
      </trkpt>
      <trkpt lat="45.2179" lon="5.73581">
        <ele>881.001</ele>
        <time>2021-03-21T06:57:44Z</time>
      </trkpt>
      <trkpt lat="45.21788" lon="5.7358">
        <ele>881.291</ele>
        <time>2021-03-21T06:57:45Z</time>
      </trkpt>
      <trkpt lat="45.21781" lon="5.73569">
        <ele>881.919</ele>
        <time>2021-03-21T06:57:50Z</time>
      </trkpt>
      <trkpt lat="45.21776" lon="5.7356">
        <ele>881.349</ele>
        <time>2021-03-21T06:57:57Z</time>
      </trkpt>
      <trkpt lat="45.21766" lon="5.73566">
        <ele>883.297</ele>
        <time>2021-03-21T06:58:24Z</time>
      </trkpt>
      <trkpt lat="45.21772" lon="5.73554">
        <ele>884.374</ele>
        <time>2021-03-21T06:59:06Z</time>
      </trkpt>
      <trkpt lat="45.21761" lon="5.73547">
        <ele>885.175</ele>
        <time>2021-03-21T06:59:14Z</time>
      </trkpt>
      <trkpt lat="45.21756" lon="5.73544">
        <ele>886.171</ele>
        <time>2021-03-21T06:59:18Z</time>
      </trkpt>
      <trkpt lat="45.21753" lon="5.73544">
        <ele>887</ele>
        <time>2021-03-21T06:59:20Z</time>
      </trkpt>
      <trkpt lat="45.21747" lon="5.73543">
        <ele>888.441</ele>
        <time>2021-03-21T06:59:23Z</time>
      </trkpt>
      <trkpt lat="45.21743" lon="5.73542">
        <ele>888.493</ele>
        <time>2021-03-21T06:59:26Z</time>
      </trkpt>
      <trkpt lat="45.21729" lon="5.73544">
        <ele>888.31</ele>
        <time>2021-03-21T06:59:33Z</time>
      </trkpt>
      <trkpt lat="45.21721" lon="5.73534">
        <ele>886.939</ele>
        <time>2021-03-21T06:59:40Z</time>
      </trkpt>
      <trkpt lat="45.21718" lon="5.73531">
        <ele>890.487</ele>
        <time>2021-03-21T06:59:44Z</time>
      </trkpt>
      <trkpt lat="45.21718" lon="5.73529">
        <ele>888.518</ele>
        <time>2021-03-21T06:59:45Z</time>
      </trkpt>
      <trkpt lat="45.21714" lon="5.73529">
        <ele>885.824</ele>
        <time>2021-03-21T06:59:47Z</time>
      </trkpt>
      <trkpt lat="45.21711" lon="5.73527">
        <ele>884.903</ele>
        <time>2021-03-21T06:59:49Z</time>
      </trkpt>
      <trkpt lat="45.21704" lon="5.73524">
        <ele>883.186</ele>
        <time>2021-03-21T06:59:55Z</time>
      </trkpt>
      <trkpt lat="45.21698" lon="5.73522">
        <ele>881.565</ele>
        <time>2021-03-21T07:00:00Z</time>
      </trkpt>
      <trkpt lat="45.2169" lon="5.73522">
        <ele>880.284</ele>
        <time>2021-03-21T07:00:04Z</time>
      </trkpt>
      <trkpt lat="45.21682" lon="5.73521">
        <ele>879.008</ele>
        <time>2021-03-21T07:00:10Z</time>
      </trkpt>
      <trkpt lat="45.21672" lon="5.73525">
        <ele>877.49</ele>
        <time>2021-03-21T07:00:16Z</time>
      </trkpt>
      <trkpt lat="45.21671" lon="5.73528">
        <ele>877.878</ele>
        <time>2021-03-21T07:00:21Z</time>
      </trkpt>
      <trkpt lat="45.21678" lon="5.73526">
        <ele>879.72</ele>
        <time>2021-03-21T07:00:28Z</time>
      </trkpt>
      <trkpt lat="45.21687" lon="5.73527">
        <ele>881.949</ele>
        <time>2021-03-21T07:00:35Z</time>
      </trkpt>
      <trkpt lat="45.21696" lon="5.73525">
        <ele>882.851</ele>
        <time>2021-03-21T07:00:40Z</time>
      </trkpt>
      <trkpt lat="45.21706" lon="5.73526">
        <ele>884.684</ele>
        <time>2021-03-21T07:00:45Z</time>
      </trkpt>
      <trkpt lat="45.21714" lon="5.73528">
        <ele>886.674</ele>
        <time>2021-03-21T07:00:50Z</time>
      </trkpt>
      <trkpt lat="45.21716" lon="5.73527">
        <ele>888.902</ele>
        <time>2021-03-21T07:00:54Z</time>
      </trkpt>
      <trkpt lat="45.21708" lon="5.73522">
        <ele>890.285</ele>
        <time>2021-03-21T07:01:01Z</time>
      </trkpt>
      <trkpt lat="45.21703" lon="5.73517">
        <ele>891.515</ele>
        <time>2021-03-21T07:01:06Z</time>
      </trkpt>
      <trkpt lat="45.21702" lon="5.73516">
        <ele>891.523</ele>
        <time>2021-03-21T07:01:07Z</time>
      </trkpt>
      <trkpt lat="45.21697" lon="5.73517">
        <ele>892.467</ele>
        <time>2021-03-21T07:01:09Z</time>
      </trkpt>
      <trkpt lat="45.2169" lon="5.73515">
        <ele>893.687</ele>
        <time>2021-03-21T07:01:16Z</time>
      </trkpt>
      <trkpt lat="45.21684" lon="5.73508">
        <ele>894.926</ele>
        <time>2021-03-21T07:01:24Z</time>
      </trkpt>
      <trkpt lat="45.21681" lon="5.73506">
        <ele>897.101</ele>
        <time>2021-03-21T07:01:27Z</time>
      </trkpt>
      <trkpt lat="45.21676" lon="5.73502">
        <ele>898.438</ele>
        <time>2021-03-21T07:01:31Z</time>
      </trkpt>
      <trkpt lat="45.21674" lon="5.73498">
        <ele>898.545</ele>
        <time>2021-03-21T07:01:34Z</time>
      </trkpt>
      <trkpt lat="45.21674" lon="5.73488">
        <ele>900.489</ele>
        <time>2021-03-21T07:01:41Z</time>
      </trkpt>
      <trkpt lat="45.21671" lon="5.7348">
        <ele>899.889</ele>
        <time>2021-03-21T07:01:45Z</time>
      </trkpt>
      <trkpt lat="45.21668" lon="5.73465">
        <ele>898.148</ele>
        <time>2021-03-21T07:01:51Z</time>
      </trkpt>
      <trkpt lat="45.21664" lon="5.73448">
        <ele>897.47</ele>
        <time>2021-03-21T07:01:56Z</time>
      </trkpt>
      <trkpt lat="45.21657" lon="5.7343">
        <ele>896.244</ele>
        <time>2021-03-21T07:02:02Z</time>
      </trkpt>
      <trkpt lat="45.21653" lon="5.73424">
        <ele>895.75</ele>
        <time>2021-03-21T07:02:05Z</time>
      </trkpt>
      <trkpt lat="45.2164" lon="5.73403">
        <ele>894.69</ele>
        <time>2021-03-21T07:02:13Z</time>
      </trkpt>
      <trkpt lat="45.2163" lon="5.73396">
        <ele>893.285</ele>
        <time>2021-03-21T07:02:19Z</time>
      </trkpt>
      <trkpt lat="45.21616" lon="5.73389">
        <ele>891.404</ele>
        <time>2021-03-21T07:02:27Z</time>
      </trkpt>
      <trkpt lat="45.21609" lon="5.73375">
        <ele>889.977</ele>
        <time>2021-03-21T07:02:36Z</time>
      </trkpt>
      <trkpt lat="45.21608" lon="5.73374">
        <ele>889.729</ele>
        <time>2021-03-21T07:02:37Z</time>
      </trkpt>
      <trkpt lat="45.21605" lon="5.7337">
        <ele>888.488</ele>
        <time>2021-03-21T07:02:40Z</time>
      </trkpt>
      <trkpt lat="45.21602" lon="5.73361">
        <ele>887.653</ele>
        <time>2021-03-21T07:02:44Z</time>
      </trkpt>
      <trkpt lat="45.21594" lon="5.7335">
        <ele>885.732</ele>
        <time>2021-03-21T07:02:51Z</time>
      </trkpt>
      <trkpt lat="45.21592" lon="5.73347">
        <ele>885.252</ele>
        <time>2021-03-21T07:02:53Z</time>
      </trkpt>
      <trkpt lat="45.21582" lon="5.73341">
        <ele>882.761</ele>
        <time>2021-03-21T07:02:59Z</time>
      </trkpt>
      <trkpt lat="45.21568" lon="5.73338">
        <ele>880.194</ele>
        <time>2021-03-21T07:03:06Z</time>
      </trkpt>
      <trkpt lat="45.21563" lon="5.73337">
        <ele>879.189</ele>
        <time>2021-03-21T07:03:09Z</time>
      </trkpt>
      <trkpt lat="45.21553" lon="5.7333">
        <ele>877.939</ele>
        <time>2021-03-21T07:03:16Z</time>
      </trkpt>
      <trkpt lat="45.21549" lon="5.7333">
        <ele>877.539</ele>
        <time>2021-03-21T07:03:19Z</time>
      </trkpt>
      <trkpt lat="45.21538" lon="5.73329">
        <ele>875.969</ele>
        <time>2021-03-21T07:03:25Z</time>
      </trkpt>
      <trkpt lat="45.21533" lon="5.73326">
        <ele>875.683</ele>
        <time>2021-03-21T07:03:28Z</time>
      </trkpt>
      <trkpt lat="45.21517" lon="5.73323">
        <ele>873.46</ele>
        <time>2021-03-21T07:03:35Z</time>
      </trkpt>
      <trkpt lat="45.21515" lon="5.73322">
        <ele>872.586</ele>
        <time>2021-03-21T07:03:36Z</time>
      </trkpt>
      <trkpt lat="45.2151" lon="5.73317">
        <ele>872.129</ele>
        <time>2021-03-21T07:03:40Z</time>
      </trkpt>
      <trkpt lat="45.21511" lon="5.73296">
        <ele>870.736</ele>
        <time>2021-03-21T07:03:47Z</time>
      </trkpt>
      <trkpt lat="45.2151" lon="5.73288">
        <ele>870.767</ele>
        <time>2021-03-21T07:03:49Z</time>
      </trkpt>
      <trkpt lat="45.21507" lon="5.73262">
        <ele>871.909</ele>
        <time>2021-03-21T07:03:57Z</time>
      </trkpt>
      <trkpt lat="45.21496" lon="5.73253">
        <ele>868.609</ele>
        <time>2021-03-21T07:04:03Z</time>
      </trkpt>
      <trkpt lat="45.21486" lon="5.73246">
        <ele>867.247</ele>
        <time>2021-03-21T07:04:09Z</time>
      </trkpt>
      <trkpt lat="45.21481" lon="5.7324">
        <ele>865.361</ele>
        <time>2021-03-21T07:04:13Z</time>
      </trkpt>
      <trkpt lat="45.21476" lon="5.73229">
        <ele>863.886</ele>
        <time>2021-03-21T07:04:18Z</time>
      </trkpt>
      <trkpt lat="45.21474" lon="5.73224">
        <ele>863.378</ele>
        <time>2021-03-21T07:04:20Z</time>
      </trkpt>
      <trkpt lat="45.21475" lon="5.73208">
        <ele>862.323</ele>
        <time>2021-03-21T07:04:25Z</time>
      </trkpt>
      <trkpt lat="45.21467" lon="5.73193">
        <ele>860.651</ele>
        <time>2021-03-21T07:04:32Z</time>
      </trkpt>
      <trkpt lat="45.21466" lon="5.73191">
        <ele>860.452</ele>
        <time>2021-03-21T07:04:34Z</time>
      </trkpt>
      <trkpt lat="45.21461" lon="5.73185">
        <ele>858.338</ele>
        <time>2021-03-21T07:04:38Z</time>
      </trkpt>
      <trkpt lat="45.2146" lon="5.73181">
        <ele>857.442</ele>
        <time>2021-03-21T07:04:40Z</time>
      </trkpt>
      <trkpt lat="45.21454" lon="5.73172">
        <ele>854.296</ele>
        <time>2021-03-21T07:04:46Z</time>
      </trkpt>
      <trkpt lat="45.21449" lon="5.73166">
        <ele>853.454</ele>
        <time>2021-03-21T07:04:50Z</time>
      </trkpt>
      <trkpt lat="45.21447" lon="5.73162">
        <ele>852.484</ele>
        <time>2021-03-21T07:04:53Z</time>
      </trkpt>
      <trkpt lat="45.21441" lon="5.73162">
        <ele>851.132</ele>
        <time>2021-03-21T07:04:56Z</time>
      </trkpt>
      <trkpt lat="45.21436" lon="5.73161">
        <ele>851.009</ele>
        <time>2021-03-21T07:04:58Z</time>
      </trkpt>
      <trkpt lat="45.21419" lon="5.7316">
        <ele>849.993</ele>
        <time>2021-03-21T07:05:04Z</time>
      </trkpt>
      <trkpt lat="45.21415" lon="5.73159">
        <ele>849.772</ele>
        <time>2021-03-21T07:05:06Z</time>
      </trkpt>
      <trkpt lat="45.21413" lon="5.73148">
        <ele>847.761</ele>
        <time>2021-03-21T07:05:10Z</time>
      </trkpt>
      <trkpt lat="45.21401" lon="5.73128">
        <ele>845.961</ele>
        <time>2021-03-21T07:05:18Z</time>
      </trkpt>
      <trkpt lat="45.21393" lon="5.73118">
        <ele>844.663</ele>
        <time>2021-03-21T07:05:23Z</time>
      </trkpt>
      <trkpt lat="45.21384" lon="5.73101">
        <ele>843.79</ele>
        <time>2021-03-21T07:05:29Z</time>
      </trkpt>
      <trkpt lat="45.21374" lon="5.73087">
        <ele>842.565</ele>
        <time>2021-03-21T07:05:35Z</time>
      </trkpt>
      <trkpt lat="45.21366" lon="5.73074">
        <ele>841.644</ele>
        <time>2021-03-21T07:05:41Z</time>
      </trkpt>
      <trkpt lat="45.21357" lon="5.73064">
        <ele>840.142</ele>
        <time>2021-03-21T07:05:47Z</time>
      </trkpt>
      <trkpt lat="45.21353" lon="5.73056">
        <ele>837.435</ele>
        <time>2021-03-21T07:05:51Z</time>
      </trkpt>
      <trkpt lat="45.2135" lon="5.7305">
        <ele>836.728</ele>
        <time>2021-03-21T07:05:54Z</time>
      </trkpt>
      <trkpt lat="45.21344" lon="5.7304">
        <ele>834.516</ele>
        <time>2021-03-21T07:06:01Z</time>
      </trkpt>
      <trkpt lat="45.21339" lon="5.73033">
        <ele>831.368</ele>
        <time>2021-03-21T07:06:07Z</time>
      </trkpt>
      <trkpt lat="45.21338" lon="5.73031">
        <ele>831.077</ele>
        <time>2021-03-21T07:06:08Z</time>
      </trkpt>
      <trkpt lat="45.2133" lon="5.7302">
        <ele>828.915</ele>
        <time>2021-03-21T07:06:15Z</time>
      </trkpt>
      <trkpt lat="45.21329" lon="5.73019">
        <ele>828.874</ele>
        <time>2021-03-21T07:06:16Z</time>
      </trkpt>
      <trkpt lat="45.21325" lon="5.73012">
        <ele>827.058</ele>
        <time>2021-03-21T07:06:20Z</time>
      </trkpt>
      <trkpt lat="45.21321" lon="5.73004">
        <ele>825.247</ele>
        <time>2021-03-21T07:06:24Z</time>
      </trkpt>
      <trkpt lat="45.21316" lon="5.72997">
        <ele>824.234</ele>
        <time>2021-03-21T07:06:28Z</time>
      </trkpt>
      <trkpt lat="45.21309" lon="5.72986">
        <ele>822.509</ele>
        <time>2021-03-21T07:06:33Z</time>
      </trkpt>
      <trkpt lat="45.21304" lon="5.72984">
        <ele>822.003</ele>
        <time>2021-03-21T07:06:36Z</time>
      </trkpt>
      <trkpt lat="45.21301" lon="5.72982">
        <ele>820.612</ele>
        <time>2021-03-21T07:06:38Z</time>
      </trkpt>
      <trkpt lat="45.21296" lon="5.72974">
        <ele>818.168</ele>
        <time>2021-03-21T07:06:44Z</time>
      </trkpt>
      <trkpt lat="45.21292" lon="5.72969">
        <ele>816.619</ele>
        <time>2021-03-21T07:06:48Z</time>
      </trkpt>
      <trkpt lat="45.21284" lon="5.72961">
        <ele>814.685</ele>
        <time>2021-03-21T07:06:53Z</time>
      </trkpt>
      <trkpt lat="45.21275" lon="5.72955">
        <ele>812.92</ele>
        <time>2021-03-21T07:07:00Z</time>
      </trkpt>
      <trkpt lat="45.21272" lon="5.72955">
        <ele>811.579</ele>
        <time>2021-03-21T07:07:02Z</time>
      </trkpt>
      <trkpt lat="45.21268" lon="5.72952">
        <ele>809.946</ele>
        <time>2021-03-21T07:07:05Z</time>
      </trkpt>
      <trkpt lat="45.21265" lon="5.72949">
        <ele>808.667</ele>
        <time>2021-03-21T07:07:08Z</time>
      </trkpt>
      <trkpt lat="45.21259" lon="5.72945">
        <ele>806.803</ele>
        <time>2021-03-21T07:07:13Z</time>
      </trkpt>
      <trkpt lat="45.2125" lon="5.72943">
        <ele>804.332</ele>
        <time>2021-03-21T07:07:20Z</time>
      </trkpt>
      <trkpt lat="45.21249" lon="5.72943">
        <ele>804.177</ele>
        <time>2021-03-21T07:07:21Z</time>
      </trkpt>
      <trkpt lat="45.21239" lon="5.72938">
        <ele>802.629</ele>
        <time>2021-03-21T07:07:26Z</time>
      </trkpt>
      <trkpt lat="45.21231" lon="5.72924">
        <ele>801.263</ele>
        <time>2021-03-21T07:07:33Z</time>
      </trkpt>
      <trkpt lat="45.21224" lon="5.72921">
        <ele>800.106</ele>
        <time>2021-03-21T07:07:39Z</time>
      </trkpt>
      <trkpt lat="45.21223" lon="5.72921">
        <ele>799.337</ele>
        <time>2021-03-21T07:07:40Z</time>
      </trkpt>
      <trkpt lat="45.21217" lon="5.7292">
        <ele>797.448</ele>
        <time>2021-03-21T07:07:45Z</time>
      </trkpt>
      <trkpt lat="45.21216" lon="5.72927">
        <ele>795.023</ele>
        <time>2021-03-21T07:07:49Z</time>
      </trkpt>
      <trkpt lat="45.21216" lon="5.72929">
        <ele>795.224</ele>
        <time>2021-03-21T07:07:50Z</time>
      </trkpt>
      <trkpt lat="45.2122" lon="5.72944">
        <ele>792.242</ele>
        <time>2021-03-21T07:07:57Z</time>
      </trkpt>
      <trkpt lat="45.21211" lon="5.72946">
        <ele>791.557</ele>
        <time>2021-03-21T07:08:02Z</time>
      </trkpt>
      <trkpt lat="45.21209" lon="5.72944">
        <ele>790.552</ele>
        <time>2021-03-21T07:08:03Z</time>
      </trkpt>
      <trkpt lat="45.21207" lon="5.72939">
        <ele>789.907</ele>
        <time>2021-03-21T07:08:05Z</time>
      </trkpt>
      <trkpt lat="45.21203" lon="5.72932">
        <ele>789.306</ele>
        <time>2021-03-21T07:08:09Z</time>
      </trkpt>
      <trkpt lat="45.21195" lon="5.72921">
        <ele>785.806</ele>
        <time>2021-03-21T07:08:16Z</time>
      </trkpt>
      <trkpt lat="45.21191" lon="5.72918">
        <ele>784.439</ele>
        <time>2021-03-21T07:08:19Z</time>
      </trkpt>
      <trkpt lat="45.21179" lon="5.72907">
        <ele>781.843</ele>
        <time>2021-03-21T07:08:26Z</time>
      </trkpt>
      <trkpt lat="45.2117" lon="5.72901">
        <ele>779.956</ele>
        <time>2021-03-21T07:08:31Z</time>
      </trkpt>
      <trkpt lat="45.21162" lon="5.72897">
        <ele>778.537</ele>
        <time>2021-03-21T07:08:35Z</time>
      </trkpt>
      <trkpt lat="45.21149" lon="5.72894">
        <ele>776.827</ele>
        <time>2021-03-21T07:08:43Z</time>
      </trkpt>
      <trkpt lat="45.21142" lon="5.72889">
        <ele>774.417</ele>
        <time>2021-03-21T07:08:49Z</time>
      </trkpt>
      <trkpt lat="45.21139" lon="5.72889">
        <ele>773.307</ele>
        <time>2021-03-21T07:08:51Z</time>
      </trkpt>
      <trkpt lat="45.21131" lon="5.72888">
        <ele>771.241</ele>
        <time>2021-03-21T07:08:55Z</time>
      </trkpt>
      <trkpt lat="45.21119" lon="5.72874">
        <ele>769.23</ele>
        <time>2021-03-21T07:09:03Z</time>
      </trkpt>
      <trkpt lat="45.21112" lon="5.72868">
        <ele>769.144</ele>
        <time>2021-03-21T07:09:07Z</time>
      </trkpt>
      <trkpt lat="45.21109" lon="5.72861">
        <ele>769.282</ele>
        <time>2021-03-21T07:09:10Z</time>
      </trkpt>
      <trkpt lat="45.21105" lon="5.72859">
        <ele>767.608</ele>
        <time>2021-03-21T07:09:13Z</time>
      </trkpt>
      <trkpt lat="45.21098" lon="5.72854">
        <ele>765.682</ele>
        <time>2021-03-21T07:09:18Z</time>
      </trkpt>
      <trkpt lat="45.21096" lon="5.72851">
        <ele>765.891</ele>
        <time>2021-03-21T07:09:20Z</time>
      </trkpt>
      <trkpt lat="45.2109" lon="5.72845">
        <ele>765.244</ele>
        <time>2021-03-21T07:09:25Z</time>
      </trkpt>
      <trkpt lat="45.21086" lon="5.72836">
        <ele>763.773</ele>
        <time>2021-03-21T07:09:29Z</time>
      </trkpt>
      <trkpt lat="45.21076" lon="5.72818">
        <ele>762.273</ele>
        <time>2021-03-21T07:09:36Z</time>
      </trkpt>
      <trkpt lat="45.2107" lon="5.72801">
        <ele>762.039</ele>
        <time>2021-03-21T07:09:41Z</time>
      </trkpt>
      <trkpt lat="45.21062" lon="5.72782">
        <ele>761.303</ele>
        <time>2021-03-21T07:09:47Z</time>
      </trkpt>
      <trkpt lat="45.21061" lon="5.72781">
        <ele>760.958</ele>
        <time>2021-03-21T07:09:48Z</time>
      </trkpt>
      <trkpt lat="45.21053" lon="5.72763">
        <ele>759.793</ele>
        <time>2021-03-21T07:09:55Z</time>
      </trkpt>
      <trkpt lat="45.21044" lon="5.72752">
        <ele>757.585</ele>
        <time>2021-03-21T07:10:02Z</time>
      </trkpt>
      <trkpt lat="45.21035" lon="5.72749">
        <ele>754.706</ele>
        <time>2021-03-21T07:10:09Z</time>
      </trkpt>
      <trkpt lat="45.21027" lon="5.72746">
        <ele>752.454</ele>
        <time>2021-03-21T07:10:16Z</time>
      </trkpt>
      <trkpt lat="45.21026" lon="5.72746">
        <ele>752.272</ele>
        <time>2021-03-21T07:10:17Z</time>
      </trkpt>
      <trkpt lat="45.2102" lon="5.72748">
        <ele>749.703</ele>
        <time>2021-03-21T07:10:22Z</time>
      </trkpt>
      <trkpt lat="45.21015" lon="5.72746">
        <ele>748.812</ele>
        <time>2021-03-21T07:10:28Z</time>
      </trkpt>
      <trkpt lat="45.21009" lon="5.7275">
        <ele>745.836</ele>
        <time>2021-03-21T07:10:35Z</time>
      </trkpt>
      <trkpt lat="45.21005" lon="5.72754">
        <ele>743.448</ele>
        <time>2021-03-21T07:10:40Z</time>
      </trkpt>
      <trkpt lat="45.21003" lon="5.72757">
        <ele>741.924</ele>
        <time>2021-03-21T07:10:43Z</time>
      </trkpt>
      <trkpt lat="45.20999" lon="5.72757">
        <ele>740.023</ele>
        <time>2021-03-21T07:10:47Z</time>
      </trkpt>
      <trkpt lat="45.20991" lon="5.72761">
        <ele>737.909</ele>
        <time>2021-03-21T07:10:56Z</time>
      </trkpt>
      <trkpt lat="45.20989" lon="5.72757">
        <ele>734.67</ele>
        <time>2021-03-21T07:11:01Z</time>
      </trkpt>
      <trkpt lat="45.20984" lon="5.72752">
        <ele>731.818</ele>
        <time>2021-03-21T07:11:07Z</time>
      </trkpt>
      <trkpt lat="45.20977" lon="5.72744">
        <ele>728.676</ele>
        <time>2021-03-21T07:11:14Z</time>
      </trkpt>
      <trkpt lat="45.20973" lon="5.72734">
        <ele>725.515</ele>
        <time>2021-03-21T07:11:22Z</time>
      </trkpt>
      <trkpt lat="45.20971" lon="5.72731">
        <ele>724.714</ele>
        <time>2021-03-21T07:11:25Z</time>
      </trkpt>
      <trkpt lat="45.20966" lon="5.72727">
        <ele>723.725</ele>
        <time>2021-03-21T07:11:31Z</time>
      </trkpt>
      <trkpt lat="45.20963" lon="5.72726">
        <ele>721.834</ele>
        <time>2021-03-21T07:11:33Z</time>
      </trkpt>
      <trkpt lat="45.2096" lon="5.72723">
        <ele>719.838</ele>
        <time>2021-03-21T07:11:36Z</time>
      </trkpt>
      <trkpt lat="45.20955" lon="5.72719">
        <ele>718.117</ele>
        <time>2021-03-21T07:11:40Z</time>
      </trkpt>
      <trkpt lat="45.20947" lon="5.72705">
        <ele>714.943</ele>
        <time>2021-03-21T07:11:47Z</time>
      </trkpt>
      <trkpt lat="45.2094" lon="5.72695">
        <ele>712.901</ele>
        <time>2021-03-21T07:11:52Z</time>
      </trkpt>
      <trkpt lat="45.20938" lon="5.72693">
        <ele>712.239</ele>
        <time>2021-03-21T07:11:53Z</time>
      </trkpt>
      <trkpt lat="45.20928" lon="5.72685">
        <ele>709.03</ele>
        <time>2021-03-21T07:12:01Z</time>
      </trkpt>
      <trkpt lat="45.20924" lon="5.72683">
        <ele>707.924</ele>
        <time>2021-03-21T07:12:04Z</time>
      </trkpt>
      <trkpt lat="45.2092" lon="5.72682">
        <ele>706.983</ele>
        <time>2021-03-21T07:12:06Z</time>
      </trkpt>
      <trkpt lat="45.20915" lon="5.72683">
        <ele>705.069</ele>
        <time>2021-03-21T07:12:10Z</time>
      </trkpt>
      <trkpt lat="45.209" lon="5.72682">
        <ele>703.047</ele>
        <time>2021-03-21T07:12:18Z</time>
      </trkpt>
      <trkpt lat="45.20895" lon="5.72684">
        <ele>702.294</ele>
        <time>2021-03-21T07:12:21Z</time>
      </trkpt>
      <trkpt lat="45.2089" lon="5.72688">
        <ele>700.323</ele>
        <time>2021-03-21T07:12:24Z</time>
      </trkpt>
      <trkpt lat="45.20876" lon="5.72692">
        <ele>697.31</ele>
        <time>2021-03-21T07:12:31Z</time>
      </trkpt>
      <trkpt lat="45.20866" lon="5.72692">
        <ele>696.895</ele>
        <time>2021-03-21T07:12:36Z</time>
      </trkpt>
      <trkpt lat="45.20857" lon="5.72694">
        <ele>693.242</ele>
        <time>2021-03-21T07:12:42Z</time>
      </trkpt>
      <trkpt lat="45.20847" lon="5.72696">
        <ele>690.515</ele>
        <time>2021-03-21T07:12:49Z</time>
      </trkpt>
      <trkpt lat="45.20845" lon="5.72696">
        <ele>689.874</ele>
        <time>2021-03-21T07:12:50Z</time>
      </trkpt>
      <trkpt lat="45.20843" lon="5.72694">
        <ele>689.375</ele>
        <time>2021-03-21T07:12:52Z</time>
      </trkpt>
      <trkpt lat="45.20842" lon="5.7269">
        <ele>688.338</ele>
        <time>2021-03-21T07:12:54Z</time>
      </trkpt>
      <trkpt lat="45.20842" lon="5.72678">
        <ele>685.16</ele>
        <time>2021-03-21T07:13:00Z</time>
      </trkpt>
      <trkpt lat="45.20841" lon="5.7267">
        <ele>682.747</ele>
        <time>2021-03-21T07:13:05Z</time>
      </trkpt>
      <trkpt lat="45.20834" lon="5.7266">
        <ele>680.774</ele>
        <time>2021-03-21T07:13:12Z</time>
      </trkpt>
      <trkpt lat="45.20828" lon="5.72667">
        <ele>679.889</ele>
        <time>2021-03-21T07:13:17Z</time>
      </trkpt>
      <trkpt lat="45.20819" lon="5.72673">
        <ele>676.192</ele>
        <time>2021-03-21T07:13:23Z</time>
      </trkpt>
      <trkpt lat="45.20817" lon="5.72673">
        <ele>675.71</ele>
        <time>2021-03-21T07:13:24Z</time>
      </trkpt>
      <trkpt lat="45.20814" lon="5.72669">
        <ele>674.369</ele>
        <time>2021-03-21T07:13:27Z</time>
      </trkpt>
      <trkpt lat="45.20813" lon="5.7266">
        <ele>672.26</ele>
        <time>2021-03-21T07:13:32Z</time>
      </trkpt>
      <trkpt lat="45.20811" lon="5.72653">
        <ele>670.846</ele>
        <time>2021-03-21T07:13:35Z</time>
      </trkpt>
      <trkpt lat="45.2081" lon="5.72648">
        <ele>669.524</ele>
        <time>2021-03-21T07:13:38Z</time>
      </trkpt>
      <trkpt lat="45.20808" lon="5.72642">
        <ele>668.307</ele>
        <time>2021-03-21T07:13:42Z</time>
      </trkpt>
      <trkpt lat="45.20804" lon="5.72635">
        <ele>666.498</ele>
        <time>2021-03-21T07:13:46Z</time>
      </trkpt>
      <trkpt lat="45.208" lon="5.72632">
        <ele>664.801</ele>
        <time>2021-03-21T07:13:50Z</time>
      </trkpt>
      <trkpt lat="45.208" lon="5.72633">
        <ele>664.071</ele>
        <time>2021-03-21T07:13:51Z</time>
      </trkpt>
      <trkpt lat="45.20795" lon="5.72641">
        <ele>661.343</ele>
        <time>2021-03-21T07:13:57Z</time>
      </trkpt>
      <trkpt lat="45.20794" lon="5.72642">
        <ele>661.611</ele>
        <time>2021-03-21T07:13:58Z</time>
      </trkpt>
      <trkpt lat="45.20787" lon="5.72645">
        <ele>658.899</ele>
        <time>2021-03-21T07:14:05Z</time>
      </trkpt>
      <trkpt lat="45.20782" lon="5.72647">
        <ele>657.349</ele>
        <time>2021-03-21T07:14:08Z</time>
      </trkpt>
      <trkpt lat="45.2078" lon="5.72645">
        <ele>657.088</ele>
        <time>2021-03-21T07:14:10Z</time>
      </trkpt>
      <trkpt lat="45.2078" lon="5.72642">
        <ele>655.529</ele>
        <time>2021-03-21T07:14:13Z</time>
      </trkpt>
      <trkpt lat="45.20781" lon="5.7263">
        <ele>653.278</ele>
        <time>2021-03-21T07:14:19Z</time>
      </trkpt>
      <trkpt lat="45.20773" lon="5.72617">
        <ele>649.671</ele>
        <time>2021-03-21T07:14:27Z</time>
      </trkpt>
      <trkpt lat="45.20771" lon="5.72617">
        <ele>649.369</ele>
        <time>2021-03-21T07:14:28Z</time>
      </trkpt>
      <trkpt lat="45.2077" lon="5.72617">
        <ele>648.371</ele>
        <time>2021-03-21T07:14:29Z</time>
      </trkpt>
      <trkpt lat="45.20764" lon="5.72617">
        <ele>646.204</ele>
        <time>2021-03-21T07:14:33Z</time>
      </trkpt>
      <trkpt lat="45.20755" lon="5.72617">
        <ele>644.794</ele>
        <time>2021-03-21T07:14:39Z</time>
      </trkpt>
      <trkpt lat="45.20752" lon="5.72615">
        <ele>643.363</ele>
        <time>2021-03-21T07:14:42Z</time>
      </trkpt>
      <trkpt lat="45.20747" lon="5.72602">
        <ele>640.336</ele>
        <time>2021-03-21T07:14:50Z</time>
      </trkpt>
      <trkpt lat="45.20746" lon="5.72598">
        <ele>639.205</ele>
        <time>2021-03-21T07:14:52Z</time>
      </trkpt>
      <trkpt lat="45.2074" lon="5.7259">
        <ele>636.731</ele>
        <time>2021-03-21T07:14:58Z</time>
      </trkpt>
      <trkpt lat="45.20735" lon="5.72585">
        <ele>635.328</ele>
        <time>2021-03-21T07:15:02Z</time>
      </trkpt>
      <trkpt lat="45.20732" lon="5.72583">
        <ele>634.145</ele>
        <time>2021-03-21T07:15:04Z</time>
      </trkpt>
      <trkpt lat="45.20716" lon="5.72578">
        <ele>630.504</ele>
        <time>2021-03-21T07:15:13Z</time>
      </trkpt>
      <trkpt lat="45.20715" lon="5.72576">
        <ele>630.382</ele>
        <time>2021-03-21T07:15:14Z</time>
      </trkpt>
      <trkpt lat="45.20707" lon="5.72569">
        <ele>627.849</ele>
        <time>2021-03-21T07:15:20Z</time>
      </trkpt>
      <trkpt lat="45.20698" lon="5.72567">
        <ele>624.862</ele>
        <time>2021-03-21T07:15:25Z</time>
      </trkpt>
      <trkpt lat="45.20686" lon="5.72573">
        <ele>622.179</ele>
        <time>2021-03-21T07:15:32Z</time>
      </trkpt>
      <trkpt lat="45.20664" lon="5.72595">
        <ele>619.739</ele>
        <time>2021-03-21T07:15:40Z</time>
      </trkpt>
      <trkpt lat="45.20663" lon="5.72596">
        <ele>619.747</ele>
        <time>2021-03-21T07:15:41Z</time>
      </trkpt>
      <trkpt lat="45.20643" lon="5.72607">
        <ele>619.551</ele>
        <time>2021-03-21T07:15:47Z</time>
      </trkpt>
      <trkpt lat="45.20632" lon="5.72606">
        <ele>618.457</ele>
        <time>2021-03-21T07:15:51Z</time>
      </trkpt>
      <trkpt lat="45.20625" lon="5.72603">
        <ele>617.099</ele>
        <time>2021-03-21T07:15:54Z</time>
      </trkpt>
      <trkpt lat="45.20616" lon="5.726">
        <ele>615.381</ele>
        <time>2021-03-21T07:15:58Z</time>
      </trkpt>
      <trkpt lat="45.20614" lon="5.72598">
        <ele>614.827</ele>
        <time>2021-03-21T07:15:59Z</time>
      </trkpt>
      <trkpt lat="45.206" lon="5.72586">
        <ele>614.287</ele>
        <time>2021-03-21T07:16:05Z</time>
      </trkpt>
      <trkpt lat="45.2059" lon="5.72577">
        <ele>612.883</ele>
        <time>2021-03-21T07:16:10Z</time>
      </trkpt>
      <trkpt lat="45.20586" lon="5.72575">
        <ele>612.189</ele>
        <time>2021-03-21T07:16:12Z</time>
      </trkpt>
      <trkpt lat="45.20572" lon="5.72564">
        <ele>609.928</ele>
        <time>2021-03-21T07:16:19Z</time>
      </trkpt>
      <trkpt lat="45.2057" lon="5.72564">
        <ele>610.199</ele>
        <time>2021-03-21T07:16:20Z</time>
      </trkpt>
      <trkpt lat="45.20558" lon="5.72563">
        <ele>608.814</ele>
        <time>2021-03-21T07:16:25Z</time>
      </trkpt>
      <trkpt lat="45.20536" lon="5.72558">
        <ele>610.458</ele>
        <time>2021-03-21T07:16:33Z</time>
      </trkpt>
      <trkpt lat="45.20518" lon="5.72554">
        <ele>611.318</ele>
        <time>2021-03-21T07:16:40Z</time>
      </trkpt>
      <trkpt lat="45.20506" lon="5.7254">
        <ele>610.765</ele>
        <time>2021-03-21T07:16:47Z</time>
      </trkpt>
      <trkpt lat="45.20496" lon="5.72518">
        <ele>610.27</ele>
        <time>2021-03-21T07:16:54Z</time>
      </trkpt>
      <trkpt lat="45.20489" lon="5.725">
        <ele>609.909</ele>
        <time>2021-03-21T07:17:00Z</time>
      </trkpt>
      <trkpt lat="45.20484" lon="5.72479">
        <ele>610.916</ele>
        <time>2021-03-21T07:17:06Z</time>
      </trkpt>
      <trkpt lat="45.20482" lon="5.72467">
        <ele>612.52</ele>
        <time>2021-03-21T07:17:10Z</time>
      </trkpt>
      <trkpt lat="45.20475" lon="5.72447">
        <ele>615.447</ele>
        <time>2021-03-21T07:17:18Z</time>
      </trkpt>
      <trkpt lat="45.20474" lon="5.72444">
        <ele>615.45</ele>
        <time>2021-03-21T07:17:19Z</time>
      </trkpt>
      <trkpt lat="45.20474" lon="5.72439">
        <ele>615.322</ele>
        <time>2021-03-21T07:17:21Z</time>
      </trkpt>
      <trkpt lat="45.20479" lon="5.72453">
        <ele>615.216</ele>
        <time>2021-03-21T07:17:27Z</time>
      </trkpt>
      <trkpt lat="45.20482" lon="5.72459">
        <ele>614.119</ele>
        <time>2021-03-21T07:17:30Z</time>
      </trkpt>
      <trkpt lat="45.20479" lon="5.72477">
        <ele>610.845</ele>
        <time>2021-03-21T07:17:36Z</time>
      </trkpt>
      <trkpt lat="45.20481" lon="5.72482">
        <ele>609.795</ele>
        <time>2021-03-21T07:17:38Z</time>
      </trkpt>
      <trkpt lat="45.2049" lon="5.72508">
        <ele>609.852</ele>
        <time>2021-03-21T07:17:45Z</time>
      </trkpt>
      <trkpt lat="45.20497" lon="5.72525">
        <ele>610.388</ele>
        <time>2021-03-21T07:17:50Z</time>
      </trkpt>
      <trkpt lat="45.20511" lon="5.72544">
        <ele>611.21</ele>
        <time>2021-03-21T07:17:57Z</time>
      </trkpt>
      <trkpt lat="45.20519" lon="5.72556">
        <ele>612.205</ele>
        <time>2021-03-21T07:18:02Z</time>
      </trkpt>
      <trkpt lat="45.20529" lon="5.72561">
        <ele>610.625</ele>
        <time>2021-03-21T07:18:07Z</time>
      </trkpt>
      <trkpt lat="45.20533" lon="5.72561">
        <ele>610.291</ele>
        <time>2021-03-21T07:18:09Z</time>
      </trkpt>
      <trkpt lat="45.20537" lon="5.72568">
        <ele>608.342</ele>
        <time>2021-03-21T07:18:13Z</time>
      </trkpt>
      <trkpt lat="45.20531" lon="5.72571">
        <ele>607.823</ele>
        <time>2021-03-21T07:18:16Z</time>
      </trkpt>
      <trkpt lat="45.20516" lon="5.72573">
        <ele>606.624</ele>
        <time>2021-03-21T07:18:22Z</time>
      </trkpt>
      <trkpt lat="45.20513" lon="5.72573">
        <ele>606.721</ele>
        <time>2021-03-21T07:18:23Z</time>
      </trkpt>
      <trkpt lat="45.20493" lon="5.72567">
        <ele>605.823</ele>
        <time>2021-03-21T07:18:31Z</time>
      </trkpt>
      <trkpt lat="45.20481" lon="5.72555">
        <ele>604.331</ele>
        <time>2021-03-21T07:18:37Z</time>
      </trkpt>
      <trkpt lat="45.20473" lon="5.72545">
        <ele>602.529</ele>
        <time>2021-03-21T07:18:42Z</time>
      </trkpt>
      <trkpt lat="45.2046" lon="5.72528">
        <ele>600.197</ele>
        <time>2021-03-21T07:18:50Z</time>
      </trkpt>
      <trkpt lat="45.20459" lon="5.72525">
        <ele>599.965</ele>
        <time>2021-03-21T07:18:51Z</time>
      </trkpt>
      <trkpt lat="45.20451" lon="5.72517">
        <ele>599.473</ele>
        <time>2021-03-21T07:18:55Z</time>
      </trkpt>
      <trkpt lat="45.20448" lon="5.72519">
        <ele>598.665</ele>
        <time>2021-03-21T07:18:57Z</time>
      </trkpt>
      <trkpt lat="45.20448" lon="5.72534">
        <ele>596.355</ele>
        <time>2021-03-21T07:19:03Z</time>
      </trkpt>
      <trkpt lat="45.20454" lon="5.72548">
        <ele>595.562</ele>
        <time>2021-03-21T07:19:08Z</time>
      </trkpt>
      <trkpt lat="45.20465" lon="5.72566">
        <ele>594.5</ele>
        <time>2021-03-21T07:19:14Z</time>
      </trkpt>
      <trkpt lat="45.20466" lon="5.72569">
        <ele>593.88</ele>
        <time>2021-03-21T07:19:15Z</time>
      </trkpt>
      <trkpt lat="45.20473" lon="5.72582">
        <ele>593.063</ele>
        <time>2021-03-21T07:19:19Z</time>
      </trkpt>
      <trkpt lat="45.20484" lon="5.726">
        <ele>590.507</ele>
        <time>2021-03-21T07:19:25Z</time>
      </trkpt>
      <trkpt lat="45.20486" lon="5.7261">
        <ele>589.085</ele>
        <time>2021-03-21T07:19:28Z</time>
      </trkpt>
      <trkpt lat="45.20493" lon="5.72624">
        <ele>588.264</ele>
        <time>2021-03-21T07:19:34Z</time>
      </trkpt>
      <trkpt lat="45.20508" lon="5.72631">
        <ele>586.739</ele>
        <time>2021-03-21T07:19:41Z</time>
      </trkpt>
      <trkpt lat="45.2052" lon="5.72639">
        <ele>584.877</ele>
        <time>2021-03-21T07:19:47Z</time>
      </trkpt>
      <trkpt lat="45.20532" lon="5.72654">
        <ele>583.206</ele>
        <time>2021-03-21T07:19:53Z</time>
      </trkpt>
      <trkpt lat="45.20541" lon="5.72669">
        <ele>581.097</ele>
        <time>2021-03-21T07:19:59Z</time>
      </trkpt>
      <trkpt lat="45.20553" lon="5.72684">
        <ele>580.332</ele>
        <time>2021-03-21T07:20:05Z</time>
      </trkpt>
      <trkpt lat="45.20566" lon="5.72698">
        <ele>579.493</ele>
        <time>2021-03-21T07:20:11Z</time>
      </trkpt>
      <trkpt lat="45.20579" lon="5.72708">
        <ele>579.289</ele>
        <time>2021-03-21T07:20:16Z</time>
      </trkpt>
      <trkpt lat="45.2057" lon="5.7271">
        <ele>577.921</ele>
        <time>2021-03-21T07:20:22Z</time>
      </trkpt>
      <trkpt lat="45.20568" lon="5.72709">
        <ele>577.648</ele>
        <time>2021-03-21T07:20:23Z</time>
      </trkpt>
      <trkpt lat="45.20553" lon="5.72695">
        <ele>574.052</ele>
        <time>2021-03-21T07:20:31Z</time>
      </trkpt>
      <trkpt lat="45.20549" lon="5.72692">
        <ele>573.296</ele>
        <time>2021-03-21T07:20:33Z</time>
      </trkpt>
      <trkpt lat="45.20534" lon="5.72681">
        <ele>570.869</ele>
        <time>2021-03-21T07:20:40Z</time>
      </trkpt>
      <trkpt lat="45.20523" lon="5.72671">
        <ele>569.096</ele>
        <time>2021-03-21T07:20:46Z</time>
      </trkpt>
      <trkpt lat="45.20507" lon="5.72664">
        <ele>566.966</ele>
        <time>2021-03-21T07:20:53Z</time>
      </trkpt>
      <trkpt lat="45.20493" lon="5.72655">
        <ele>565.336</ele>
        <time>2021-03-21T07:21:00Z</time>
      </trkpt>
      <trkpt lat="45.20492" lon="5.72653">
        <ele>565.142</ele>
        <time>2021-03-21T07:21:01Z</time>
      </trkpt>
      <trkpt lat="45.2049" lon="5.72651">
        <ele>564.867</ele>
        <time>2021-03-21T07:21:02Z</time>
      </trkpt>
      <trkpt lat="45.20477" lon="5.72642">
        <ele>562.932</ele>
        <time>2021-03-21T07:21:09Z</time>
      </trkpt>
      <trkpt lat="45.20463" lon="5.72638">
        <ele>561.103</ele>
        <time>2021-03-21T07:21:15Z</time>
      </trkpt>
      <trkpt lat="45.20456" lon="5.72635">
        <ele>559.77</ele>
        <time>2021-03-21T07:21:18Z</time>
      </trkpt>
      <trkpt lat="45.2044" lon="5.7262">
        <ele>558.403</ele>
        <time>2021-03-21T07:21:25Z</time>
      </trkpt>
      <trkpt lat="45.20435" lon="5.72614">
        <ele>558.193</ele>
        <time>2021-03-21T07:21:28Z</time>
      </trkpt>
      <trkpt lat="45.20424" lon="5.72627">
        <ele>556.23</ele>
        <time>2021-03-21T07:21:33Z</time>
      </trkpt>
      <trkpt lat="45.20425" lon="5.7263">
        <ele>555.716</ele>
        <time>2021-03-21T07:21:34Z</time>
      </trkpt>
      <trkpt lat="45.20435" lon="5.72656">
        <ele>553.769</ele>
        <time>2021-03-21T07:21:43Z</time>
      </trkpt>
      <trkpt lat="45.20443" lon="5.72665">
        <ele>551.325</ele>
        <time>2021-03-21T07:21:47Z</time>
      </trkpt>
      <trkpt lat="45.20455" lon="5.72677">
        <ele>549.455</ele>
        <time>2021-03-21T07:21:55Z</time>
      </trkpt>
      <trkpt lat="45.20461" lon="5.72679">
        <ele>548.866</ele>
        <time>2021-03-21T07:21:58Z</time>
      </trkpt>
      <trkpt lat="45.20479" lon="5.72699">
        <ele>546.74</ele>
        <time>2021-03-21T07:22:07Z</time>
      </trkpt>
      <trkpt lat="45.20491" lon="5.72712">
        <ele>544.88</ele>
        <time>2021-03-21T07:22:13Z</time>
      </trkpt>
      <trkpt lat="45.20506" lon="5.72722">
        <ele>543.75</ele>
        <time>2021-03-21T07:22:19Z</time>
      </trkpt>
      <trkpt lat="45.20517" lon="5.72731">
        <ele>541.693</ele>
        <time>2021-03-21T07:22:24Z</time>
      </trkpt>
      <trkpt lat="45.20518" lon="5.7274">
        <ele>540.417</ele>
        <time>2021-03-21T07:22:28Z</time>
      </trkpt>
      <trkpt lat="45.20508" lon="5.72734">
        <ele>538.934</ele>
        <time>2021-03-21T07:22:32Z</time>
      </trkpt>
      <trkpt lat="45.20491" lon="5.72721">
        <ele>537.581</ele>
        <time>2021-03-21T07:22:40Z</time>
      </trkpt>
      <trkpt lat="45.20476" lon="5.72712">
        <ele>534.814</ele>
        <time>2021-03-21T07:22:48Z</time>
      </trkpt>
      <trkpt lat="45.20472" lon="5.7271">
        <ele>534.133</ele>
        <time>2021-03-21T07:22:50Z</time>
      </trkpt>
      <trkpt lat="45.20463" lon="5.72708">
        <ele>532.372</ele>
        <time>2021-03-21T07:22:54Z</time>
      </trkpt>
      <trkpt lat="45.20449" lon="5.72704">
        <ele>529.869</ele>
        <time>2021-03-21T07:23:00Z</time>
      </trkpt>
      <trkpt lat="45.2043" lon="5.72698">
        <ele>528.054</ele>
        <time>2021-03-21T07:23:07Z</time>
      </trkpt>
      <trkpt lat="45.20423" lon="5.72695">
        <ele>526.667</ele>
        <time>2021-03-21T07:23:10Z</time>
      </trkpt>
      <trkpt lat="45.20417" lon="5.7269">
        <ele>524.895</ele>
        <time>2021-03-21T07:23:13Z</time>
      </trkpt>
      <trkpt lat="45.20404" lon="5.72677">
        <ele>523.115</ele>
        <time>2021-03-21T07:23:20Z</time>
      </trkpt>
      <trkpt lat="45.20393" lon="5.72668">
        <ele>521.997</ele>
        <time>2021-03-21T07:23:25Z</time>
      </trkpt>
      <trkpt lat="45.20387" lon="5.72661">
        <ele>520.379</ele>
        <time>2021-03-21T07:23:28Z</time>
      </trkpt>
      <trkpt lat="45.20383" lon="5.72657">
        <ele>519.309</ele>
        <time>2021-03-21T07:23:30Z</time>
      </trkpt>
      <trkpt lat="45.20375" lon="5.72649">
        <ele>518.515</ele>
        <time>2021-03-21T07:23:33Z</time>
      </trkpt>
      <trkpt lat="45.20361" lon="5.72639">
        <ele>516.546</ele>
        <time>2021-03-21T07:23:40Z</time>
      </trkpt>
      <trkpt lat="45.20359" lon="5.72638">
        <ele>515.971</ele>
        <time>2021-03-21T07:23:41Z</time>
      </trkpt>
      <trkpt lat="45.20346" lon="5.72629">
        <ele>514.462</ele>
        <time>2021-03-21T07:23:48Z</time>
      </trkpt>
      <trkpt lat="45.20343" lon="5.72625">
        <ele>513.837</ele>
        <time>2021-03-21T07:23:50Z</time>
      </trkpt>
      <trkpt lat="45.20333" lon="5.72615">
        <ele>511.729</ele>
        <time>2021-03-21T07:23:56Z</time>
      </trkpt>
      <trkpt lat="45.20329" lon="5.72612">
        <ele>510.914</ele>
        <time>2021-03-21T07:23:58Z</time>
      </trkpt>
      <trkpt lat="45.20327" lon="5.72611">
        <ele>510.51</ele>
        <time>2021-03-21T07:23:59Z</time>
      </trkpt>
      <trkpt lat="45.20306" lon="5.72597">
        <ele>510.525</ele>
        <time>2021-03-21T07:24:11Z</time>
      </trkpt>
      <trkpt lat="45.20296" lon="5.72596">
        <ele>506.292</ele>
        <time>2021-03-21T07:24:15Z</time>
      </trkpt>
      <trkpt lat="45.20292" lon="5.72597">
        <ele>504.729</ele>
        <time>2021-03-21T07:24:17Z</time>
      </trkpt>
      <trkpt lat="45.20285" lon="5.72597">
        <ele>503.178</ele>
        <time>2021-03-21T07:24:21Z</time>
      </trkpt>
      <trkpt lat="45.20279" lon="5.72602">
        <ele>502.672</ele>
        <time>2021-03-21T07:24:22Z</time>
      </trkpt>
      <trkpt lat="45.20274" lon="5.72598">
        <ele>501.841</ele>
        <time>2021-03-21T07:24:26Z</time>
      </trkpt>
      <trkpt lat="45.20268" lon="5.72598">
        <ele>500.612</ele>
        <time>2021-03-21T07:24:29Z</time>
      </trkpt>
      <trkpt lat="45.20256" lon="5.72596">
        <ele>498.758</ele>
        <time>2021-03-21T07:24:34Z</time>
      </trkpt>
      <trkpt lat="45.20239" lon="5.72587">
        <ele>495.877</ele>
        <time>2021-03-21T07:24:42Z</time>
      </trkpt>
      <trkpt lat="45.20228" lon="5.72577">
        <ele>494.223</ele>
        <time>2021-03-21T07:24:48Z</time>
      </trkpt>
      <trkpt lat="45.20225" lon="5.72576">
        <ele>494.175</ele>
        <time>2021-03-21T07:24:49Z</time>
      </trkpt>
      <trkpt lat="45.20218" lon="5.7257">
        <ele>492.952</ele>
        <time>2021-03-21T07:24:53Z</time>
      </trkpt>
      <trkpt lat="45.20204" lon="5.72583">
        <ele>491.653</ele>
        <time>2021-03-21T07:24:58Z</time>
      </trkpt>
      <trkpt lat="45.20204" lon="5.72592">
        <ele>489.054</ele>
        <time>2021-03-21T07:25:03Z</time>
      </trkpt>
      <trkpt lat="45.20217" lon="5.72605">
        <ele>487.791</ele>
        <time>2021-03-21T07:25:11Z</time>
      </trkpt>
      <trkpt lat="45.20226" lon="5.72618">
        <ele>485.599</ele>
        <time>2021-03-21T07:25:18Z</time>
      </trkpt>
      <trkpt lat="45.20236" lon="5.7263">
        <ele>484.399</ele>
        <time>2021-03-21T07:25:25Z</time>
      </trkpt>
      <trkpt lat="45.20245" lon="5.72637">
        <ele>483.854</ele>
        <time>2021-03-21T07:25:30Z</time>
      </trkpt>
      <trkpt lat="45.20257" lon="5.72649">
        <ele>480.452</ele>
        <time>2021-03-21T07:25:37Z</time>
      </trkpt>
      <trkpt lat="45.20268" lon="5.7266">
        <ele>479.25</ele>
        <time>2021-03-21T07:25:43Z</time>
      </trkpt>
      <trkpt lat="45.20271" lon="5.72669">
        <ele>477.167</ele>
        <time>2021-03-21T07:25:47Z</time>
      </trkpt>
      <trkpt lat="45.20273" lon="5.72673">
        <ele>474.918</ele>
        <time>2021-03-21T07:25:49Z</time>
      </trkpt>
      <trkpt lat="45.20277" lon="5.72678">
        <ele>476.783</ele>
        <time>2021-03-21T07:25:52Z</time>
      </trkpt>
      <trkpt lat="45.20284" lon="5.72691">
        <ele>478.791</ele>
        <time>2021-03-21T07:25:59Z</time>
      </trkpt>
      <trkpt lat="45.20288" lon="5.72695">
        <ele>479.324</ele>
        <time>2021-03-21T07:26:03Z</time>
      </trkpt>
      <trkpt lat="45.20293" lon="5.72698">
        <ele>479.29</ele>
        <time>2021-03-21T07:26:06Z</time>
      </trkpt>
      <trkpt lat="45.20303" lon="5.72704">
        <ele>480.081</ele>
        <time>2021-03-21T07:26:11Z</time>
      </trkpt>
      <trkpt lat="45.20315" lon="5.72709">
        <ele>480.303</ele>
        <time>2021-03-21T07:26:18Z</time>
      </trkpt>
      <trkpt lat="45.20325" lon="5.72717">
        <ele>480.637</ele>
        <time>2021-03-21T07:26:25Z</time>
      </trkpt>
      <trkpt lat="45.20333" lon="5.72727">
        <ele>481.929</ele>
        <time>2021-03-21T07:26:32Z</time>
      </trkpt>
      <trkpt lat="45.20339" lon="5.72731">
        <ele>482.864</ele>
        <time>2021-03-21T07:26:36Z</time>
      </trkpt>
      <trkpt lat="45.20345" lon="5.72738">
        <ele>483.974</ele>
        <time>2021-03-21T07:26:40Z</time>
      </trkpt>
      <trkpt lat="45.20358" lon="5.72748">
        <ele>487.557</ele>
        <time>2021-03-21T07:26:48Z</time>
      </trkpt>
      <trkpt lat="45.20367" lon="5.72758">
        <ele>488.428</ele>
        <time>2021-03-21T07:26:54Z</time>
      </trkpt>
      <trkpt lat="45.20376" lon="5.72766">
        <ele>489.502</ele>
        <time>2021-03-21T07:27:01Z</time>
      </trkpt>
      <trkpt lat="45.2038" lon="5.72768">
        <ele>490.161</ele>
        <time>2021-03-21T07:27:03Z</time>
      </trkpt>
      <trkpt lat="45.2039" lon="5.72771">
        <ele>491.178</ele>
        <time>2021-03-21T07:27:09Z</time>
      </trkpt>
      <trkpt lat="45.20392" lon="5.72774">
        <ele>491.284</ele>
        <time>2021-03-21T07:27:11Z</time>
      </trkpt>
      <trkpt lat="45.20401" lon="5.72785">
        <ele>492.39</ele>
        <time>2021-03-21T07:27:18Z</time>
      </trkpt>
      <trkpt lat="45.20409" lon="5.72793">
        <ele>493.793</ele>
        <time>2021-03-21T07:27:23Z</time>
      </trkpt>
      <trkpt lat="45.20421" lon="5.72808">
        <ele>495.087</ele>
        <time>2021-03-21T07:27:32Z</time>
      </trkpt>
      <trkpt lat="45.2044" lon="5.7282">
        <ele>495.317</ele>
        <time>2021-03-21T07:27:40Z</time>
      </trkpt>
      <trkpt lat="45.20447" lon="5.7283">
        <ele>495.623</ele>
        <time>2021-03-21T07:27:46Z</time>
      </trkpt>
      <trkpt lat="45.2046" lon="5.7284">
        <ele>496.925</ele>
        <time>2021-03-21T07:27:52Z</time>
      </trkpt>
      <trkpt lat="45.20483" lon="5.72853">
        <ele>497.578</ele>
        <time>2021-03-21T07:28:00Z</time>
      </trkpt>
      <trkpt lat="45.20502" lon="5.72859">
        <ele>497.802</ele>
        <time>2021-03-21T07:28:05Z</time>
      </trkpt>
      <trkpt lat="45.2051" lon="5.72867">
        <ele>497.505</ele>
        <time>2021-03-21T07:28:11Z</time>
      </trkpt>
      <trkpt lat="45.20516" lon="5.72877">
        <ele>496.944</ele>
        <time>2021-03-21T07:28:18Z</time>
      </trkpt>
      <trkpt lat="45.20527" lon="5.72893">
        <ele>494.985</ele>
        <time>2021-03-21T07:28:25Z</time>
      </trkpt>
      <trkpt lat="45.20533" lon="5.72903">
        <ele>494.68</ele>
        <time>2021-03-21T07:28:31Z</time>
      </trkpt>
      <trkpt lat="45.20547" lon="5.7291">
        <ele>494.312</ele>
        <time>2021-03-21T07:28:38Z</time>
      </trkpt>
      <trkpt lat="45.20562" lon="5.72918">
        <ele>493.941</ele>
        <time>2021-03-21T07:28:44Z</time>
      </trkpt>
      <trkpt lat="45.20563" lon="5.72919">
        <ele>493.596</ele>
        <time>2021-03-21T07:28:45Z</time>
      </trkpt>
      <trkpt lat="45.20571" lon="5.72922">
        <ele>493.423</ele>
        <time>2021-03-21T07:28:49Z</time>
      </trkpt>
      <trkpt lat="45.20588" lon="5.72932">
        <ele>493.425</ele>
        <time>2021-03-21T07:28:57Z</time>
      </trkpt>
      <trkpt lat="45.20601" lon="5.72941">
        <ele>492.785</ele>
        <time>2021-03-21T07:29:03Z</time>
      </trkpt>
      <trkpt lat="45.20612" lon="5.7295">
        <ele>493.225</ele>
        <time>2021-03-21T07:29:09Z</time>
      </trkpt>
      <trkpt lat="45.20623" lon="5.72963">
        <ele>492.707</ele>
        <time>2021-03-21T07:29:16Z</time>
      </trkpt>
      <trkpt lat="45.20626" lon="5.72973">
        <ele>493.222</ele>
        <time>2021-03-21T07:29:21Z</time>
      </trkpt>
      <trkpt lat="45.20638" lon="5.72986">
        <ele>492.931</ele>
        <time>2021-03-21T07:29:29Z</time>
      </trkpt>
      <trkpt lat="45.20651" lon="5.72996">
        <ele>493.573</ele>
        <time>2021-03-21T07:29:35Z</time>
      </trkpt>
      <trkpt lat="45.20664" lon="5.73009">
        <ele>493.7</ele>
        <time>2021-03-21T07:29:42Z</time>
      </trkpt>
      <trkpt lat="45.2068" lon="5.73023">
        <ele>493.3</ele>
        <time>2021-03-21T07:29:50Z</time>
      </trkpt>
      <trkpt lat="45.20689" lon="5.73034">
        <ele>494.752</ele>
        <time>2021-03-21T07:29:55Z</time>
      </trkpt>
      <trkpt lat="45.20695" lon="5.73038">
        <ele>494.883</ele>
        <time>2021-03-21T07:29:58Z</time>
      </trkpt>
      <trkpt lat="45.20706" lon="5.73049">
        <ele>495.276</ele>
        <time>2021-03-21T07:30:05Z</time>
      </trkpt>
      <trkpt lat="45.2072" lon="5.73059">
        <ele>497.427</ele>
        <time>2021-03-21T07:30:13Z</time>
      </trkpt>
      <trkpt lat="45.20729" lon="5.73068">
        <ele>498.132</ele>
        <time>2021-03-21T07:30:20Z</time>
      </trkpt>
      <trkpt lat="45.20732" lon="5.73071">
        <ele>496.332</ele>
        <time>2021-03-21T07:30:22Z</time>
      </trkpt>
      <trkpt lat="45.20743" lon="5.73082">
        <ele>495.59</ele>
        <time>2021-03-21T07:30:28Z</time>
      </trkpt>
      <trkpt lat="45.20754" lon="5.73091">
        <ele>496.345</ele>
        <time>2021-03-21T07:30:34Z</time>
      </trkpt>
      <trkpt lat="45.20758" lon="5.73095">
        <ele>496.844</ele>
        <time>2021-03-21T07:30:38Z</time>
      </trkpt>
      <trkpt lat="45.20772" lon="5.73102">
        <ele>496.443</ele>
        <time>2021-03-21T07:30:44Z</time>
      </trkpt>
      <trkpt lat="45.20778" lon="5.73111">
        <ele>495.662</ele>
        <time>2021-03-21T07:30:48Z</time>
      </trkpt>
      <trkpt lat="45.20787" lon="5.7312">
        <ele>494.502</ele>
        <time>2021-03-21T07:30:55Z</time>
      </trkpt>
      <trkpt lat="45.2079" lon="5.73122">
        <ele>494.023</ele>
        <time>2021-03-21T07:30:57Z</time>
      </trkpt>
      <trkpt lat="45.20791" lon="5.73139">
        <ele>494.078</ele>
        <time>2021-03-21T07:31:02Z</time>
      </trkpt>
      <trkpt lat="45.20792" lon="5.73146">
        <ele>491.934</ele>
        <time>2021-03-21T07:31:06Z</time>
      </trkpt>
      <trkpt lat="45.20792" lon="5.73158">
        <ele>489.67</ele>
        <time>2021-03-21T07:31:12Z</time>
      </trkpt>
      <trkpt lat="45.20795" lon="5.73166">
        <ele>487.858</ele>
        <time>2021-03-21T07:31:16Z</time>
      </trkpt>
      <trkpt lat="45.20798" lon="5.73173">
        <ele>486.888</ele>
        <time>2021-03-21T07:31:19Z</time>
      </trkpt>
      <trkpt lat="45.20809" lon="5.73187">
        <ele>485.873</ele>
        <time>2021-03-21T07:31:26Z</time>
      </trkpt>
      <trkpt lat="45.20816" lon="5.73206">
        <ele>485.009</ele>
        <time>2021-03-21T07:31:33Z</time>
      </trkpt>
      <trkpt lat="45.20827" lon="5.73227">
        <ele>483.457</ele>
        <time>2021-03-21T07:31:39Z</time>
      </trkpt>
      <trkpt lat="45.20836" lon="5.73247">
        <ele>481.429</ele>
        <time>2021-03-21T07:31:46Z</time>
      </trkpt>
      <trkpt lat="45.20843" lon="5.73269">
        <ele>481.104</ele>
        <time>2021-03-21T07:31:53Z</time>
      </trkpt>
      <trkpt lat="45.20854" lon="5.73284">
        <ele>480.231</ele>
        <time>2021-03-21T07:31:59Z</time>
      </trkpt>
      <trkpt lat="45.20857" lon="5.73288">
        <ele>480.952</ele>
        <time>2021-03-21T07:32:01Z</time>
      </trkpt>
      <trkpt lat="45.20859" lon="5.733">
        <ele>479.489</ele>
        <time>2021-03-21T07:32:08Z</time>
      </trkpt>
      <trkpt lat="45.20858" lon="5.73288">
        <ele>481.049</ele>
        <time>2021-03-21T07:32:18Z</time>
      </trkpt>
      <trkpt lat="45.2085" lon="5.73273">
        <ele>480.894</ele>
        <time>2021-03-21T07:32:25Z</time>
      </trkpt>
      <trkpt lat="45.20849" lon="5.73271">
        <ele>480.931</ele>
        <time>2021-03-21T07:32:26Z</time>
      </trkpt>
      <trkpt lat="45.2084" lon="5.73254">
        <ele>481.069</ele>
        <time>2021-03-21T07:32:33Z</time>
      </trkpt>
      <trkpt lat="45.20834" lon="5.73237">
        <ele>482.861</ele>
        <time>2021-03-21T07:32:40Z</time>
      </trkpt>
      <trkpt lat="45.20829" lon="5.73234">
        <ele>483.025</ele>
        <time>2021-03-21T07:32:43Z</time>
      </trkpt>
      <trkpt lat="45.20821" lon="5.73219">
        <ele>484.875</ele>
        <time>2021-03-21T07:32:52Z</time>
      </trkpt>
      <trkpt lat="45.20821" lon="5.73216">
        <ele>485.436</ele>
        <time>2021-03-21T07:32:53Z</time>
      </trkpt>
      <trkpt lat="45.20817" lon="5.73208">
        <ele>485.77</ele>
        <time>2021-03-21T07:32:57Z</time>
      </trkpt>
      <trkpt lat="45.20812" lon="5.73198">
        <ele>486.685</ele>
        <time>2021-03-21T07:33:03Z</time>
      </trkpt>
      <trkpt lat="45.20809" lon="5.73191">
        <ele>487.258</ele>
        <time>2021-03-21T07:33:07Z</time>
      </trkpt>
      <trkpt lat="45.20804" lon="5.7318">
        <ele>488.123</ele>
        <time>2021-03-21T07:33:13Z</time>
      </trkpt>
      <trkpt lat="45.20801" lon="5.73168">
        <ele>488.872</ele>
        <time>2021-03-21T07:33:19Z</time>
      </trkpt>
      <trkpt lat="45.20799" lon="5.73163">
        <ele>490.3</ele>
        <time>2021-03-21T07:33:22Z</time>
      </trkpt>
      <trkpt lat="45.20796" lon="5.73151">
        <ele>493.301</ele>
        <time>2021-03-21T07:33:31Z</time>
      </trkpt>
      <trkpt lat="45.20791" lon="5.7314">
        <ele>495.56</ele>
        <time>2021-03-21T07:33:39Z</time>
      </trkpt>
      <trkpt lat="45.2078" lon="5.73133">
        <ele>496.337</ele>
        <time>2021-03-21T07:33:45Z</time>
      </trkpt>
      <trkpt lat="45.20775" lon="5.73128">
        <ele>496.637</ele>
        <time>2021-03-21T07:33:48Z</time>
      </trkpt>
      <trkpt lat="45.20767" lon="5.73123">
        <ele>496.83</ele>
        <time>2021-03-21T07:33:54Z</time>
      </trkpt>
      <trkpt lat="45.2076" lon="5.73111">
        <ele>498.344</ele>
        <time>2021-03-21T07:34:02Z</time>
      </trkpt>
      <trkpt lat="45.20751" lon="5.73105">
        <ele>498.766</ele>
        <time>2021-03-21T07:34:07Z</time>
      </trkpt>
      <trkpt lat="45.20738" lon="5.73096">
        <ele>498.202</ele>
        <time>2021-03-21T07:34:15Z</time>
      </trkpt>
      <trkpt lat="45.20729" lon="5.73083">
        <ele>498.736</ele>
        <time>2021-03-21T07:34:23Z</time>
      </trkpt>
      <trkpt lat="45.20722" lon="5.73068">
        <ele>499.01</ele>
        <time>2021-03-21T07:34:30Z</time>
      </trkpt>
      <trkpt lat="45.2072" lon="5.73067">
        <ele>499.024</ele>
        <time>2021-03-21T07:34:31Z</time>
      </trkpt>
      <trkpt lat="45.20712" lon="5.73056">
        <ele>498.66</ele>
        <time>2021-03-21T07:34:38Z</time>
      </trkpt>
      <trkpt lat="45.20709" lon="5.73054">
        <ele>498.989</ele>
        <time>2021-03-21T07:34:40Z</time>
      </trkpt>
      <trkpt lat="45.20702" lon="5.73046">
        <ele>498.458</ele>
        <time>2021-03-21T07:34:46Z</time>
      </trkpt>
      <trkpt lat="45.20697" lon="5.73039">
        <ele>497.977</ele>
        <time>2021-03-21T07:34:50Z</time>
      </trkpt>
      <trkpt lat="45.20685" lon="5.73027">
        <ele>495.928</ele>
        <time>2021-03-21T07:34:58Z</time>
      </trkpt>
      <trkpt lat="45.20669" lon="5.73015">
        <ele>495.843</ele>
        <time>2021-03-21T07:35:06Z</time>
      </trkpt>
      <trkpt lat="45.20654" lon="5.73">
        <ele>495.665</ele>
        <time>2021-03-21T07:35:14Z</time>
      </trkpt>
      <trkpt lat="45.20642" lon="5.72984">
        <ele>495.454</ele>
        <time>2021-03-21T07:35:23Z</time>
      </trkpt>
      <trkpt lat="45.20631" lon="5.72974">
        <ele>495.948</ele>
        <time>2021-03-21T07:35:30Z</time>
      </trkpt>
      <trkpt lat="45.20619" lon="5.72966">
        <ele>495.077</ele>
        <time>2021-03-21T07:35:37Z</time>
      </trkpt>
      <trkpt lat="45.20609" lon="5.72953">
        <ele>496.155</ele>
        <time>2021-03-21T07:35:44Z</time>
      </trkpt>
      <trkpt lat="45.20608" lon="5.72951">
        <ele>496.408</ele>
        <time>2021-03-21T07:35:45Z</time>
      </trkpt>
      <trkpt lat="45.20599" lon="5.72944">
        <ele>496.2</ele>
        <time>2021-03-21T07:35:50Z</time>
      </trkpt>
      <trkpt lat="45.20595" lon="5.72942">
        <ele>496.472</ele>
        <time>2021-03-21T07:35:52Z</time>
      </trkpt>
      <trkpt lat="45.20584" lon="5.7293">
        <ele>496.336</ele>
        <time>2021-03-21T07:35:59Z</time>
      </trkpt>
      <trkpt lat="45.20582" lon="5.72928">
        <ele>496.63</ele>
        <time>2021-03-21T07:36:00Z</time>
      </trkpt>
      <trkpt lat="45.20569" lon="5.72913">
        <ele>496.553</ele>
        <time>2021-03-21T07:36:08Z</time>
      </trkpt>
      <trkpt lat="45.2056" lon="5.72901">
        <ele>497.906</ele>
        <time>2021-03-21T07:36:15Z</time>
      </trkpt>
      <trkpt lat="45.20547" lon="5.72888">
        <ele>498.63</ele>
        <time>2021-03-21T07:36:23Z</time>
      </trkpt>
      <trkpt lat="45.20534" lon="5.72875">
        <ele>499.651</ele>
        <time>2021-03-21T07:36:31Z</time>
      </trkpt>
      <trkpt lat="45.20518" lon="5.72874">
        <ele>501.312</ele>
        <time>2021-03-21T07:36:38Z</time>
      </trkpt>
      <trkpt lat="45.20507" lon="5.72869">
        <ele>501.372</ele>
        <time>2021-03-21T07:36:46Z</time>
      </trkpt>
      <trkpt lat="45.20502" lon="5.72865">
        <ele>502.181</ele>
        <time>2021-03-21T07:36:49Z</time>
      </trkpt>
      <trkpt lat="45.20492" lon="5.72858">
        <ele>503.537</ele>
        <time>2021-03-21T07:36:55Z</time>
      </trkpt>
      <trkpt lat="45.20483" lon="5.72854">
        <ele>502.923</ele>
        <time>2021-03-21T07:36:59Z</time>
      </trkpt>
      <trkpt lat="45.20467" lon="5.72844">
        <ele>501.578</ele>
        <time>2021-03-21T07:37:07Z</time>
      </trkpt>
      <trkpt lat="45.20461" lon="5.72838">
        <ele>499.662</ele>
        <time>2021-03-21T07:37:10Z</time>
      </trkpt>
      <trkpt lat="45.2045" lon="5.72823">
        <ele>499.58</ele>
        <time>2021-03-21T07:37:17Z</time>
      </trkpt>
      <trkpt lat="45.20437" lon="5.72809">
        <ele>498.945</ele>
        <time>2021-03-21T07:37:24Z</time>
      </trkpt>
      <trkpt lat="45.20424" lon="5.72792">
        <ele>497.206</ele>
        <time>2021-03-21T07:37:32Z</time>
      </trkpt>
      <trkpt lat="45.20422" lon="5.7279">
        <ele>496.945</ele>
        <time>2021-03-21T07:37:33Z</time>
      </trkpt>
      <trkpt lat="45.20405" lon="5.7278">
        <ele>495.265</ele>
        <time>2021-03-21T07:37:40Z</time>
      </trkpt>
      <trkpt lat="45.20397" lon="5.72773">
        <ele>493.858</ele>
        <time>2021-03-21T07:37:44Z</time>
      </trkpt>
      <trkpt lat="45.20387" lon="5.72761">
        <ele>492.587</ele>
        <time>2021-03-21T07:37:51Z</time>
      </trkpt>
      <trkpt lat="45.20375" lon="5.72749">
        <ele>491.282</ele>
        <time>2021-03-21T07:37:58Z</time>
      </trkpt>
      <trkpt lat="45.20367" lon="5.72735">
        <ele>488.725</ele>
        <time>2021-03-21T07:38:05Z</time>
      </trkpt>
      <trkpt lat="45.20354" lon="5.72721">
        <ele>487.215</ele>
        <time>2021-03-21T07:38:13Z</time>
      </trkpt>
      <trkpt lat="45.2034" lon="5.72711">
        <ele>486.888</ele>
        <time>2021-03-21T07:38:19Z</time>
      </trkpt>
      <trkpt lat="45.20329" lon="5.72704">
        <ele>487.339</ele>
        <time>2021-03-21T07:38:24Z</time>
      </trkpt>
      <trkpt lat="45.20313" lon="5.72694">
        <ele>486</ele>
        <time>2021-03-21T07:38:31Z</time>
      </trkpt>
      <trkpt lat="45.20304" lon="5.72693">
        <ele>484.635</ele>
        <time>2021-03-21T07:38:34Z</time>
      </trkpt>
      <trkpt lat="45.20286" lon="5.7268">
        <ele>482.814</ele>
        <time>2021-03-21T07:38:42Z</time>
      </trkpt>
      <trkpt lat="45.20275" lon="5.72671">
        <ele>482.179</ele>
        <time>2021-03-21T07:38:47Z</time>
      </trkpt>
      <trkpt lat="45.20272" lon="5.72668">
        <ele>481.95</ele>
        <time>2021-03-21T07:38:53Z</time>
      </trkpt>
      <trkpt lat="45.2027" lon="5.72664">
        <ele>484.513</ele>
        <time>2021-03-21T07:39:00Z</time>
      </trkpt>
      <trkpt lat="45.20266" lon="5.72657">
        <ele>485.826</ele>
        <time>2021-03-21T07:39:04Z</time>
      </trkpt>
      <trkpt lat="45.20258" lon="5.72648">
        <ele>488.101</ele>
        <time>2021-03-21T07:39:10Z</time>
      </trkpt>
      <trkpt lat="45.20247" lon="5.72641">
        <ele>489.939</ele>
        <time>2021-03-21T07:39:17Z</time>
      </trkpt>
      <trkpt lat="45.20242" lon="5.72639">
        <ele>491.414</ele>
        <time>2021-03-21T07:39:20Z</time>
      </trkpt>
      <trkpt lat="45.20228" lon="5.72627">
        <ele>492.928</ele>
        <time>2021-03-21T07:39:30Z</time>
      </trkpt>
      <trkpt lat="45.20219" lon="5.72615">
        <ele>494.542</ele>
        <time>2021-03-21T07:39:39Z</time>
      </trkpt>
      <trkpt lat="45.20212" lon="5.72604">
        <ele>495.457</ele>
        <time>2021-03-21T07:39:47Z</time>
      </trkpt>
      <trkpt lat="45.20204" lon="5.72589">
        <ele>497.531</ele>
        <time>2021-03-21T07:39:57Z</time>
      </trkpt>
      <trkpt lat="45.20199" lon="5.72583">
        <ele>498.844</ele>
        <time>2021-03-21T07:40:02Z</time>
      </trkpt>
      <trkpt lat="45.20189" lon="5.72574">
        <ele>498.089</ele>
        <time>2021-03-21T07:40:08Z</time>
      </trkpt>
      <trkpt lat="45.20182" lon="5.7257">
        <ele>496.767</ele>
        <time>2021-03-21T07:40:11Z</time>
      </trkpt>
      <trkpt lat="45.20172" lon="5.72563">
        <ele>494.554</ele>
        <time>2021-03-21T07:40:16Z</time>
      </trkpt>
      <trkpt lat="45.20156" lon="5.72556">
        <ele>493.205</ele>
        <time>2021-03-21T07:40:23Z</time>
      </trkpt>
      <trkpt lat="45.20139" lon="5.72548">
        <ele>490.977</ele>
        <time>2021-03-21T07:40:30Z</time>
      </trkpt>
      <trkpt lat="45.20124" lon="5.72543">
        <ele>487.463</ele>
        <time>2021-03-21T07:40:38Z</time>
      </trkpt>
      <trkpt lat="45.2012" lon="5.72543">
        <ele>486.651</ele>
        <time>2021-03-21T07:40:40Z</time>
      </trkpt>
      <trkpt lat="45.20108" lon="5.72542">
        <ele>484.78</ele>
        <time>2021-03-21T07:40:47Z</time>
      </trkpt>
      <trkpt lat="45.20096" lon="5.72541">
        <ele>482.28</ele>
        <time>2021-03-21T07:40:53Z</time>
      </trkpt>
      <trkpt lat="45.20091" lon="5.7254">
        <ele>480.36</ele>
        <time>2021-03-21T07:40:55Z</time>
      </trkpt>
      <trkpt lat="45.20087" lon="5.72541">
        <ele>478.845</ele>
        <time>2021-03-21T07:40:57Z</time>
      </trkpt>
      <trkpt lat="45.20078" lon="5.72546">
        <ele>477.325</ele>
        <time>2021-03-21T07:41:03Z</time>
      </trkpt>
      <trkpt lat="45.20075" lon="5.72552">
        <ele>477.096</ele>
        <time>2021-03-21T07:41:09Z</time>
      </trkpt>
      <trkpt lat="45.20075" lon="5.72554">
        <ele>477.605</ele>
        <time>2021-03-21T07:41:21Z</time>
      </trkpt>
      <trkpt lat="45.20073" lon="5.72536">
        <ele>479.282</ele>
        <time>2021-03-21T07:41:29Z</time>
      </trkpt>
      <trkpt lat="45.20074" lon="5.72515">
        <ele>479.011</ele>
        <time>2021-03-21T07:41:35Z</time>
      </trkpt>
      <trkpt lat="45.20081" lon="5.72493">
        <ele>477.607</ele>
        <time>2021-03-21T07:41:41Z</time>
      </trkpt>
      <trkpt lat="45.20079" lon="5.72469">
        <ele>476.353</ele>
        <time>2021-03-21T07:41:47Z</time>
      </trkpt>
      <trkpt lat="45.2007" lon="5.72444">
        <ele>474.542</ele>
        <time>2021-03-21T07:41:54Z</time>
      </trkpt>
      <trkpt lat="45.20062" lon="5.72436">
        <ele>473.264</ele>
        <time>2021-03-21T07:41:57Z</time>
      </trkpt>
      <trkpt lat="45.20043" lon="5.7243">
        <ele>470.891</ele>
        <time>2021-03-21T07:42:04Z</time>
      </trkpt>
      <trkpt lat="45.20026" lon="5.72426">
        <ele>469.922</ele>
        <time>2021-03-21T07:42:10Z</time>
      </trkpt>
      <trkpt lat="45.20003" lon="5.72423">
        <ele>467.92</ele>
        <time>2021-03-21T07:42:18Z</time>
      </trkpt>
      <trkpt lat="45.19979" lon="5.72421">
        <ele>465.108</ele>
        <time>2021-03-21T07:42:26Z</time>
      </trkpt>
      <trkpt lat="45.19959" lon="5.7242">
        <ele>463.144</ele>
        <time>2021-03-21T07:42:33Z</time>
      </trkpt>
      <trkpt lat="45.19936" lon="5.72422">
        <ele>461.925</ele>
        <time>2021-03-21T07:42:41Z</time>
      </trkpt>
      <trkpt lat="45.19917" lon="5.7243">
        <ele>463.375</ele>
        <time>2021-03-21T07:42:48Z</time>
      </trkpt>
      <trkpt lat="45.19896" lon="5.72439">
        <ele>465.033</ele>
        <time>2021-03-21T07:42:56Z</time>
      </trkpt>
      <trkpt lat="45.19892" lon="5.72457">
        <ele>466.507</ele>
        <time>2021-03-21T07:43:03Z</time>
      </trkpt>
      <trkpt lat="45.19891" lon="5.72457">
        <ele>466.444</ele>
        <time>2021-03-21T07:43:04Z</time>
      </trkpt>
      <trkpt lat="45.19885" lon="5.72471">
        <ele>467.044</ele>
        <time>2021-03-21T07:43:12Z</time>
      </trkpt>
      <trkpt lat="45.19881" lon="5.72477">
        <ele>466.921</ele>
        <time>2021-03-21T07:43:14Z</time>
      </trkpt>
      <trkpt lat="45.19861" lon="5.72492">
        <ele>466.327</ele>
        <time>2021-03-21T07:43:20Z</time>
      </trkpt>
      <trkpt lat="45.1986" lon="5.72509">
        <ele>466.19</ele>
        <time>2021-03-21T07:43:24Z</time>
      </trkpt>
      <trkpt lat="45.1986" lon="5.72541">
        <ele>464.607</ele>
        <time>2021-03-21T07:43:31Z</time>
      </trkpt>
      <trkpt lat="45.1986" lon="5.72554">
        <ele>463.724</ele>
        <time>2021-03-21T07:43:35Z</time>
      </trkpt>
      <trkpt lat="45.19857" lon="5.72546">
        <ele>461.583</ele>
        <time>2021-03-21T07:43:39Z</time>
      </trkpt>
      <trkpt lat="45.19857" lon="5.72531">
        <ele>459.941</ele>
        <time>2021-03-21T07:43:43Z</time>
      </trkpt>
      <trkpt lat="45.19856" lon="5.72496">
        <ele>457.65</ele>
        <time>2021-03-21T07:43:52Z</time>
      </trkpt>
      <trkpt lat="45.19856" lon="5.72489">
        <ele>456.268</ele>
        <time>2021-03-21T07:43:54Z</time>
      </trkpt>
      <trkpt lat="45.19856" lon="5.72465">
        <ele>454.706</ele>
        <time>2021-03-21T07:44:00Z</time>
      </trkpt>
      <trkpt lat="45.19854" lon="5.72451">
        <ele>454.572</ele>
        <time>2021-03-21T07:44:04Z</time>
      </trkpt>
      <trkpt lat="45.19844" lon="5.72447">
        <ele>452.562</ele>
        <time>2021-03-21T07:44:08Z</time>
      </trkpt>
      <trkpt lat="45.19837" lon="5.72466">
        <ele>450.819</ele>
        <time>2021-03-21T07:44:14Z</time>
      </trkpt>
      <trkpt lat="45.19834" lon="5.72487">
        <ele>448.201</ele>
        <time>2021-03-21T07:44:21Z</time>
      </trkpt>
      <trkpt lat="45.19829" lon="5.7251">
        <ele>445.267</ele>
        <time>2021-03-21T07:44:28Z</time>
      </trkpt>
      <trkpt lat="45.19827" lon="5.7254">
        <ele>443.41</ele>
        <time>2021-03-21T07:44:36Z</time>
      </trkpt>
      <trkpt lat="45.19826" lon="5.72567">
        <ele>441.2</ele>
        <time>2021-03-21T07:44:43Z</time>
      </trkpt>
      <trkpt lat="45.19827" lon="5.72585">
        <ele>440.384</ele>
        <time>2021-03-21T07:44:48Z</time>
      </trkpt>
      <trkpt lat="45.19834" lon="5.72615">
        <ele>438.481</ele>
        <time>2021-03-21T07:44:56Z</time>
      </trkpt>
      <trkpt lat="45.19839" lon="5.72626">
        <ele>436.854</ele>
        <time>2021-03-21T07:45:00Z</time>
      </trkpt>
      <trkpt lat="45.1985" lon="5.72649">
        <ele>435.505</ele>
        <time>2021-03-21T07:45:07Z</time>
      </trkpt>
      <trkpt lat="45.19857" lon="5.72665">
        <ele>433.816</ele>
        <time>2021-03-21T07:45:12Z</time>
      </trkpt>
      <trkpt lat="45.19865" lon="5.72675">
        <ele>432.541</ele>
        <time>2021-03-21T07:45:16Z</time>
      </trkpt>
      <trkpt lat="45.19851" lon="5.72664">
        <ele>430.951</ele>
        <time>2021-03-21T07:45:23Z</time>
      </trkpt>
      <trkpt lat="45.19847" lon="5.72659">
        <ele>430.252</ele>
        <time>2021-03-21T07:45:25Z</time>
      </trkpt>
      <trkpt lat="45.19841" lon="5.72653">
        <ele>429.044</ele>
        <time>2021-03-21T07:45:28Z</time>
      </trkpt>
      <trkpt lat="45.19821" lon="5.72638">
        <ele>426.012</ele>
        <time>2021-03-21T07:45:36Z</time>
      </trkpt>
      <trkpt lat="45.19819" lon="5.72636">
        <ele>426.017</ele>
        <time>2021-03-21T07:45:37Z</time>
      </trkpt>
      <trkpt lat="45.19803" lon="5.72622">
        <ele>423.844</ele>
        <time>2021-03-21T07:45:44Z</time>
      </trkpt>
      <trkpt lat="45.19795" lon="5.72604">
        <ele>422.15</ele>
        <time>2021-03-21T07:45:50Z</time>
      </trkpt>
      <trkpt lat="45.1979" lon="5.72586">
        <ele>420.52</ele>
        <time>2021-03-21T07:45:55Z</time>
      </trkpt>
      <trkpt lat="45.19791" lon="5.72568">
        <ele>419.14</ele>
        <time>2021-03-21T07:46:00Z</time>
      </trkpt>
      <trkpt lat="45.19791" lon="5.72541">
        <ele>417.183</ele>
        <time>2021-03-21T07:46:07Z</time>
      </trkpt>
      <trkpt lat="45.1979" lon="5.72537">
        <ele>416.819</ele>
        <time>2021-03-21T07:46:08Z</time>
      </trkpt>
      <trkpt lat="45.19786" lon="5.72531">
        <ele>415.964</ele>
        <time>2021-03-21T07:46:12Z</time>
      </trkpt>
      <trkpt lat="45.19781" lon="5.72548">
        <ele>414.013</ele>
        <time>2021-03-21T07:46:18Z</time>
      </trkpt>
      <trkpt lat="45.19775" lon="5.72568">
        <ele>412.731</ele>
        <time>2021-03-21T07:46:24Z</time>
      </trkpt>
      <trkpt lat="45.19773" lon="5.72575">
        <ele>411.966</ele>
        <time>2021-03-21T07:46:27Z</time>
      </trkpt>
      <trkpt lat="45.19768" lon="5.72569">
        <ele>410.502</ele>
        <time>2021-03-21T07:46:31Z</time>
      </trkpt>
      <trkpt lat="45.19768" lon="5.72563">
        <ele>409.732</ele>
        <time>2021-03-21T07:46:33Z</time>
      </trkpt>
      <trkpt lat="45.19767" lon="5.72536">
        <ele>407.763</ele>
        <time>2021-03-21T07:46:41Z</time>
      </trkpt>
      <trkpt lat="45.1977" lon="5.72523">
        <ele>406.845</ele>
        <time>2021-03-21T07:46:45Z</time>
      </trkpt>
      <trkpt lat="45.19773" lon="5.72508">
        <ele>405.548</ele>
        <time>2021-03-21T07:46:51Z</time>
      </trkpt>
      <trkpt lat="45.19771" lon="5.72509">
        <ele>404.366</ele>
        <time>2021-03-21T07:46:53Z</time>
      </trkpt>
      <trkpt lat="45.19761" lon="5.7252">
        <ele>402.842</ele>
        <time>2021-03-21T07:46:59Z</time>
      </trkpt>
      <trkpt lat="45.19757" lon="5.72537">
        <ele>402.258</ele>
        <time>2021-03-21T07:47:05Z</time>
      </trkpt>
      <trkpt lat="45.19755" lon="5.72558">
        <ele>402.892</ele>
        <time>2021-03-21T07:47:12Z</time>
      </trkpt>
      <trkpt lat="45.19754" lon="5.72579">
        <ele>403.036</ele>
        <time>2021-03-21T07:47:18Z</time>
      </trkpt>
      <trkpt lat="45.19751" lon="5.72608">
        <ele>402.745</ele>
        <time>2021-03-21T07:47:25Z</time>
      </trkpt>
      <trkpt lat="45.19759" lon="5.72622">
        <ele>403.209</ele>
        <time>2021-03-21T07:47:31Z</time>
      </trkpt>
      <trkpt lat="45.19765" lon="5.72632">
        <ele>402.601</ele>
        <time>2021-03-21T07:47:34Z</time>
      </trkpt>
      <trkpt lat="45.19779" lon="5.72654">
        <ele>402.664</ele>
        <time>2021-03-21T07:47:41Z</time>
      </trkpt>
      <trkpt lat="45.19793" lon="5.72674">
        <ele>403.069</ele>
        <time>2021-03-21T07:47:48Z</time>
      </trkpt>
      <trkpt lat="45.19805" lon="5.72689">
        <ele>403.12</ele>
        <time>2021-03-21T07:47:54Z</time>
      </trkpt>
      <trkpt lat="45.19819" lon="5.72704">
        <ele>403.306</ele>
        <time>2021-03-21T07:48:01Z</time>
      </trkpt>
      <trkpt lat="45.19832" lon="5.72716">
        <ele>403.621</ele>
        <time>2021-03-21T07:48:07Z</time>
      </trkpt>
      <trkpt lat="45.19841" lon="5.72733">
        <ele>403.98</ele>
        <time>2021-03-21T07:48:13Z</time>
      </trkpt>
      <trkpt lat="45.1985" lon="5.7274">
        <ele>404.096</ele>
        <time>2021-03-21T07:48:20Z</time>
      </trkpt>
      <trkpt lat="45.19855" lon="5.72742">
        <ele>401.678</ele>
        <time>2021-03-21T07:48:30Z</time>
      </trkpt>
      <trkpt lat="45.19858" lon="5.72744">
        <ele>400.919</ele>
        <time>2021-03-21T07:48:32Z</time>
      </trkpt>
      <trkpt lat="45.19859" lon="5.72755">
        <ele>400.533</ele>
        <time>2021-03-21T07:48:36Z</time>
      </trkpt>
      <trkpt lat="45.19858" lon="5.72761">
        <ele>397.53</ele>
        <time>2021-03-21T07:48:43Z</time>
      </trkpt>
      <trkpt lat="45.19858" lon="5.7276">
        <ele>396.787</ele>
        <time>2021-03-21T07:48:44Z</time>
      </trkpt>
      <trkpt lat="45.19861" lon="5.72757">
        <ele>394.275</ele>
        <time>2021-03-21T07:48:49Z</time>
      </trkpt>
      <trkpt lat="45.19858" lon="5.72767">
        <ele>392.704</ele>
        <time>2021-03-21T07:48:55Z</time>
      </trkpt>
      <trkpt lat="45.19864" lon="5.72773">
        <ele>390.836</ele>
        <time>2021-03-21T07:49:01Z</time>
      </trkpt>
      <trkpt lat="45.19864" lon="5.72773">
        <ele>390.409</ele>
        <time>2021-03-21T07:49:02Z</time>
      </trkpt>
      <trkpt lat="45.19853" lon="5.72786">
        <ele>386.95</ele>
        <time>2021-03-21T07:49:07Z</time>
      </trkpt>
      <trkpt lat="45.19847" lon="5.72792">
        <ele>383.935</ele>
        <time>2021-03-21T07:49:11Z</time>
      </trkpt>
      <trkpt lat="45.19851" lon="5.72783">
        <ele>381.135</ele>
        <time>2021-03-21T07:49:15Z</time>
      </trkpt>
      <trkpt lat="45.19854" lon="5.7278">
        <ele>380.448</ele>
        <time>2021-03-21T07:49:18Z</time>
      </trkpt>
      <trkpt lat="45.19849" lon="5.72771">
        <ele>376.59</ele>
        <time>2021-03-21T07:49:24Z</time>
      </trkpt>
      <trkpt lat="45.19847" lon="5.72771">
        <ele>374.633</ele>
        <time>2021-03-21T07:49:27Z</time>
      </trkpt>
      <trkpt lat="45.19853" lon="5.72776">
        <ele>374.215</ele>
        <time>2021-03-21T07:49:31Z</time>
      </trkpt>
      <trkpt lat="45.1984" lon="5.72767">
        <ele>372.724</ele>
        <time>2021-03-21T07:49:37Z</time>
      </trkpt>
      <trkpt lat="45.19834" lon="5.7276">
        <ele>371.364</ele>
        <time>2021-03-21T07:49:40Z</time>
      </trkpt>
      <trkpt lat="45.19818" lon="5.72746">
        <ele>369.505</ele>
        <time>2021-03-21T07:49:47Z</time>
      </trkpt>
      <trkpt lat="45.19804" lon="5.72733">
        <ele>368.21</ele>
        <time>2021-03-21T07:49:53Z</time>
      </trkpt>
      <trkpt lat="45.19797" lon="5.72729">
        <ele>366.926</ele>
        <time>2021-03-21T07:49:57Z</time>
      </trkpt>
      <trkpt lat="45.19801" lon="5.72737">
        <ele>366.032</ele>
        <time>2021-03-21T07:50:01Z</time>
      </trkpt>
      <trkpt lat="45.19813" lon="5.72756">
        <ele>362.357</ele>
        <time>2021-03-21T07:50:08Z</time>
      </trkpt>
      <trkpt lat="45.19824" lon="5.72774">
        <ele>360.944</ele>
        <time>2021-03-21T07:50:14Z</time>
      </trkpt>
      <trkpt lat="45.19835" lon="5.72784">
        <ele>359.362</ele>
        <time>2021-03-21T07:50:19Z</time>
      </trkpt>
      <trkpt lat="45.19846" lon="5.72795">
        <ele>357.182</ele>
        <time>2021-03-21T07:50:24Z</time>
      </trkpt>
      <trkpt lat="45.19843" lon="5.72799">
        <ele>355.599</ele>
        <time>2021-03-21T07:50:28Z</time>
      </trkpt>
      <trkpt lat="45.19838" lon="5.72797">
        <ele>355.468</ele>
        <time>2021-03-21T07:50:30Z</time>
      </trkpt>
      <trkpt lat="45.19823" lon="5.72785">
        <ele>352.277</ele>
        <time>2021-03-21T07:50:37Z</time>
      </trkpt>
      <trkpt lat="45.19821" lon="5.72784">
        <ele>352.354</ele>
        <time>2021-03-21T07:50:38Z</time>
      </trkpt>
      <trkpt lat="45.19813" lon="5.72779">
        <ele>350.658</ele>
        <time>2021-03-21T07:50:41Z</time>
      </trkpt>
      <trkpt lat="45.19805" lon="5.72771">
        <ele>350.098</ele>
        <time>2021-03-21T07:50:46Z</time>
      </trkpt>
      <trkpt lat="45.19813" lon="5.72783">
        <ele>349.51</ele>
        <time>2021-03-21T07:50:52Z</time>
      </trkpt>
      <trkpt lat="45.19827" lon="5.728">
        <ele>346.965</ele>
        <time>2021-03-21T07:50:59Z</time>
      </trkpt>
      <trkpt lat="45.19837" lon="5.72812">
        <ele>344.813</ele>
        <time>2021-03-21T07:51:04Z</time>
      </trkpt>
      <trkpt lat="45.19849" lon="5.72824">
        <ele>342.867</ele>
        <time>2021-03-21T07:51:09Z</time>
      </trkpt>
      <trkpt lat="45.19846" lon="5.72827">
        <ele>341.519</ele>
        <time>2021-03-21T07:51:12Z</time>
      </trkpt>
      <trkpt lat="45.19831" lon="5.72818">
        <ele>339.109</ele>
        <time>2021-03-21T07:51:18Z</time>
      </trkpt>
      <trkpt lat="45.19823" lon="5.72812">
        <ele>337.89</ele>
        <time>2021-03-21T07:51:22Z</time>
      </trkpt>
      <trkpt lat="45.19825" lon="5.72819">
        <ele>336.758</ele>
        <time>2021-03-21T07:51:27Z</time>
      </trkpt>
      <trkpt lat="45.19828" lon="5.72821">
        <ele>336.591</ele>
        <time>2021-03-21T07:51:28Z</time>
      </trkpt>
      <trkpt lat="45.19836" lon="5.72829">
        <ele>335.398</ele>
        <time>2021-03-21T07:51:32Z</time>
      </trkpt>
      <trkpt lat="45.19836" lon="5.72833">
        <ele>335.613</ele>
        <time>2021-03-21T07:51:34Z</time>
      </trkpt>
      <trkpt lat="45.19823" lon="5.72826">
        <ele>334.197</ele>
        <time>2021-03-21T07:51:40Z</time>
      </trkpt>
      <trkpt lat="45.19818" lon="5.72823">
        <ele>333.483</ele>
        <time>2021-03-21T07:51:42Z</time>
      </trkpt>
      <trkpt lat="45.19807" lon="5.72813">
        <ele>331.464</ele>
        <time>2021-03-21T07:51:47Z</time>
      </trkpt>
      <trkpt lat="45.19797" lon="5.72808">
        <ele>330.561</ele>
        <time>2021-03-21T07:51:52Z</time>
      </trkpt>
      <trkpt lat="45.19798" lon="5.72811">
        <ele>330.616</ele>
        <time>2021-03-21T07:51:54Z</time>
      </trkpt>
      <trkpt lat="45.19813" lon="5.72824">
        <ele>329.183</ele>
        <time>2021-03-21T07:52:01Z</time>
      </trkpt>
      <trkpt lat="45.19821" lon="5.72833">
        <ele>328.513</ele>
        <time>2021-03-21T07:52:05Z</time>
      </trkpt>
      <trkpt lat="45.19821" lon="5.72837">
        <ele>326.456</ele>
        <time>2021-03-21T07:52:09Z</time>
      </trkpt>
      <trkpt lat="45.19806" lon="5.7283">
        <ele>323.433</ele>
        <time>2021-03-21T07:52:16Z</time>
      </trkpt>
      <trkpt lat="45.19791" lon="5.72821">
        <ele>322.58</ele>
        <time>2021-03-21T07:52:22Z</time>
      </trkpt>
      <trkpt lat="45.19774" lon="5.72812">
        <ele>320.295</ele>
        <time>2021-03-21T07:52:29Z</time>
      </trkpt>
      <trkpt lat="45.19768" lon="5.72807">
        <ele>318.92</ele>
        <time>2021-03-21T07:52:32Z</time>
      </trkpt>
      <trkpt lat="45.1976" lon="5.72802">
        <ele>317.585</ele>
        <time>2021-03-21T07:52:35Z</time>
      </trkpt>
      <trkpt lat="45.19759" lon="5.72802">
        <ele>317.235</ele>
        <time>2021-03-21T07:52:37Z</time>
      </trkpt>
      <trkpt lat="45.19768" lon="5.72815">
        <ele>315.215</ele>
        <time>2021-03-21T07:52:43Z</time>
      </trkpt>
      <trkpt lat="45.19782" lon="5.72834">
        <ele>312.037</ele>
        <time>2021-03-21T07:52:51Z</time>
      </trkpt>
      <trkpt lat="45.19784" lon="5.72837">
        <ele>311.843</ele>
        <time>2021-03-21T07:52:52Z</time>
      </trkpt>
      <trkpt lat="45.19786" lon="5.7284">
        <ele>311.895</ele>
        <time>2021-03-21T07:52:53Z</time>
      </trkpt>
      <trkpt lat="45.19794" lon="5.72853">
        <ele>309.912</ele>
        <time>2021-03-21T07:52:58Z</time>
      </trkpt>
      <trkpt lat="45.19803" lon="5.72862">
        <ele>308.43</ele>
        <time>2021-03-21T07:53:03Z</time>
      </trkpt>
      <trkpt lat="45.19805" lon="5.72872">
        <ele>306.706</ele>
        <time>2021-03-21T07:53:09Z</time>
      </trkpt>
      <trkpt lat="45.19805" lon="5.72872">
        <ele>306.372</ele>
        <time>2021-03-21T07:53:10Z</time>
      </trkpt>
      <trkpt lat="45.19794" lon="5.72863">
        <ele>304.324</ele>
        <time>2021-03-21T07:53:15Z</time>
      </trkpt>
      <trkpt lat="45.19785" lon="5.72856">
        <ele>303.089</ele>
        <time>2021-03-21T07:53:18Z</time>
      </trkpt>
      <trkpt lat="45.19776" lon="5.72849">
        <ele>301.591</ele>
        <time>2021-03-21T07:53:22Z</time>
      </trkpt>
      <trkpt lat="45.19757" lon="5.72839">
        <ele>299.19</ele>
        <time>2021-03-21T07:53:29Z</time>
      </trkpt>
      <trkpt lat="45.19754" lon="5.72838">
        <ele>299.021</ele>
        <time>2021-03-21T07:53:30Z</time>
      </trkpt>
      <trkpt lat="45.19748" lon="5.72836">
        <ele>297.489</ele>
        <time>2021-03-21T07:53:34Z</time>
      </trkpt>
      <trkpt lat="45.1976" lon="5.72855">
        <ele>294.818</ele>
        <time>2021-03-21T07:53:42Z</time>
      </trkpt>
      <trkpt lat="45.19771" lon="5.72876">
        <ele>292.243</ele>
        <time>2021-03-21T07:53:49Z</time>
      </trkpt>
      <trkpt lat="45.19774" lon="5.72879">
        <ele>291.971</ele>
        <time>2021-03-21T07:53:50Z</time>
      </trkpt>
      <trkpt lat="45.19779" lon="5.72893">
        <ele>290.872</ele>
        <time>2021-03-21T07:53:54Z</time>
      </trkpt>
      <trkpt lat="45.19792" lon="5.7291">
        <ele>288.328</ele>
        <time>2021-03-21T07:54:00Z</time>
      </trkpt>
      <trkpt lat="45.19795" lon="5.72917">
        <ele>286.475</ele>
        <time>2021-03-21T07:54:05Z</time>
      </trkpt>
      <trkpt lat="45.19786" lon="5.72912">
        <ele>285.017</ele>
        <time>2021-03-21T07:54:09Z</time>
      </trkpt>
      <trkpt lat="45.19769" lon="5.72902">
        <ele>283.573</ele>
        <time>2021-03-21T07:54:16Z</time>
      </trkpt>
      <trkpt lat="45.19758" lon="5.72896">
        <ele>281.744</ele>
        <time>2021-03-21T07:54:20Z</time>
      </trkpt>
      <trkpt lat="45.19739" lon="5.72887">
        <ele>279.647</ele>
        <time>2021-03-21T07:54:27Z</time>
      </trkpt>
      <trkpt lat="45.19718" lon="5.72875">
        <ele>276.841</ele>
        <time>2021-03-21T07:54:35Z</time>
      </trkpt>
      <trkpt lat="45.19704" lon="5.72861">
        <ele>274.883</ele>
        <time>2021-03-21T07:54:42Z</time>
      </trkpt>
      <trkpt lat="45.19696" lon="5.72853">
        <ele>273.008</ele>
        <time>2021-03-21T07:54:48Z</time>
      </trkpt>
      <trkpt lat="45.19702" lon="5.72859">
        <ele>271.502</ele>
        <time>2021-03-21T07:54:52Z</time>
      </trkpt>
      <trkpt lat="45.19716" lon="5.72873">
        <ele>268.21</ele>
        <time>2021-03-21T07:55:00Z</time>
      </trkpt>
      <trkpt lat="45.19728" lon="5.72894">
        <ele>266.88</ele>
        <time>2021-03-21T07:55:07Z</time>
      </trkpt>
      <trkpt lat="45.19737" lon="5.72915">
        <ele>265.13</ele>
        <time>2021-03-21T07:55:12Z</time>
      </trkpt>
      <trkpt lat="45.19744" lon="5.72933">
        <ele>262.981</ele>
        <time>2021-03-21T07:55:17Z</time>
      </trkpt>
      <trkpt lat="45.19747" lon="5.7294">
        <ele>262.279</ele>
        <time>2021-03-21T07:55:19Z</time>
      </trkpt>
      <trkpt lat="45.1976" lon="5.72967">
        <ele>260.489</ele>
        <time>2021-03-21T07:55:27Z</time>
      </trkpt>
      <trkpt lat="45.19772" lon="5.72987">
        <ele>258.883</ele>
        <time>2021-03-21T07:55:34Z</time>
      </trkpt>
      <trkpt lat="45.19774" lon="5.7299">
        <ele>258.589</ele>
        <time>2021-03-21T07:55:35Z</time>
      </trkpt>
      <trkpt lat="45.1979" lon="5.73002">
        <ele>256.606</ele>
        <time>2021-03-21T07:55:41Z</time>
      </trkpt>
      <trkpt lat="45.19807" lon="5.73009">
        <ele>254.824</ele>
        <time>2021-03-21T07:55:47Z</time>
      </trkpt>
      <trkpt lat="45.19806" lon="5.73015">
        <ele>253.391</ele>
        <time>2021-03-21T07:55:52Z</time>
      </trkpt>
      <trkpt lat="45.19797" lon="5.73008">
        <ele>251.705</ele>
        <time>2021-03-21T07:55:56Z</time>
      </trkpt>
      <trkpt lat="45.19778" lon="5.73002">
        <ele>248.727</ele>
        <time>2021-03-21T07:56:03Z</time>
      </trkpt>
      <trkpt lat="45.19775" lon="5.73002">
        <ele>248.736</ele>
        <time>2021-03-21T07:56:04Z</time>
      </trkpt>
      <trkpt lat="45.19775" lon="5.7301">
        <ele>247.621</ele>
        <time>2021-03-21T07:56:09Z</time>
      </trkpt>
      <trkpt lat="45.19791" lon="5.7302">
        <ele>245.345</ele>
        <time>2021-03-21T07:56:16Z</time>
      </trkpt>
      <trkpt lat="45.19803" lon="5.7303">
        <ele>244.043</ele>
        <time>2021-03-21T07:56:22Z</time>
      </trkpt>
      <trkpt lat="45.19805" lon="5.73031">
        <ele>243.471</ele>
        <time>2021-03-21T07:56:23Z</time>
      </trkpt>
      <trkpt lat="45.19806" lon="5.73035">
        <ele>242.87</ele>
        <time>2021-03-21T07:56:26Z</time>
      </trkpt>
      <trkpt lat="45.19798" lon="5.73031">
        <ele>241.687</ele>
        <time>2021-03-21T07:56:30Z</time>
      </trkpt>
      <trkpt lat="45.19783" lon="5.7303">
        <ele>239.37</ele>
        <time>2021-03-21T07:56:36Z</time>
      </trkpt>
      <trkpt lat="45.19778" lon="5.73028">
        <ele>238.392</ele>
        <time>2021-03-21T07:56:38Z</time>
      </trkpt>
      <trkpt lat="45.19763" lon="5.73025">
        <ele>237.023</ele>
        <time>2021-03-21T07:56:44Z</time>
      </trkpt>
      <trkpt lat="45.19762" lon="5.73027">
        <ele>236.332</ele>
        <time>2021-03-21T07:56:46Z</time>
      </trkpt>
      <trkpt lat="45.19773" lon="5.73034">
        <ele>234.474</ele>
        <time>2021-03-21T07:56:52Z</time>
      </trkpt>
      <trkpt lat="45.19782" lon="5.73039">
        <ele>232.94</ele>
        <time>2021-03-21T07:56:56Z</time>
      </trkpt>
      <trkpt lat="45.19794" lon="5.73046">
        <ele>231.261</ele>
        <time>2021-03-21T07:57:01Z</time>
      </trkpt>
      <trkpt lat="45.19791" lon="5.73055">
        <ele>229.681</ele>
        <time>2021-03-21T07:57:07Z</time>
      </trkpt>
      <trkpt lat="45.19776" lon="5.73052">
        <ele>227.377</ele>
        <time>2021-03-21T07:57:14Z</time>
      </trkpt>
      <trkpt lat="45.19766" lon="5.73049">
        <ele>226.075</ele>
        <time>2021-03-21T07:57:18Z</time>
      </trkpt>
      <trkpt lat="45.19761" lon="5.73048">
        <ele>225.311</ele>
        <time>2021-03-21T07:57:20Z</time>
      </trkpt>
      <trkpt lat="45.19757" lon="5.73049">
        <ele>225.695</ele>
        <time>2021-03-21T07:57:22Z</time>
      </trkpt>
      <trkpt lat="45.19758" lon="5.73055">
        <ele>223.299</ele>
        <time>2021-03-21T07:57:26Z</time>
      </trkpt>
      <trkpt lat="45.1977" lon="5.73061">
        <ele>221.813</ele>
        <time>2021-03-21T07:57:32Z</time>
      </trkpt>
      <trkpt lat="45.19772" lon="5.73063">
        <ele>221.548</ele>
        <time>2021-03-21T07:57:33Z</time>
      </trkpt>
      <trkpt lat="45.19787" lon="5.73071">
        <ele>219.812</ele>
        <time>2021-03-21T07:57:39Z</time>
      </trkpt>
      <trkpt lat="45.19796" lon="5.73076">
        <ele>218.188</ele>
        <time>2021-03-21T07:57:43Z</time>
      </trkpt>
      <trkpt lat="45.198" lon="5.7308">
        <ele>218.01</ele>
        <time>2021-03-21T07:57:45Z</time>
      </trkpt>
      <trkpt lat="45.19799" lon="5.73085">
        <ele>216.125</ele>
        <time>2021-03-21T07:57:50Z</time>
      </trkpt>
      <trkpt lat="45.19787" lon="5.73082">
        <ele>214.273</ele>
        <time>2021-03-21T07:57:55Z</time>
      </trkpt>
      <trkpt lat="45.19772" lon="5.73076">
        <ele>212.426</ele>
        <time>2021-03-21T07:58:02Z</time>
      </trkpt>
      <trkpt lat="45.1977" lon="5.73077">
        <ele>212.255</ele>
        <time>2021-03-21T07:58:03Z</time>
      </trkpt>
      <trkpt lat="45.1977" lon="5.73085">
        <ele>210.408</ele>
        <time>2021-03-21T07:58:07Z</time>
      </trkpt>
      <trkpt lat="45.19778" lon="5.73096">
        <ele>209.367</ele>
        <time>2021-03-21T07:58:11Z</time>
      </trkpt>
      <trkpt lat="45.19782" lon="5.73098">
        <ele>208.703</ele>
        <time>2021-03-21T07:58:13Z</time>
      </trkpt>
      <trkpt lat="45.19787" lon="5.73097">
        <ele>207.277</ele>
        <time>2021-03-21T07:58:16Z</time>
      </trkpt>
      <trkpt lat="45.19801" lon="5.73106">
        <ele>205.7</ele>
        <time>2021-03-21T07:58:22Z</time>
      </trkpt>
      <trkpt lat="45.19801" lon="5.7312">
        <ele>203.829</ele>
        <time>2021-03-21T07:58:26Z</time>
      </trkpt>
      <trkpt lat="45.19792" lon="5.73127">
        <ele>202.791</ele>
        <time>2021-03-21T07:58:30Z</time>
      </trkpt>
      <trkpt lat="45.19782" lon="5.73144">
        <ele>200.619</ele>
        <time>2021-03-21T07:58:35Z</time>
      </trkpt>
      <trkpt lat="45.19778" lon="5.73158">
        <ele>198.637</ele>
        <time>2021-03-21T07:58:39Z</time>
      </trkpt>
      <trkpt lat="45.19777" lon="5.73171">
        <ele>197.281</ele>
        <time>2021-03-21T07:58:42Z</time>
      </trkpt>
      <trkpt lat="45.19779" lon="5.73191">
        <ele>197.942</ele>
        <time>2021-03-21T07:58:47Z</time>
      </trkpt>
      <trkpt lat="45.19776" lon="5.73214">
        <ele>197.372</ele>
        <time>2021-03-21T07:58:53Z</time>
      </trkpt>
      <trkpt lat="45.19769" lon="5.7324">
        <ele>198.845</ele>
        <time>2021-03-21T07:59:01Z</time>
      </trkpt>
      <trkpt lat="45.19768" lon="5.73244">
        <ele>198.904</ele>
        <time>2021-03-21T07:59:02Z</time>
      </trkpt>
      <trkpt lat="45.1976" lon="5.73262">
        <ele>198.86</ele>
        <time>2021-03-21T07:59:08Z</time>
      </trkpt>
      <trkpt lat="45.19753" lon="5.73286">
        <ele>199.698</ele>
        <time>2021-03-21T07:59:15Z</time>
      </trkpt>
      <trkpt lat="45.19746" lon="5.73307">
        <ele>199.625</ele>
        <time>2021-03-21T07:59:21Z</time>
      </trkpt>
      <trkpt lat="45.19742" lon="5.73325">
        <ele>200.035</ele>
        <time>2021-03-21T07:59:26Z</time>
      </trkpt>
      <trkpt lat="45.19735" lon="5.73353">
        <ele>199.762</ele>
        <time>2021-03-21T07:59:34Z</time>
      </trkpt>
      <trkpt lat="45.19744" lon="5.73363">
        <ele>198.721</ele>
        <time>2021-03-21T07:59:40Z</time>
      </trkpt>
      <trkpt lat="45.1976" lon="5.7337">
        <ele>197.969</ele>
        <time>2021-03-21T07:59:47Z</time>
      </trkpt>
      <trkpt lat="45.19778" lon="5.73376">
        <ele>197.568</ele>
        <time>2021-03-21T07:59:55Z</time>
      </trkpt>
      <trkpt lat="45.19792" lon="5.73382">
        <ele>197.753</ele>
        <time>2021-03-21T08:00:02Z</time>
      </trkpt>
      <trkpt lat="45.19806" lon="5.73385">
        <ele>197.266</ele>
        <time>2021-03-21T08:00:08Z</time>
      </trkpt>
      <trkpt lat="45.19822" lon="5.73389">
        <ele>197.322</ele>
        <time>2021-03-21T08:00:14Z</time>
      </trkpt>
      <trkpt lat="45.19844" lon="5.73394">
        <ele>197.227</ele>
        <time>2021-03-21T08:00:21Z</time>
      </trkpt>
      <trkpt lat="45.19859" lon="5.73402">
        <ele>197.57</ele>
        <time>2021-03-21T08:00:28Z</time>
      </trkpt>
      <trkpt lat="45.19877" lon="5.7341">
        <ele>197.713</ele>
        <time>2021-03-21T08:00:36Z</time>
      </trkpt>
      <trkpt lat="45.19884" lon="5.73411">
        <ele>197.677</ele>
        <time>2021-03-21T08:00:41Z</time>
      </trkpt>
      <trkpt lat="45.19897" lon="5.73415">
        <ele>197.442</ele>
        <time>2021-03-21T08:00:46Z</time>
      </trkpt>
      <trkpt lat="45.19919" lon="5.73419">
        <ele>197.489</ele>
        <time>2021-03-21T08:00:53Z</time>
      </trkpt>
      <trkpt lat="45.19941" lon="5.73423">
        <ele>197.455</ele>
        <time>2021-03-21T08:01:00Z</time>
      </trkpt>
      <trkpt lat="45.19946" lon="5.73424">
        <ele>197.768</ele>
        <time>2021-03-21T08:01:02Z</time>
      </trkpt>
      <trkpt lat="45.19963" lon="5.7343">
        <ele>197.937</ele>
        <time>2021-03-21T08:01:09Z</time>
      </trkpt>
      <trkpt lat="45.19975" lon="5.73434">
        <ele>197.618</ele>
        <time>2021-03-21T08:01:14Z</time>
      </trkpt>
      <trkpt lat="45.19989" lon="5.73439">
        <ele>198.284</ele>
        <time>2021-03-21T08:01:19Z</time>
      </trkpt>
      <trkpt lat="45.20003" lon="5.73446">
        <ele>197.996</ele>
        <time>2021-03-21T08:01:24Z</time>
      </trkpt>
      <trkpt lat="45.20019" lon="5.73456">
        <ele>196.772</ele>
        <time>2021-03-21T08:01:30Z</time>
      </trkpt>
      <trkpt lat="45.20034" lon="5.73466">
        <ele>197.777</ele>
        <time>2021-03-21T08:01:36Z</time>
      </trkpt>
      <trkpt lat="45.20049" lon="5.73478">
        <ele>198.34</ele>
        <time>2021-03-21T08:01:42Z</time>
      </trkpt>
      <trkpt lat="45.20061" lon="5.73492">
        <ele>198.366</ele>
        <time>2021-03-21T08:01:48Z</time>
      </trkpt>
      <trkpt lat="45.20073" lon="5.73507">
        <ele>198.495</ele>
        <time>2021-03-21T08:01:54Z</time>
      </trkpt>
      <trkpt lat="45.20088" lon="5.7352">
        <ele>198.964</ele>
        <time>2021-03-21T08:02:00Z</time>
      </trkpt>
      <trkpt lat="45.20107" lon="5.73542">
        <ele>199.292</ele>
        <time>2021-03-21T08:02:08Z</time>
      </trkpt>
      <trkpt lat="45.20121" lon="5.73558">
        <ele>198.97</ele>
        <time>2021-03-21T08:02:15Z</time>
      </trkpt>
      <trkpt lat="45.20133" lon="5.73575">
        <ele>199.281</ele>
        <time>2021-03-21T08:02:21Z</time>
      </trkpt>
      <trkpt lat="45.20146" lon="5.73593">
        <ele>198.971</ele>
        <time>2021-03-21T08:02:28Z</time>
      </trkpt>
      <trkpt lat="45.20153" lon="5.7361">
        <ele>199.291</ele>
        <time>2021-03-21T08:02:34Z</time>
      </trkpt>
      <trkpt lat="45.20164" lon="5.73637">
        <ele>199.3</ele>
        <time>2021-03-21T08:02:42Z</time>
      </trkpt>
      <trkpt lat="45.20169" lon="5.73661">
        <ele>199.564</ele>
        <time>2021-03-21T08:02:48Z</time>
      </trkpt>
      <trkpt lat="45.20174" lon="5.73704">
        <ele>199.337</ele>
        <time>2021-03-21T08:02:59Z</time>
      </trkpt>
      <trkpt lat="45.20178" lon="5.73741">
        <ele>199.842</ele>
        <time>2021-03-21T08:03:08Z</time>
      </trkpt>
      <trkpt lat="45.20176" lon="5.73777">
        <ele>199.24</ele>
        <time>2021-03-21T08:03:16Z</time>
      </trkpt>
      <trkpt lat="45.20176" lon="5.73796">
        <ele>199.775</ele>
        <time>2021-03-21T08:03:21Z</time>
      </trkpt>
      <trkpt lat="45.20177" lon="5.73814">
        <ele>199.824</ele>
        <time>2021-03-21T08:03:26Z</time>
      </trkpt>
      <trkpt lat="45.20178" lon="5.73828">
        <ele>199.31</ele>
        <time>2021-03-21T08:03:31Z</time>
      </trkpt>
      <trkpt lat="45.20174" lon="5.73844">
        <ele>198.714</ele>
        <time>2021-03-21T08:03:37Z</time>
      </trkpt>
      <trkpt lat="45.20173" lon="5.73848">
        <ele>198.484</ele>
        <time>2021-03-21T08:03:39Z</time>
      </trkpt>
      <trkpt lat="45.20164" lon="5.73869">
        <ele>198.758</ele>
        <time>2021-03-21T08:03:48Z</time>
      </trkpt>
      <trkpt lat="45.20154" lon="5.73889">
        <ele>198.43</ele>
        <time>2021-03-21T08:03:55Z</time>
      </trkpt>
      <trkpt lat="45.20143" lon="5.73909">
        <ele>199.146</ele>
        <time>2021-03-21T08:04:02Z</time>
      </trkpt>
      <trkpt lat="45.20133" lon="5.73925">
        <ele>199.776</ele>
        <time>2021-03-21T08:04:08Z</time>
      </trkpt>
      <trkpt lat="45.20123" lon="5.73943">
        <ele>198.985</ele>
        <time>2021-03-21T08:04:15Z</time>
      </trkpt>
      <trkpt lat="45.20114" lon="5.73954">
        <ele>198.548</ele>
        <time>2021-03-21T08:04:20Z</time>
      </trkpt>
      <trkpt lat="45.20109" lon="5.73961">
        <ele>198.352</ele>
        <time>2021-03-21T08:04:24Z</time>
      </trkpt>
      <trkpt lat="45.20101" lon="5.73963">
        <ele>198.226</ele>
        <time>2021-03-21T08:04:28Z</time>
      </trkpt>
      <trkpt lat="45.20085" lon="5.73971">
        <ele>198.54</ele>
        <time>2021-03-21T08:04:36Z</time>
      </trkpt>
      <trkpt lat="45.20077" lon="5.73976">
        <ele>197.874</ele>
        <time>2021-03-21T08:04:41Z</time>
      </trkpt>
      <trkpt lat="45.20069" lon="5.73982">
        <ele>198.731</ele>
        <time>2021-03-21T08:04:47Z</time>
      </trkpt>
      <trkpt lat="45.20057" lon="5.74">
        <ele>198.758</ele>
        <time>2021-03-21T08:04:54Z</time>
      </trkpt>
      <trkpt lat="45.20043" lon="5.74009">
        <ele>198.743</ele>
        <time>2021-03-21T08:05:01Z</time>
      </trkpt>
      <trkpt lat="45.20041" lon="5.7401">
        <ele>198.561</ele>
        <time>2021-03-21T08:05:02Z</time>
      </trkpt>
      <trkpt lat="45.20032" lon="5.7401">
        <ele>199.056</ele>
        <time>2021-03-21T08:05:07Z</time>
      </trkpt>
      <trkpt lat="45.20023" lon="5.74011">
        <ele>198.788</ele>
        <time>2021-03-21T08:05:11Z</time>
      </trkpt>
      <trkpt lat="45.20006" lon="5.74023">
        <ele>199.279</ele>
        <time>2021-03-21T08:05:18Z</time>
      </trkpt>
      <trkpt lat="45.19996" lon="5.74027">
        <ele>200.156</ele>
        <time>2021-03-21T08:05:23Z</time>
      </trkpt>
      <trkpt lat="45.19985" lon="5.74042">
        <ele>200.806</ele>
        <time>2021-03-21T08:05:29Z</time>
      </trkpt>
      <trkpt lat="45.19973" lon="5.74084">
        <ele>200.131</ele>
        <time>2021-03-21T08:05:35Z</time>
      </trkpt>
      <trkpt lat="45.19958" lon="5.74104">
        <ele>200.155</ele>
        <time>2021-03-21T08:05:41Z</time>
      </trkpt>
      <trkpt lat="45.19934" lon="5.74123">
        <ele>200.266</ele>
        <time>2021-03-21T08:05:50Z</time>
      </trkpt>
      <trkpt lat="45.19915" lon="5.74151">
        <ele>199.874</ele>
        <time>2021-03-21T08:05:58Z</time>
      </trkpt>
      <trkpt lat="45.19901" lon="5.74167">
        <ele>200.757</ele>
        <time>2021-03-21T08:06:04Z</time>
      </trkpt>
      <trkpt lat="45.19878" lon="5.74185">
        <ele>199.616</ele>
        <time>2021-03-21T08:06:13Z</time>
      </trkpt>
      <trkpt lat="45.19857" lon="5.742">
        <ele>200.098</ele>
        <time>2021-03-21T08:06:20Z</time>
      </trkpt>
      <trkpt lat="45.1984" lon="5.7421">
        <ele>200.065</ele>
        <time>2021-03-21T08:06:26Z</time>
      </trkpt>
      <trkpt lat="45.1982" lon="5.74218">
        <ele>199.728</ele>
        <time>2021-03-21T08:06:33Z</time>
      </trkpt>
      <trkpt lat="45.19799" lon="5.74222">
        <ele>199.943</ele>
        <time>2021-03-21T08:06:40Z</time>
      </trkpt>
      <trkpt lat="45.19782" lon="5.74228">
        <ele>199.861</ele>
        <time>2021-03-21T08:06:46Z</time>
      </trkpt>
      <trkpt lat="45.19759" lon="5.74231">
        <ele>200.345</ele>
        <time>2021-03-21T08:06:54Z</time>
      </trkpt>
      <trkpt lat="45.19739" lon="5.74235">
        <ele>199.953</ele>
        <time>2021-03-21T08:07:02Z</time>
      </trkpt>
      <trkpt lat="45.19737" lon="5.74232">
        <ele>198.523</ele>
        <time>2021-03-21T08:07:06Z</time>
      </trkpt>
      <trkpt lat="45.19735" lon="5.74225">
        <ele>198.149</ele>
        <time>2021-03-21T08:07:10Z</time>
      </trkpt>
      <trkpt lat="45.1973" lon="5.74207">
        <ele>197.922</ele>
        <time>2021-03-21T08:07:16Z</time>
      </trkpt>
      <trkpt lat="45.19728" lon="5.74201">
        <ele>197.927</ele>
        <time>2021-03-21T08:07:19Z</time>
      </trkpt>
      <trkpt lat="45.19725" lon="5.74193">
        <ele>198.468</ele>
        <time>2021-03-21T08:07:23Z</time>
      </trkpt>
      <trkpt lat="45.19721" lon="5.74162">
        <ele>198.387</ele>
        <time>2021-03-21T08:07:32Z</time>
      </trkpt>
      <trkpt lat="45.19719" lon="5.74146">
        <ele>198.276</ele>
        <time>2021-03-21T08:07:37Z</time>
      </trkpt>
      <trkpt lat="45.19714" lon="5.74125">
        <ele>198.63</ele>
        <time>2021-03-21T08:07:42Z</time>
      </trkpt>
      <trkpt lat="45.1971" lon="5.74101">
        <ele>198.216</ele>
        <time>2021-03-21T08:07:49Z</time>
      </trkpt>
      <trkpt lat="45.19708" lon="5.74072">
        <ele>198.568</ele>
        <time>2021-03-21T08:07:57Z</time>
      </trkpt>
      <trkpt lat="45.19701" lon="5.74054">
        <ele>198.865</ele>
        <time>2021-03-21T08:08:02Z</time>
      </trkpt>
      <trkpt lat="45.19697" lon="5.74031">
        <ele>198.779</ele>
        <time>2021-03-21T08:08:08Z</time>
      </trkpt>
      <trkpt lat="45.19695" lon="5.7401">
        <ele>198.977</ele>
        <time>2021-03-21T08:08:14Z</time>
      </trkpt>
      <trkpt lat="45.19691" lon="5.74002">
        <ele>199.018</ele>
        <time>2021-03-21T08:08:17Z</time>
      </trkpt>
      <trkpt lat="45.19676" lon="5.73997">
        <ele>198.887</ele>
        <time>2021-03-21T08:08:23Z</time>
      </trkpt>
      <trkpt lat="45.19652" lon="5.73991">
        <ele>198.664</ele>
        <time>2021-03-21T08:08:32Z</time>
      </trkpt>
      <trkpt lat="45.19638" lon="5.73987">
        <ele>198.429</ele>
        <time>2021-03-21T08:08:37Z</time>
      </trkpt>
      <trkpt lat="45.19626" lon="5.73982">
        <ele>198.701</ele>
        <time>2021-03-21T08:08:42Z</time>
      </trkpt>
      <trkpt lat="45.19623" lon="5.73962">
        <ele>198.484</ele>
        <time>2021-03-21T08:08:49Z</time>
      </trkpt>
      <trkpt lat="45.1963" lon="5.73949">
        <ele>199.501</ele>
        <time>2021-03-21T08:08:55Z</time>
      </trkpt>
      <trkpt lat="45.19634" lon="5.73948">
        <ele>199.338</ele>
        <time>2021-03-21T08:08:57Z</time>
      </trkpt>
      <trkpt lat="45.19642" lon="5.73952">
        <ele>199.614</ele>
        <time>2021-03-21T08:09:04Z</time>
      </trkpt>
      <trkpt lat="45.19644" lon="5.73961">
        <ele>199.505</ele>
        <time>2021-03-21T08:09:11Z</time>
      </trkpt>
      <trkpt lat="45.19641" lon="5.73961">
        <ele>199.602</ele>
        <time>2021-03-21T08:09:16Z</time>
      </trkpt>
      <trkpt lat="45.19638" lon="5.73973">
        <ele>201.244</ele>
        <time>2021-03-21T08:09:23Z</time>
      </trkpt>
      <trkpt lat="45.19638" lon="5.73978">
        <ele>203.053</ele>
        <time>2021-03-21T08:09:28Z</time>
      </trkpt>
      <trkpt lat="45.1964" lon="5.73978">
        <ele>204.725</ele>
        <time>2021-03-21T08:09:35Z</time>
      </trkpt>
      <trkpt lat="45.19641" lon="5.73979">
        <ele>205.8</ele>
        <time>2021-03-21T08:09:37Z</time>
      </trkpt>
      <trkpt lat="45.19639" lon="5.7398">
        <ele>206.652</ele>
        <time>2021-03-21T08:09:43Z</time>
      </trkpt>
      <trkpt lat="45.19642" lon="5.73981">
        <ele>209.64</ele>
        <time>2021-03-21T08:09:49Z</time>
      </trkpt>
      <trkpt lat="45.19647" lon="5.73975">
        <ele>209.395</ele>
        <time>2021-03-21T08:09:55Z</time>
      </trkpt>
      <trkpt lat="45.19654" lon="5.73972">
        <ele>209.448</ele>
        <time>2021-03-21T08:10:02Z</time>
      </trkpt>
      <trkpt lat="45.19659" lon="5.7397">
        <ele>209.817</ele>
        <time>2021-03-21T08:10:09Z</time>
      </trkpt>
    </trkseg>
  </trk>
</gpx>